[[{"header":{"parameterUnit":"m.s-1","parameterCategory":1,"la1":30.6,"la2":29.2853,"lo1":-89.7004,"lo2":-87.6739,"dy":0.0162,"dx":0.0183,"nx":112,"ny":82,"refTime":"2025-07-04T12:00:00:Z","depth":0,"parameterNumber":2,"parameterNumberName":"U-component_of_WINDS"},"data":[0.0,0.0,0.0,0.0,0.0,0.0,0.0,0.0,0.0,0.0,0.0,0.0,0.0,0.0,0.0,0.0,0.0,0.0,0.0,0.0,0.0,0.0,0.0,0.0,0.0,0.0,0.0,0.0,0.0,0.0,0.0,0.0,0.0,0.0,0.0,0.0,0.0,0.0,0.0,0.0,0.0,0.0,0.0,0.0,0.0,0.0,0.0,0.0,0.0,0.0,0.0,0.0,0.0,0.0,0.0,0.0,0.0,0.0,0.0,0.0,0.0,0.0,0.0,0.0,0.0,0.0,0.0,0.0,0.0,0.0,0.0,0.0,0.0,0.0,0.0,0.0,0.0,0.0,0.0,0.0,0.0,0.0,0.0,0.0,0.0,0.0,0.0,0.0,0.0,0.0,0.0,-1.4767,-1.6393,-1.721,-1.6659,-1.6678,-1.5741,-1.3308,0.0,0.0,0.0,0.0,0.0,0.0,0.0,0.0,0.0,0.0,0.0,0.0,0.0,0.0,0.0,0.0,0.0,0.0,0.0,0.0,0.0,0.0,0.0,0.0,0.0,0.0,0.0,0.0,0.0,0.0,0.0,0.0,0.0,0.0,0.0,0.0,0.0,0.0,0.0,0.0,0.0,0.0,0.0,0.0,0.0,0.0,0.0,0.0,0.0,0.0,0.0,0.0,0.0,0.0,0.0,0.0,0.0,0.0,0.0,0.0,0.0,0.0,0.0,0.0,0.0,0.0,0.0,0.0,0.0,0.0,0.0,0.0,0.0,0.0,0.0,0.0,0.0,0.0,0.0,0.0,0.0,0.0,0.0,0.0,0.0,0.0,0.0,0.0,0.0,0.0,0.0,0.0,0.0,0.0,0.0,0.0,0.0,0.0,0.0,0.0,0.0,0.0,0.0,0.0,-1.2062,-1.4214,-1.5412,-1.5703,-1.4816,-1.5582,-1.493,-1.2194,0.0,0.0,0.0,0.0,0.0,0.0,0.0,0.0,0.0,0.0,0.0,0.0,0.0,0.0,0.0,0.0,0.0,0.0,0.0,0.0,0.0,0.0,0.0,0.0,0.0,0.0,0.0,0.0,0.0,0.0,0.0,0.0,0.0,0.0,0.0,0.0,0.0,0.0,0.0,0.0,0.0,0.0,0.0,0.0,0.0,0.0,0.0,0.0,0.0,0.0,0.0,0.0,0.0,0.0,0.0,0.0,0.0,0.0,0.0,0.0,0.0,0.0,0.0,0.0,0.0,0.0,0.0,0.0,0.0,0.0,0.0,0.0,0.0,0.0,0.0,0.0,0.0,0.0,0.0,0.0,0.0,0.0,0.0,0.0,0.0,0.0,0.0,0.0,0.0,0.0,0.0,0.0,0.0,0.0,0.0,0.0,0.0,0.0,0.0,0.0,0.0,0.0,0.0,-1.1106,-1.2369,-1.4069,-1.4717,-1.481,-1.4398,-1.4401,-1.3654,-1.171,-1.125,0.0,0.0,0.0,0.0,0.0,0.0,0.0,0.0,0.0,0.0,0.0,0.0,0.0,0.0,0.0,0.0,0.0,0.0,0.0,0.0,0.0,0.0,0.0,0.0,0.0,0.0,0.0,0.0,0.0,0.0,0.0,0.0,0.0,0.0,0.0,0.0,0.0,0.0,0.0,0.0,0.0,0.0,0.0,0.0,0.0,0.0,0.0,0.0,0.0,0.0,0.0,0.0,0.0,0.0,0.0,0.0,0.0,0.0,0.0,0.0,0.0,0.0,0.0,0.0,0.0,0.0,0.0,0.0,0.0,0.0,0.0,0.0,0.0,0.0,0.0,0.0,0.0,0.0,0.0,0.0,0.0,0.0,0.0,0.0,0.0,0.0,0.0,0.0,0.0,0.0,0.0,0.0,0.0,0.0,0.0,0.0,0.0,0.0,0.0,0.0,0.0,0.0,-1.1927,-1.2837,-1.4156,-1.4351,-1.4321,-1.4321,-1.3487,-1.2545,-1.149,-1.02,0.0,0.0,0.0,0.0,0.0,0.0,0.0,0.0,0.0,0.0,0.0,0.0,0.0,0.0,0.0,0.0,0.0,0.0,0.0,0.0,0.0,0.0,0.0,0.0,0.0,0.0,0.0,0.0,0.0,0.0,0.0,0.0,0.0,0.0,0.0,0.0,0.0,0.0,0.0,0.0,0.0,0.0,0.0,0.0,0.0,0.0,0.0,0.0,0.0,0.0,0.0,0.0,0.0,0.0,0.0,0.0,0.0,0.0,0.0,0.0,0.0,0.0,0.0,0.0,0.0,0.0,0.0,0.0,0.0,0.0,0.0,0.0,0.0,0.0,0.0,0.0,0.0,0.0,0.0,0.0,0.0,0.0,0.0,0.0,0.0,0.0,0.0,0.0,0.0,0.0,0.0,0.0,0.0,0.0,0.0,0.0,0.0,0.0,0.0,0.0,0.0,0.0,-1.2079,-1.3162,-1.4261,-1.423,-1.4088,-1.4088,-1.3026,-1.2098,-1.1463,-0.982,0.0,0.0,0.0,0.0,0.0,0.0,0.0,0.0,0.0,0.0,0.0,0.0,0.0,0.0,0.0,0.0,0.0,0.0,0.0,0.0,0.0,0.0,0.0,0.0,0.0,0.0,0.0,0.0,0.0,0.0,0.0,0.0,0.0,0.0,0.0,0.0,0.0,0.0,0.0,0.0,0.0,0.0,0.0,0.0,0.0,0.0,0.0,0.0,0.0,0.0,0.0,0.0,0.0,0.0,0.0,0.0,0.0,0.0,0.0,0.0,0.0,0.0,0.0,0.0,0.0,0.0,0.0,0.0,0.0,0.0,0.0,0.0,0.0,0.0,0.0,0.0,0.0,0.0,0.0,0.0,0.0,0.0,0.0,0.0,0.0,0.0,0.0,0.0,0.0,0.0,0.0,0.0,0.0,0.0,0.0,0.0,0.0,0.0,0.0,0.0,0.0,0.0,-1.1661,-1.2761,0.0,-1.4166,-1.4088,-1.4088,-1.334,-1.2458,-1.149,0.0,0.0,0.0,0.0,0.0,0.0,0.0,0.0,0.0,0.0,0.0,0.0,0.0,0.0,0.0,0.0,0.0,0.0,0.0,0.0,0.0,0.0,0.0,0.0,0.0,0.0,0.0,0.0,0.0,0.0,0.0,0.0,0.0,0.0,0.0,0.0,0.0,0.0,0.0,0.0,0.0,0.0,0.0,0.0,0.0,0.0,0.0,0.0,0.0,0.0,0.0,0.0,0.0,0.0,0.0,0.0,0.0,0.0,0.0,0.0,0.0,0.0,0.0,0.0,0.0,0.0,0.0,0.0,0.0,0.0,0.0,0.0,0.0,0.0,0.0,0.0,0.0,0.0,0.0,0.0,0.0,0.0,0.0,0.0,0.0,0.0,0.0,0.0,0.0,0.0,0.0,0.0,0.0,0.0,0.0,0.0,0.0,0.0,0.0,0.0,0.0,0.0,-1.047,-1.1646,-1.2835,0.0,-1.4088,-1.4088,-1.4088,-1.3373,-1.2452,-1.1356,0.0,0.0,0.0,0.0,0.0,0.0,0.0,0.0,0.0,0.0,0.0,0.0,0.0,0.0,0.0,0.0,0.0,0.0,0.0,0.0,0.0,0.0,0.0,0.0,0.0,0.0,0.0,0.0,0.0,0.0,0.0,0.0,0.0,0.0,0.0,0.0,0.0,0.0,0.0,0.0,0.0,0.0,0.0,0.0,0.0,0.0,0.0,0.0,0.0,0.0,0.0,0.0,0.0,0.0,0.0,0.0,0.0,0.0,0.0,0.0,0.0,0.0,0.0,0.0,0.0,0.0,0.0,0.0,0.0,0.0,0.0,0.0,0.0,0.0,0.0,0.0,0.0,0.0,0.0,0.0,0.0,0.0,0.0,0.0,0.0,0.0,0.0,0.0,0.0,0.0,0.0,0.0,0.0,0.0,0.0,0.0,0.0,0.0,0.0,0.0,0.0,0.0,-1.0544,-1.2111,-1.3434,-1.4028,-1.4088,-1.4088,-1.4088,-1.2999,-1.1937,0.0,0.0,0.0,0.0,0.0,0.0,0.0,0.0,0.0,0.0,0.0,0.0,0.0,0.0,0.0,0.0,0.0,0.0,0.0,0.0,0.0,0.0,0.0,0.0,0.0,0.0,0.0,0.0,0.0,0.0,0.0,0.0,0.0,0.0,0.0,0.0,0.0,0.0,0.0,0.0,0.0,0.0,0.0,0.0,0.0,0.0,0.0,0.0,0.0,0.0,0.0,0.0,0.0,0.0,0.0,0.0,0.0,0.0,0.0,0.0,0.0,0.0,0.0,0.0,0.0,0.0,0.0,0.0,0.0,0.0,0.0,0.0,0.0,0.0,0.0,0.0,0.0,0.0,0.0,0.0,0.0,0.0,0.0,0.0,0.0,0.0,0.0,0.0,0.0,0.0,0.0,0.0,0.0,0.0,0.0,0.0,0.0,0.0,0.0,0.0,0.0,0.0,0.0,0.0,-1.2111,-1.3434,-1.4028,-1.4088,-1.4088,-1.4088,-1.338,-1.2472,-1.1369,0.0,0.0,0.0,0.0,0.0,0.0,0.0,0.0,0.0,0.0,0.0,0.0,0.0,0.0,0.0,0.0,0.0,0.0,0.0,0.0,0.0,0.0,0.0,0.0,0.0,0.0,0.0,0.0,0.0,0.0,0.0,0.0,0.0,0.0,0.0,0.0,0.0,0.0,0.0,0.0,0.0,0.0,0.0,0.0,0.0,0.0,0.0,0.0,0.0,0.0,0.0,0.0,0.0,0.0,0.0,0.0,0.0,0.0,0.0,0.0,0.0,0.0,0.0,0.0,0.0,0.0,0.0,0.0,0.0,0.0,0.0,0.0,0.0,0.0,0.0,0.0,0.0,0.0,0.0,0.0,0.0,0.0,0.0,0.0,0.0,0.0,0.0,0.0,0.0,0.0,0.0,0.0,0.0,0.0,0.0,0.0,0.0,0.0,0.0,0.0,0.0,0.0,-1.0641,-1.2184,-1.3434,-1.4028,-1.4088,-1.4088,-1.4088,-1.3654,-1.2826,-1.151,0.0,0.0,0.0,0.0,0.0,0.0,0.0,0.0,0.0,0.0,0.0,0.0,0.0,0.0,0.0,0.0,0.0,0.0,0.0,0.0,0.0,0.0,0.0,0.0,0.0,0.0,0.0,0.0,0.0,0.0,0.0,0.0,0.0,0.0,0.0,0.0,0.0,0.0,0.0,0.0,0.0,0.0,0.0,0.0,0.0,0.0,0.0,0.0,0.0,0.0,0.0,0.0,0.0,0.0,0.0,0.0,0.0,0.0,0.0,0.0,0.0,0.0,0.0,0.0,0.0,0.0,0.0,0.0,0.0,0.0,0.0,0.0,0.0,0.0,0.0,0.0,0.0,0.0,0.0,0.0,0.0,0.0,0.0,0.0,0.0,0.0,0.0,0.0,0.0,0.0,0.0,0.0,0.0,0.0,0.0,0.0,0.0,0.0,0.0,0.0,0.0,0.0,-1.0882,-1.2318,-1.3467,-1.4028,-1.4088,-1.4088,-1.4088,-1.3814,-1.2955,-1.1597,0.0,0.0,0.0,0.0,0.0,0.0,0.0,0.0,0.0,0.0,0.0,0.0,0.0,0.0,0.0,0.0,0.0,0.0,0.0,0.0,0.0,0.0,0.0,0.0,0.0,0.0,0.0,0.0,0.0,0.0,0.0,0.0,0.0,0.0,0.0,0.0,0.0,0.0,0.0,0.0,0.0,0.0,0.0,0.0,0.0,0.0,0.0,0.0,0.0,0.0,0.0,0.0,0.0,0.0,0.0,0.0,0.0,0.0,0.0,0.0,-1.6738,0.0,0.0,0.0,0.0,0.0,0.0,0.0,0.0,0.0,0.0,0.0,0.0,0.0,0.0,0.0,0.0,0.0,0.0,0.0,0.0,0.0,0.0,0.0,0.0,0.0,0.0,0.0,0.0,0.0,0.0,0.0,0.0,0.0,0.0,0.0,0.0,0.0,0.0,0.0,0.0,0.0,-1.0909,-1.2492,-1.3687,-1.4048,-1.4088,-1.4088,-1.4088,-1.3814,-1.3206,-1.2178,0.0,0.0,0.0,0.0,0.0,0.0,0.0,0.0,0.0,0.0,0.0,0.0,0.0,0.0,0.0,0.0,0.0,0.0,0.0,0.0,0.0,0.0,0.0,0.0,0.0,0.0,0.0,0.0,0.0,0.0,0.0,0.0,0.0,0.0,0.0,0.0,0.0,0.0,0.0,0.0,0.0,0.0,0.0,0.0,0.0,0.0,0.0,0.0,0.0,0.0,0.0,0.0,0.0,0.0,0.0,0.0,0.0,0.0,0.0,0.0,0.0,-1.8257,0.0,0.0,0.0,0.0,0.0,0.0,0.0,0.0,0.0,0.0,0.0,0.0,0.0,0.0,0.0,0.0,0.0,0.0,0.0,0.0,0.0,0.0,0.0,0.0,0.0,0.0,0.0,0.0,0.0,0.0,0.0,0.0,0.0,0.0,0.0,0.0,0.0,0.0,0.0,0.0,-1.1303,-1.2719,-1.3761,-1.4055,-1.4088,-1.4088,-1.4088,-1.3948,-1.354,-1.2786,-1.1546,0.0,0.0,0.0,0.0,0.0,0.0,0.0,0.0,0.0,0.0,0.0,0.0,0.0,0.0,0.0,0.0,0.0,0.0,0.0,0.0,0.0,0.0,0.0,0.0,0.0,0.0,0.0,0.0,0.0,0.0,0.0,0.0,0.0,0.0,0.0,0.0,0.0,0.0,0.0,0.0,0.0,0.0,0.0,0.0,0.0,0.0,0.0,0.0,0.0,0.0,0.0,0.0,0.0,0.0,0.0,-2.2017,-2.2134,-2.2335,-2.2616,-2.1395,-2.0814,-2.0679,0.0,0.0,0.0,0.0,0.0,0.0,0.0,0.0,0.0,0.0,0.0,0.0,0.0,0.0,0.0,0.0,0.0,0.0,0.0,0.0,0.0,0.0,0.0,0.0,0.0,-1.3514,-1.3327,0.0,0.0,0.0,0.0,0.0,0.0,0.0,0.0,0.0,0.0,0.0,0.0,-1.1804,-1.2824,-1.3559,-1.3802,-1.3737,-1.3568,-1.3568,-1.3568,-1.3349,-1.2827,-1.1468,-1.0378,0.0,0.0,0.0,0.0,0.0,0.0,0.0,0.0,0.0,0.0,0.0,0.0,0.0,0.0,0.0,0.0,0.0,0.0,0.0,0.0,0.0,0.0,0.0,0.0,0.0,0.0,0.0,0.0,0.0,0.0,0.0,0.0,-1.2183,-1.2612,0.0,0.0,0.0,0.0,0.0,0.0,0.0,0.0,0.0,0.0,0.0,0.0,0.0,0.0,-2.1051,-2.23,-2.3296,-2.4028,-2.4841,-2.52,-2.5275,-2.5309,-2.5373,-2.5425,-2.515,0.0,-2.2118,-2.0731,0.0,0.0,0.0,0.0,0.0,0.0,0.0,0.0,0.0,0.0,0.0,0.0,0.0,0.0,0.0,0.0,0.0,0.0,0.0,0.0,0.0,0.0,-1.5228,-1.4838,-1.473,-1.4636,0.0,-1.2552,-1.1189,-1.0788,0.0,0.0,0.0,0.0,0.0,0.0,0.0,0.0,-1.2158,-1.2555,-1.2838,-1.2875,-1.2186,-1.1666,-1.1666,-1.1666,-1.1555,-1.1194,-1.0713,-1.0081,-0.9419,-0.8201,0.0,0.0,0.0,0.0,0.0,0.0,0.0,0.0,0.0,0.0,0.0,0.0,0.0,0.0,0.0,0.0,0.0,0.0,0.0,0.0,0.0,0.0,0.0,0.0,0.0,0.0,0.0,0.0,0.0,-1.1728,-1.3056,-1.3535,-1.3864,-1.4057,0.0,0.0,0.0,0.0,0.0,0.0,0.0,0.0,0.0,-1.9693,-2.0595,-2.1629,-2.2971,-2.4335,-2.5125,-2.5488,-2.6009,-2.6306,-2.6317,-2.6062,-2.5875,-2.5875,-2.5875,-2.5316,-2.4291,-2.2925,-2.1797,-2.0824,0.0,0.0,0.0,0.0,0.0,0.0,-1.9902,0.0,0.0,0.0,0.0,0.0,0.0,0.0,0.0,0.0,0.0,0.0,0.0,0.0,0.0,-1.5255,-1.5331,-1.5371,-1.5077,-1.4302,-1.3327,0.0,-1.1911,-1.1443,-1.0154,0.0,0.0,0.0,0.0,0.0,-1.2732,-1.3222,-1.3483,-1.3483,-1.2619,-1.21,-1.21,-1.158,-1.1278,-1.1096,-1.0439,-0.9856,-0.9572,-0.8171,-0.7277,0.0,0.0,0.0,0.0,0.0,0.0,0.0,0.0,0.0,0.0,0.0,0.0,0.0,0.0,0.0,0.0,0.0,0.0,0.0,0.0,0.0,0.0,0.0,0.0,0.0,0.0,0.0,0.0,-1.2598,-1.393,-1.4681,-1.5271,-1.5556,0.0,0.0,0.0,0.0,0.0,0.0,-1.7805,-1.8499,-1.9781,-2.1642,-2.2322,-2.3281,-2.4526,-2.5409,-2.6198,-2.6684,-2.6515,-2.6668,-2.6966,-2.6501,-2.6227,-2.6227,-2.6227,-2.6165,-2.5958,-2.4726,-2.3619,-2.2635,-2.217,-2.1638,0.0,-2.1845,-2.173,-2.1386,-2.1614,-2.0973,-1.9862,-1.8984,0.0,-1.6511,-1.5258,0.0,0.0,0.0,0.0,-1.5187,-1.5388,0.0,-1.5686,-1.555,-1.5671,-1.5772,-1.5558,-1.5504,-1.507,0.0,-1.344,-1.3006,-1.1309,0.0,0.0,0.0,0.0,-1.2726,-1.3253,-1.3596,-1.3737,-1.3737,-1.2705,-1.2015,-1.2015,-1.1154,-1.0636,-1.0636,-0.9833,-0.9354,-0.9303,-0.8055,-0.7232,0.0,0.0,0.0,0.0,0.0,0.0,0.0,0.0,0.0,0.0,0.0,0.0,0.0,0.0,0.0,0.0,0.0,0.0,0.0,0.0,0.0,0.0,0.0,0.0,0.0,0.0,0.0,0.0,0.0,0.0,-1.6441,-1.7015,0.0,0.0,0.0,0.0,-1.7076,-1.781,-1.8797,-1.999,-2.0782,-2.153,-2.2262,-2.336,-2.4336,-2.5078,-2.5098,-2.6072,-2.7913,-2.6712,-2.6755,-2.7923,-2.7463,-2.7189,-2.7189,-2.7189,-2.6941,-2.6465,-2.5544,-2.5119,-2.5016,-2.455,-2.3916,-2.3359,-2.34,-2.3066,-2.272,-2.2725,-2.2575,-2.2273,-2.1641,-2.0015,-1.792,-1.6662,-1.6088,0.0,0.0,-1.5893,-1.5938,-1.6084,-1.6123,-1.6082,-1.5805,-1.5818,-1.5825,-1.5812,-1.5805,-1.5618,0.0,-1.4636,-1.4242,-1.3581,0.0,0.0,-1.2761,-1.2939,-1.3273,-1.3499,-1.313,-1.279,-1.279,-1.1154,-1.0033,-1.0033,-0.9257,-0.874,-0.874,-0.8476,-0.8295,-0.8115,-0.7918,-0.7565,-0.7036,-0.6574,0.0,0.0,0.0,0.0,0.0,0.0,0.0,0.0,0.0,0.0,0.0,0.0,0.0,0.0,0.0,0.0,0.0,0.0,0.0,0.0,0.0,0.0,0.0,0.0,0.0,0.0,0.0,0.0,-1.7758,-1.8712,0.0,0.0,-1.9097,-1.9334,-1.9552,-2.0393,-2.1102,-2.1526,-2.2087,-2.2557,-2.3098,-2.3539,-2.3926,-2.4564,-2.5034,-2.5379,-2.5717,-2.632,-2.6696,-2.6829,-2.7146,-2.7262,-2.7262,-2.7262,-2.7169,-2.6993,-2.6672,-2.6185,-2.5627,-2.5461,-2.5207,-2.4985,-2.473,-2.4098,-2.3261,-2.29,-2.1879,-2.0568,-1.9528,-1.8448,-1.7545,-1.7128,-1.6928,-1.6781,-1.6755,-1.6733,-1.6572,-1.6486,-1.6317,-1.613,-1.5832,-1.5832,-1.5832,-1.5832,-1.5832,-1.5765,-1.5565,-1.5284,-1.4836,-1.4062,-1.4155,-1.3992,-1.275,-1.2918,-1.2966,-1.2359,-1.2576,-1.2705,-1.2705,-1.1585,-1.0809,-1.0809,-0.9311,-0.839,-0.839,-0.8215,-0.8081,-0.8016,-0.7849,-0.775,-0.7553,-0.7005,-0.6564,0.0,0.0,0.0,0.0,0.0,0.0,0.0,0.0,0.0,0.0,0.0,0.0,0.0,0.0,0.0,0.0,0.0,0.0,0.0,0.0,0.0,0.0,0.0,0.0,0.0,0.0,-1.7543,-1.892,-1.9785,-2.0263,-2.0235,-2.0717,-2.117,-2.1309,-2.2006,-2.2593,-2.2731,-2.2997,-2.34,-2.3941,-2.4147,-2.4594,-2.5144,-2.5939,-2.6097,-2.5626,-2.7142,-2.756,-2.6933,-2.7605,-2.7945,-2.7945,-2.779,-2.7624,-2.7479,-2.7479,-2.7034,-2.6341,-2.6341,-2.6248,-2.592,-2.5574,-2.4829,-2.3942,-2.3458,-2.2037,-2.0184,-1.9278,-1.8399,-1.764,-1.7523,-1.7494,-1.7472,-1.7362,-1.7059,-1.6784,-1.6683,-1.6305,-1.6028,-1.5832,-1.5832,-1.5832,-1.5832,-1.5832,-1.5832,-1.5832,-1.5671,-1.5324,-1.4649,-1.485,-1.4757,-1.3554,-1.3291,-1.2951,-1.2321,-1.2363,-1.2412,-1.2319,-1.1527,-1.0886,-1.0814,-0.924,-0.8316,-0.8381,-0.8097,-0.7955,-0.8012,-0.7732,-0.7581,-0.7581,-0.7241,-0.6814,-0.6387,0.0,0.0,0.0,0.0,0.0,0.0,0.0,0.0,0.0,0.0,0.0,0.0,0.0,0.0,0.0,0.0,0.0,0.0,0.0,0.0,0.0,0.0,0.0,-1.6348,-1.7437,-1.8628,-1.9825,-2.0328,-2.066,-2.0847,-2.1406,-2.1951,-2.2337,-2.2758,-2.3067,-2.3547,-2.3574,-2.396,-2.4776,-2.5494,-2.6279,-2.7094,-2.7939,-2.8252,-2.7912,-2.9102,-2.9217,-2.8562,-2.9095,-2.9321,-2.928,-2.8825,-2.838,-2.7945,-2.7945,-2.7686,-2.7282,-2.7262,-2.6878,-2.6196,-2.5936,-2.5385,-2.474,-2.4361,-2.3017,-2.1388,-2.1292,-1.9941,-1.824,-1.7925,-1.783,-1.7765,-1.7435,-1.6972,-1.6595,-1.6588,-1.6211,-1.5832,-1.5832,-1.5832,-1.5832,-1.5832,-1.5832,-1.5832,-1.5832,-1.5832,-1.5738,-1.5458,-1.5411,-1.5317,-1.5037,-1.4057,0.0,-1.3308,-1.2489,-1.185,-1.1615,-1.0791,-1.0173,-0.9887,-0.8914,-0.8369,-0.854,-0.8052,-0.7833,-0.8,-0.7512,-0.7244,-0.7253,-0.7066,-0.695,-0.67,0.0,0.0,0.0,0.0,0.0,0.0,0.0,0.0,0.0,0.0,0.0,0.0,0.0,0.0,0.0,0.0,0.0,0.0,0.0,0.0,0.0,0.0,-1.8078,-1.8052,-1.8815,-1.9723,-2.0689,-2.1415,-2.2091,-2.2713,-2.2935,-2.3278,-2.3947,-2.3873,-2.3868,-2.3978,-2.4271,-2.4684,-2.5197,-2.5681,-2.6194,-2.6723,-2.6939,-2.7093,-2.706,-2.8165,-2.8581,-2.8445,-2.9421,-2.9622,-2.9301,-2.9166,-2.8856,-2.8421,-2.8421,-2.8152,-2.7707,-2.7386,-2.7179,-2.6971,-2.6506,-2.5439,-2.4059,-2.2472,-2.1313,-2.0506,-1.9729,-1.8979,-1.8284,-1.8196,-1.8167,-1.8101,-1.7772,-1.7397,-1.7067,-1.6739,-1.6305,-1.6028,-1.5832,-1.5832,-1.5832,-1.5832,-1.5832,-1.5832,-1.5832,-1.5832,-1.5805,-1.5725,-1.5712,-1.5402,-1.4565,0.0,0.0,-1.1812,-1.1852,-1.1629,-1.0847,-1.0567,-1.0304,-1.0089,-0.9112,-0.8398,0.0,-0.791,-0.778,-0.7829,-0.7691,-0.7671,-0.7793,-0.7492,-0.7309,0.0,0.0,0.0,0.0,0.0,0.0,0.0,0.0,0.0,0.0,0.0,0.0,0.0,0.0,0.0,0.0,0.0,0.0,0.0,0.0,0.0,0.0,-1.9465,-2.0424,-2.0557,-2.1028,-2.1408,-2.1727,-2.264,-2.3467,-2.4094,-2.4368,-2.4651,-2.4919,-2.478,-2.4702,-2.4979,-2.4997,-2.5487,-2.6368,-2.6467,-2.6756,-2.7334,-2.7614,-2.7373,-2.6614,-2.8449,-2.8908,-2.8205,-2.9591,-3.0139,0.0,-2.9673,-2.9332,-2.8897,-2.8897,-2.8628,0.0,0.0,0.0,0.0,0.0,-2.58,-2.4501,-2.2793,-2.1845,-2.107,-1.9984,-1.9261,-1.8686,-1.8547,-1.8503,-1.8438,-1.8108,-1.7732,-1.7305,-1.7018,-1.6599,-1.613,-1.6028,-1.5927,-1.5832,-1.5832,-1.5832,-1.5832,-1.5832,0.0,0.0,-1.5832,-1.5832,-1.5635,-1.5064,-1.4444,-1.3483,0.0,-1.1647,-1.1249,-1.0144,-1.0041,-0.9961,-0.9766,-0.9063,0.0,0.0,0.0,-0.7833,-0.7764,0.0,0.0,0.0,0.0,0.0,0.0,0.0,0.0,0.0,-0.768,-0.7729,0.0,0.0,0.0,0.0,0.0,0.0,0.0,0.0,0.0,0.0,0.0,0.0,0.0,0.0,0.0,0.0,-2.1288,-2.2423,-2.3274,-2.3479,-2.3378,-2.2921,-2.39,-2.4775,-2.5169,-2.5674,-2.5854,-2.5557,-2.5528,-2.5751,-2.6187,0.0,0.0,0.0,0.0,-2.7835,-2.8495,-2.8984,-2.8378,-2.6885,-2.9604,-2.9976,-2.8154,-2.9928,-3.0739,-3.0667,-3.0253,-2.9808,-2.9384,-2.9384,-2.9104,-2.8638,-2.8121,-2.7686,-2.7239,-2.6709,-2.611,0.0,0.0,0.0,0.0,-2.1089,-2.0078,-1.922,-1.8935,-1.8847,-1.8774,-1.8445,-1.7956,-1.753,-1.7459,-1.6854,-1.6265,-1.6231,-1.6028,-1.5832,-1.5832,-1.5832,-1.5832,-1.5832,-1.5832,-1.5832,-1.5832,-1.5832,-1.5832,-1.5832,-1.5064,0.0,-1.2829,-1.195,-1.0909,-0.9594,0.0,0.0,-0.9141,-0.8836,-0.8702,-0.8812,-0.8369,-0.8036,-0.7886,-0.7898,-0.791,-0.791,-0.8219,-0.8463,-0.8629,-0.8942,-0.9108,-0.91,-0.8122,-0.802,0.0,0.0,0.0,0.0,0.0,0.0,0.0,0.0,0.0,0.0,0.0,0.0,0.0,0.0,0.0,-2.2434,-2.2984,-2.3327,-2.4386,-2.5072,-2.4925,-2.3714,-2.4415,-2.5289,-2.6024,-2.6227,-2.6557,-2.7105,-2.6972,-2.6993,-2.7543,-2.8117,0.0,-2.9929,-2.9274,-2.9002,-2.9499,-2.9201,-2.9039,-2.9012,0.0,0.0,-3.0681,-3.1059,-3.104,-3.0677,-3.0594,-3.0294,-2.986,-2.986,-2.9591,-2.9083,-2.8245,-2.759,-2.7195,-2.6637,-2.5596,-2.4295,-2.3185,-2.2089,-2.0979,-1.9983,-1.948,-1.9264,-1.9199,-1.9184,0.0,-1.8789,-1.865,-1.8382,-1.7573,-1.7202,-1.6807,-1.6279,-1.6028,-1.5832,-1.5832,-1.5832,-1.5832,-1.5832,-1.5832,-1.5832,-1.5832,-1.5832,-1.5832,-1.5832,-1.5635,-1.486,-1.292,-1.2538,-1.1648,-0.9772,-0.9575,-0.9502,-0.9319,-0.9242,-0.9092,-0.8836,-0.8723,-0.8649,-0.8617,-0.8759,-0.884,-0.884,-0.8905,-0.8958,-0.8995,-0.9064,-0.9169,-0.9295,-0.8946,-0.8934,0.0,0.0,0.0,0.0,0.0,0.0,0.0,0.0,0.0,0.0,0.0,-1.8197,0.0,0.0,-2.1818,-2.3684,-2.431,-2.4766,-2.5348,-2.5728,-2.5635,-2.4819,-2.5618,-2.6489,-2.7104,-2.748,-2.7694,-2.7925,-2.8094,-2.8466,-2.9136,-2.9387,-2.9961,-3.1079,-3.0208,-2.9872,-3.0079,-2.9201,-2.8554,-2.821,-2.9113,-2.9332,-2.8996,-3.012,-3.0563,-3.0336,-3.0336,-3.0212,-2.9994,-2.9994,-2.986,-2.958,-2.8887,-2.8274,-2.7551,-2.6615,-2.5586,-2.439,-2.2571,-2.1534,-2.068,-1.968,-1.9279,-1.9279,-1.9279,-1.9279,-1.9242,-1.9074,-1.8913,-1.8716,-1.8195,-1.7681,-1.7209,-1.6861,-1.6422,-1.6028,-1.6028,-1.5927,-1.5832,-1.5832,-1.5832,-1.5832,-1.5832,-1.5832,-1.5832,-1.5832,-1.535,-1.4478,-1.292,-1.2242,-1.137,-0.9723,-0.9628,-0.9592,-0.9498,-0.9409,-0.9242,-0.8974,-0.8958,-0.8958,-0.8958,-0.9047,-0.9096,-0.9096,-0.9181,-0.9226,-0.9226,-0.9319,-0.9409,-0.949,-0.9405,-0.9409,0.0,0.0,0.0,0.0,0.0,0.0,0.0,0.0,-1.6402,-1.8536,-1.9362,-2.0179,-2.1973,-2.3037,-2.3806,-2.4416,-2.5217,-2.5728,-2.5895,-2.5895,-2.5901,-2.5773,-2.6756,-2.761,-2.8003,-2.856,-2.8896,-2.8688,-2.9176,-2.9854,-3.0777,-3.0618,-3.0926,-3.1972,-3.1007,-3.0508,-3.0508,-2.9302,-2.8205,-2.7317,-2.8213,-2.8145,-2.7248,-2.9112,-2.9994,-2.9994,-2.9994,-2.9994,-2.9994,-2.9994,-2.9994,-2.9953,-2.9591,-2.8891,-2.8015,-2.6807,-2.5712,-2.4608,-2.2545,-2.1322,-2.0566,-1.9695,-1.9367,-1.936,-1.9294,-1.9279,-1.9279,-1.9279,-1.9089,-1.8869,-1.8803,-1.8209,-1.7616,-1.7552,-1.691,-1.6402,-1.6402,-1.6157,-1.592,-1.592,-1.5927,-1.5927,-1.5927,-1.5927,-1.5832,-1.5832,-1.4968,-1.3908,-1.2829,-1.1853,-1.0788,-0.9723,-0.9628,-0.9628,-0.9628,-0.9494,-0.9348,-0.921,-0.9202,-0.9202,-0.9202,-0.9202,-0.9202,-0.9202,-0.9336,-0.9409,-0.9409,-0.9555,-0.9628,-0.9628,-0.9628,-0.9628,-1.1353,-1.2378,-1.3451,-1.4983,-1.5157,-1.5716,0.0,0.0,-1.865,-2.0024,-2.0803,-2.1732,-2.2835,-2.3142,-2.3753,-2.5471,-2.5348,-2.5211,-2.5812,-2.5895,-2.6081,-2.6476,-2.7325,-2.7981,-2.8036,-2.8866,-2.9598,-2.9992,-3.0449,-3.1146,-3.2137,-3.2509,-3.2792,-3.2953,-3.1667,-3.1019,-3.1019,-3.0243,-2.9595,-2.9172,-2.9879,-2.9973,-2.9669,-2.9879,-2.9994,-2.9994,-2.9994,-2.9994,-2.9994,-2.9994,-2.9994,-2.9984,-2.9942,-2.9221,-2.8104,-2.7779,-2.5994,-2.3756,-2.344,-2.2052,-2.0185,-1.9905,-1.9711,-1.9652,-1.9367,-1.9279,-1.9279,-1.9279,-1.925,-1.9155,-1.8869,-1.8542,-1.8218,-1.7931,-1.7421,-1.7001,-1.7001,-1.6777,-1.6487,-1.6487,-1.6312,-1.613,-1.613,-1.613,-1.6028,-1.5832,-1.4968,-1.3908,-1.2829,-1.1853,-1.0788,-0.9723,-0.9628,-0.9628,-0.9628,-0.9608,-0.9592,-0.9571,-0.9567,-0.9567,-0.9567,-0.9567,-0.9567,-0.9567,-0.9587,-0.9596,-0.9596,-0.9616,-0.9628,-0.9628,-0.9628,-0.9628,-1.368,-1.4818,0.0,0.0,-1.7513,-1.8201,-1.9311,-1.9668,-2.0216,-2.1707,-2.2487,-2.3233,-2.4535,-2.4735,-2.5061,0.0,-2.5871,-2.6066,-2.6595,-2.6496,-2.6605,-2.7359,-2.7796,-2.8036,-2.8036,-2.8659,-2.9489,-3.0526,-3.0788,-3.1444,-3.2711,-3.2711,-3.2667,-3.2667,-3.1862,-3.1384,-3.1384,-3.0727,-3.0124,-2.9698,-3.0207,-3.0089,-2.9387,-3.0058,-3.0253,-2.9994,-2.9994,-2.9994,-2.9994,-2.9994,-2.9994,-2.9994,-2.9994,-2.9122,-2.7659,-2.6852,-2.5192,-2.3303,-2.2227,-2.1137,-2.0216,-2.0084,-2.004,-1.9981,-1.9652,-1.9557,-1.952,-1.933,-1.9279,-1.9242,-1.9111,-1.8833,-1.8557,-1.8419,-1.7946,-1.7471,-1.7287,-1.7049,-1.6805,-1.6623,-1.6494,-1.64,-1.64,-1.64,-1.64,-1.6298,-1.4765,-1.3414,-1.3022,-1.137,-1.0109,-0.9628,-0.9628,-0.9628,-0.9628,-0.9628,-0.9628,-0.9628,-0.9628,-0.9628,-0.9628,-0.9628,-0.9628,-0.9628,-0.9628,-0.9628,-0.9628,-0.9628,-0.9628,-0.9628,-0.9628,-0.9681,-1.5095,0.0,0.0,-1.8219,-1.9274,-2.0044,-1.9842,-2.0514,-2.1532,-2.2853,-2.3589,-2.4413,-2.5464,-2.5812,0.0,-2.5895,-2.631,-2.6747,-2.7075,-2.6759,-2.6791,-2.7477,-2.7464,-2.7428,-2.7558,-2.8424,-2.9554,-3.0985,-3.0963,-3.1531,-3.2994,-3.2634,-3.2317,-3.2175,-3.1815,-3.1695,-3.1837,-3.1211,-3.0688,-3.0499,-3.0638,-3.0289,-2.962,-3.0396,-3.0501,-3.018,-3.0056,-2.9994,-2.9994,-2.9994,-2.9994,-2.9994,-2.9994,-2.9016,-2.7482,-2.6481,-2.4885,-2.3153,-2.1838,-2.0914,-2.0494,-2.0398,-2.0369,-2.0311,-1.9989,-1.9835,-1.9711,-1.9477,-1.9345,-1.9279,-1.9279,-1.9103,-1.8921,-1.8921,-1.8578,-1.8081,-1.7851,-1.7566,-1.7173,-1.6947,-1.6834,-1.6683,-1.6683,-1.6683,-1.6683,-1.6683,-1.4949,-1.3505,-1.3119,-1.1086,-0.9628,-0.9628,-0.9628,-0.9628,-0.9628,-0.9628,-0.9628,-0.9628,-0.9628,-0.9628,-0.9628,-0.9628,-0.9628,-0.9628,-0.9628,-0.9628,-0.9628,-0.9628,-0.9652,-0.9697,-0.9697,-0.9791,0.0,0.0,-1.7761,-1.8971,-1.9888,-2.0594,-2.097,-2.1907,-2.2765,-2.2775,-2.3907,-2.4861,-2.4946,-2.5464,-2.5895,-2.5895,-2.631,-2.6638,-2.6649,-2.6465,-2.6292,-2.6325,-2.613,-2.6126,0.0,-2.8347,-3.0057,-3.1498,-3.116,-3.1531,-3.2994,-3.2634,-3.2154,-3.1662,-3.1629,-3.1859,-3.2361,-3.1825,-3.1732,-3.2081,-3.1579,-3.1371,-3.134,-3.0884,-3.0677,-3.0636,-3.0191,-2.9994,-2.9994,-2.9994,-2.9994,-2.9994,-2.9994,-2.9217,-2.8126,-2.7599,-2.5507,-2.2966,-2.2966,-2.2184,-2.113,-2.0808,-2.0706,-2.0647,-2.0318,-2.0011,-1.9762,-1.9755,-1.952,-1.9279,-1.9279,-1.9264,-1.9257,-1.9257,-1.9008,-1.8774,-1.876,-1.8262,-1.7816,-1.7801,-1.737,-1.6979,-1.6979,-1.6979,-1.6979,-1.6979,-1.5818,-1.4465,-1.3216,-1.1086,-0.9628,-0.9628,-0.9628,-0.9628,-0.9628,-0.9628,-0.9628,-0.9628,-0.9628,-0.9628,-0.9628,-0.9628,-0.9628,-0.9628,-0.9628,-0.9628,-0.9628,-0.9628,-0.9713,-0.9876,-0.9876,-0.9977,0.0,0.0,-1.9338,-2.0264,-2.0915,-2.1452,-2.2108,-2.2513,-2.3057,-2.4003,-2.426,-2.4555,-2.4992,-2.525,-2.5415,-2.5415,-2.6194,-2.6952,-2.7255,-2.713,-2.7056,-2.7355,-2.703,0.0,0.0,0.0,0.0,-3.0738,-3.0895,-3.14,-3.2558,-3.2143,-3.1853,-3.1798,-3.2017,-3.2141,-3.2298,-3.2393,-3.2409,-3.2338,-3.1916,-3.1816,-3.1795,-3.135,-3.0977,-3.0677,-3.0522,-3.0284,-2.9994,-2.9112,-2.8784,-2.8774,-2.8019,-2.6816,-2.5516,-2.5194,-2.3871,-2.2214,-2.2757,-2.2207,-2.1196,-2.1079,-2.105,-2.0984,-2.0655,-2.0486,-2.0311,-1.9879,-1.9689,-1.955,-1.933,-1.9279,-1.9279,-1.9279,-1.9191,-1.9052,-1.884,-1.8613,-1.8394,-1.8182,-1.7785,-1.7567,-1.7567,-1.7385,-1.7153,-1.6979,-1.5425,-1.3686,-1.2047,-1.0694,-0.9821,-0.9628,-0.9628,-0.9628,-0.9628,-0.9628,-0.9628,-0.9628,-0.9628,-0.9628,-0.9628,-0.9628,-0.9628,-0.9628,-0.9628,-0.9685,-0.9799,-0.9799,-0.9892,-1.0067,-1.0067,-1.0168,-1.7802,-1.9064,-2.0154,-2.1099,-2.1715,-2.2185,-2.2715,-2.3232,-2.374,-2.4263,-2.4154,-2.4015,-2.4342,-2.4268,-2.4323,-2.4847,-2.592,-2.6801,-2.7349,-2.7393,-2.7487,-2.7851,-2.7566,0.0,0.0,0.0,0.0,-3.0242,-3.0669,-3.1214,-3.2014,-3.1743,-3.1607,-3.172,-3.2114,-3.2319,-3.2455,-3.2653,-3.2664,-3.2496,-3.2282,-3.2282,-3.2271,-3.1816,-3.136,-3.0926,-3.076,-3.0419,-2.9994,-2.9112,-2.889,-2.8774,-2.7571,-2.649,-2.5626,-2.4753,-2.3656,-2.2441,-2.2433,-2.1873,-2.1211,-2.1211,-2.1211,-2.1167,-2.0962,-2.0815,-2.0633,-2.0223,-1.9938,-1.9711,-1.9506,-1.9367,-1.9279,-1.9279,-1.9279,-1.922,-1.9008,-1.8869,-1.873,-1.8518,-1.8211,-1.7991,-1.7991,-1.7721,-1.7276,-1.6508,-1.5038,-1.359,-1.2242,-1.089,-1.0019,-0.9727,-0.9723,-0.9723,-0.9628,-0.9628,-0.9628,-0.9628,-0.9628,-0.9628,-0.9628,-0.9689,-0.9721,-0.9721,-0.9782,-0.9872,-0.9981,-0.9981,-1.0079,-1.0257,-1.0257,-1.0355,-1.8422,-1.933,-2.0301,-2.1447,-2.2264,-2.2794,-2.2794,-2.3877,-2.4535,-2.3633,-2.3517,-2.3471,0.0,0.0,-2.2805,-2.4192,-2.5295,-2.6129,-2.6875,-2.7163,-2.7458,0.0,0.0,0.0,0.0,0.0,0.0,-3.0024,0.0,-3.1029,-3.1466,-3.1498,-3.1519,-3.1572,-3.2008,-3.2476,-3.2844,-3.2611,-3.2507,-3.2727,-3.2727,-3.2727,-3.2716,-3.2282,-3.1826,-3.1391,-3.0946,-3.0481,-3.0036,-2.992,-2.991,-2.9774,-2.8562,-2.8009,-2.7902,-2.6164,-2.4863,-2.3656,-2.1881,-2.1211,-2.1211,-2.1211,-2.1211,-2.1211,-2.1211,-2.0998,-2.0742,-2.0728,-2.0274,-1.9784,-1.9769,-1.952,-1.9279,-1.9279,-1.9279,-1.9279,-1.9279,-1.903,-1.8811,-1.8811,-1.8547,-1.8321,-1.8306,-1.8028,-1.7227,-1.5688,-1.4758,-1.4082,-1.3511,-1.1673,-1.0314,-1.0019,-1.0019,-0.992,-0.9628,-0.9628,-0.9628,-0.9628,-0.9636,-0.964,-0.964,-0.9807,-0.99,-0.99,-1.0071,-1.0164,-1.0176,-1.0176,-1.027,-1.0448,-1.0448,-1.0538,-1.8929,-2.011,-2.1346,-2.1658,-2.2264,-2.2969,-2.3464,-2.3645,-2.3745,-2.3638,-2.2809,-2.1985,0.0,0.0,0.0,-2.3091,-2.4804,0.0,-2.6394,-2.7442,0.0,0.0,0.0,-2.8742,-2.8628,-2.9445,0.0,0.0,-3.0356,-3.1029,-3.1466,-3.1498,-3.171,-3.2201,-3.2558,-3.2744,-3.2778,-3.2664,-3.2613,-3.2727,-3.2727,-3.2727,-3.2727,-3.2613,-3.2302,-3.1868,-3.1743,-3.1247,-3.0395,-2.8612,-2.8192,-2.8455,-2.64,-2.6173,-2.6698,-2.4965,-2.4094,-2.3656,-2.1881,-2.1211,-2.1211,-2.1211,-2.1211,-2.1211,-2.1211,-2.1152,-2.1035,-2.0794,-2.0428,-2.0062,-1.9828,-1.952,-1.9279,-1.9279,-1.9279,-1.9279,-1.9279,-1.9213,-1.9147,-1.9147,-1.8884,-1.8584,-1.8343,-1.8028,-1.7394,-1.6242,-1.5069,-1.389,-1.2554,-1.1389,-1.0609,-1.0314,-1.0314,-1.0216,-0.992,-0.9924,-0.9826,-0.9628,-0.9746,-0.9819,-0.9819,-0.9994,-1.0091,-1.0091,-1.014,-1.0229,-1.0367,-1.0367,-1.0456,-1.0627,-1.0627,-1.0647,-1.9495,-2.0492,-2.1544,-2.2087,-2.2696,-2.3229,-2.3317,-2.3458,-2.3281,-2.2288,-2.1352,0.0,0.0,0.0,0.0,0.0,0.0,0.0,-2.612,-2.7483,-2.8396,0.0,-2.9228,0.0,-2.9549,-2.9994,-3.0191,0.0,-3.0465,-3.0832,-3.1179,-3.139,-3.1734,-3.2225,-3.2567,-3.2797,-3.2727,-3.2727,-3.2727,-3.2727,-3.2727,-3.2727,-3.2727,-3.2727,-3.2127,-3.1226,0.0,-3.0478,-2.917,-2.7921,-2.7558,-2.7666,-2.5731,-2.5447,-2.5745,-2.3937,-2.3336,-2.3111,-2.1888,-2.1439,-2.1439,-2.1211,-2.1211,-2.1211,-2.1211,-2.1211,-2.1174,-2.0984,-2.0706,-2.0377,-2.0055,-1.9733,-1.9455,-1.9308,-1.9279,-1.9279,-1.9279,-1.9279,-1.9279,-1.9279,-1.9133,-1.8899,-1.8577,-1.8364,-1.769,-1.6064,-1.5115,-1.4034,-1.2169,-1.1406,-1.09,-1.0609,-1.0609,-1.0413,-1.0019,-1.0099,-1.0046,-0.9738,-0.9908,-1.0006,-1.0006,-1.0184,-1.0282,-1.0282,-1.0355,-1.0444,-1.055,-1.055,-1.0599,-1.0692,-1.0692,-1.0692,-2.0022,-2.0645,-2.1266,-2.253,-2.326,-2.3547,-2.2839,-2.3056,-2.2717,-2.0445,0.0,0.0,-1.8578,0.0,-1.9705,-2.1553,0.0,-2.4302,-2.5973,-2.7453,-2.8473,-2.8659,-2.9932,-3.076,-3.0698,-3.0688,-3.0657,-3.0594,-3.0708,-3.0781,-3.0781,-3.1153,-3.1609,-3.2116,-3.252,-3.2727,-3.2727,-3.2727,-3.2727,-3.2727,-3.2727,-3.2727,-3.2727,-3.2727,-3.1919,-3.0492,0.0,0.0,-2.7783,-2.7669,-2.7518,-2.7323,-2.597,-2.5465,-2.5266,-2.3513,-2.2828,-2.2675,-2.201,-2.1668,-2.1668,-2.1325,-2.1211,-2.1211,-2.1211,-2.1211,-2.1211,-2.1211,-2.0976,-2.0647,-2.0318,-1.9996,-1.9681,-1.9352,-1.9279,-1.9279,-1.9279,-1.9279,-1.9279,-1.9279,-1.9279,-1.9184,-1.8906,-1.8818,-1.7971,-1.5568,-1.5101,-1.4265,-1.2122,-1.1501,-1.118,-1.0982,-1.0883,-1.0686,-1.0194,-1.0247,-1.0238,-0.992,-1.0095,-1.0197,-1.0197,-1.0371,-1.0469,-1.0469,-1.0615,-1.0692,-1.0692,-1.0692,-1.0692,-1.0692,-1.0692,-1.0692,-2.0158,-2.0645,-2.1266,-2.253,-2.3044,-2.3109,-2.2766,-2.2049,0.0,0.0,0.0,-1.7628,-1.754,-1.8386,0.0,-2.0881,0.0,0.0,0.0,0.0,-2.9094,0.0,0.0,0.0,0.0,0.0,0.0,0.0,0.0,0.0,-3.1257,-3.134,-3.1754,-3.2582,-3.2685,-3.2727,-3.2727,-3.2727,-3.2727,-3.2727,-3.2727,-3.2727,-3.2727,-3.2727,-3.2571,-3.225,0.0,0.0,-2.9593,-2.8667,-2.8003,-2.735,-2.6143,-2.6154,-2.6529,-2.4998,-2.424,-2.3776,-2.2222,-2.1668,-2.1668,-2.1325,-2.1211,-2.1211,-2.1211,-2.1211,-2.1211,-2.1211,-2.0976,-2.0647,-2.0318,-1.9996,-1.9681,-1.9352,-1.9279,-1.9279,-1.9279,-1.9279,-1.9279,-1.9279,-1.9279,-1.9257,-1.9199,-1.8964,-1.8041,-1.5822,-1.5215,-1.4265,-1.2122,-1.1756,-1.1709,-1.1606,-1.1606,-1.1401,-1.0887,-1.0819,-1.0634,-1.0219,-1.0286,-1.0387,-1.0387,-1.0554,-1.0647,-1.0647,-1.0676,-1.0692,-1.0692,-1.0692,-1.0692,-1.0692,-1.0692,-1.0692,-1.9828,-2.0456,-2.1257,-2.2501,-2.3061,-2.3084,-2.2155,0.0,0.0,0.0,0.0,-1.6961,-1.709,0.0,0.0,0.0,0.0,0.0,0.0,0.0,0.0,0.0,0.0,0.0,0.0,0.0,0.0,0.0,0.0,0.0,0.0,-3.1826,-3.2282,-3.2716,-3.2727,-3.2727,-3.2727,-3.2727,-3.2727,-3.2727,-3.2727,-3.2727,-3.2727,-3.2727,-3.2373,-3.1662,0.0,0.0,-2.9329,-2.8156,-2.7458,-2.7147,-2.5671,-2.5369,-2.5625,-2.4556,-2.3983,-2.348,-2.2283,-2.1782,-2.1668,-2.1325,-2.1211,-2.1211,-2.1211,-2.1211,-2.1211,-2.1211,-2.1094,-2.0903,-2.0574,-2.0252,-1.993,-1.9608,-1.9396,-1.9279,-1.9279,-1.9279,-1.9279,-1.9279,-1.9279,-1.9279,-1.9279,-1.9147,-1.8302,-1.6094,-1.5565,-1.4647,-1.2457,-1.2139,-1.2058,-1.1841,-1.1714,-1.1403,-1.0988,-1.098,-1.0725,-1.0302,-1.0469,-1.0566,-1.0566,-1.0647,-1.0692,-1.0692,-1.0692,-1.0692,-1.0692,-1.0692,-1.0692,-1.0692,-1.0692,-1.0745,-1.9438,-2.0275,-2.1257,-2.2385,-2.3057,-2.297,-2.152,-2.0325,0.0,0.0,-1.6765,-1.6504,-1.6869,0.0,0.0,0.0,0.0,0.0,0.0,0.0,0.0,0.0,0.0,0.0,0.0,0.0,0.0,0.0,0.0,0.0,0.0,-3.2282,-3.2727,-3.2727,-3.2727,-3.2727,-3.2727,-3.2727,-3.2727,-3.2727,-3.2727,-3.2727,-3.2727,-3.2727,-3.2133,-3.1189,0.0,0.0,0.0,-2.7966,-2.7254,-2.6866,-2.527,-2.4642,-2.4507,-2.388,-2.3378,-2.3037,-2.2345,-2.1888,-2.1668,-2.1325,-2.1211,-2.1211,-2.1211,-2.1211,-2.1211,-2.1211,-2.1211,-2.113,-2.0808,-2.053,-2.0245,-1.9857,-1.9513,-1.9279,-1.9279,-1.9279,-1.9279,-1.9279,-1.9279,-1.9279,-1.9279,-1.9279,-1.8527,-1.6287,-1.5861,-1.5007,-1.2654,-1.2441,-1.2313,-1.1987,-1.174,-1.1426,-1.1116,-1.1043,-1.0812,-1.0489,-1.0615,-1.0692,-1.0692,-1.0692,-1.0692,-1.0692,-1.0692,-1.0692,-1.0692,-1.0692,-1.0692,-1.0692,-1.0692,-1.0794,-1.9364,-2.0275,-2.1257,-2.2385,-2.2745,-2.25,-2.1311,0.0,0.0,-1.7173,-1.649,-1.6298,-1.6722,-1.6882,0.0,0.0,0.0,0.0,0.0,0.0,0.0,0.0,0.0,0.0,0.0,0.0,0.0,0.0,0.0,0.0,0.0,-3.2457,-3.2727,-3.2727,-3.2727,-3.2727,-3.2727,-3.2727,-3.2727,-3.2727,-3.2727,-3.2727,-3.2727,-3.2727,-3.2612,-3.2498,0.0,0.0,0.0,-2.9275,-2.8086,-2.6892,-2.5554,-2.4865,-2.4531,-2.415,-2.37,-2.3037,-2.2345,-2.1888,-2.1668,-2.1325,-2.1211,-2.1211,-2.1211,-2.1211,-2.1211,-2.1211,-2.1211,-2.113,-2.0808,-2.0706,-2.0523,-1.9908,-1.9513,-1.9279,-1.9279,-1.9279,-1.9279,-1.9279,-1.9279,-1.9279,-1.9279,-1.9279,-1.8527,-1.6287,-1.5861,-1.5007,-1.2654,-1.2441,-1.2422,-1.2389,-1.2276,-1.2054,-1.1624,-1.1533,-1.1324,-1.0668,-1.0684,-1.0692,-1.0692,-1.0692,-1.0692,-1.0692,-1.0692,-1.0692,-1.0692,-1.0692,-1.0692,-1.0692,-1.0692,-1.0794,-1.9415,-2.0543,-2.1695,-2.2658,-2.2978,-2.2618,-2.1167,0.0,-1.8374,-1.7048,-1.6435,-1.6199,-1.661,-1.6694,-1.7059,0.0,0.0,0.0,0.0,0.0,0.0,0.0,0.0,0.0,0.0,0.0,0.0,0.0,0.0,0.0,0.0,0.0,-3.2727,-3.2727,-3.2727,-3.2727,-3.2727,-3.2727,-3.2727,-3.2727,-3.2727,-3.2727,-3.2727,-3.2727,-3.2727,0.0,0.0,0.0,0.0,-2.9394,-2.8206,-2.69,-2.5586,-2.5024,-2.4857,-2.4499,-2.3913,-2.3106,-2.2536,-2.1947,-2.1325,-2.1211,-2.1211,-2.1211,-2.1211,-2.1211,-2.1211,-2.1211,-2.1211,-2.1181,-2.105,-2.072,-2.0318,-1.9872,-1.9513,-1.9279,-1.9279,-1.9279,-1.9279,-1.9279,-1.9279,-1.9279,-1.9279,-1.9279,-1.8743,-1.7147,-1.6293,-1.5328,-1.3732,-1.2871,-1.2441,-1.2441,-1.2114,-1.1787,-1.1568,-1.124,-1.0911,-1.0692,-1.0692,-1.0692,-1.0692,-1.0692,-1.0692,-1.0692,-1.0692,-1.0692,-1.0692,-1.0692,-1.0692,-1.0692,-1.0806,-1.0952,-1.9522,-2.0851,-2.2039,-2.2727,-2.2955,-2.2501,0.0,0.0,-1.8187,-1.6932,-1.6441,-1.6258,-1.6518,-1.6639,-1.6926,0.0,0.0,0.0,0.0,0.0,0.0,0.0,0.0,0.0,0.0,0.0,0.0,0.0,0.0,0.0,0.0,0.0,-3.2727,-3.2727,-3.2727,-3.2727,-3.2727,-3.2727,-3.2727,-3.2727,-3.2727,-3.2727,-3.2727,-3.2727,-3.2727,0.0,0.0,0.0,0.0,-2.9039,-2.7847,-2.69,-2.5586,-2.5111,-2.5063,-2.4585,-2.3878,-2.3181,-2.2617,-2.1937,-2.1211,-2.1211,-2.1211,-2.1211,-2.1211,-2.1211,-2.1211,-2.1211,-2.1211,-2.1211,-2.1211,-2.0794,-2.0325,-2.0098,-1.9725,-1.9418,-1.9418,-1.9345,-1.9279,-1.9279,-1.9279,-1.9279,-1.9279,-1.9279,-1.8848,-1.7364,-1.6399,-1.5328,-1.384,-1.298,-1.2441,-1.2441,-1.2005,-1.1678,-1.1568,-1.1131,-1.0802,-1.0692,-1.0692,-1.0692,-1.0692,-1.0692,-1.0692,-1.0692,-1.0692,-1.0692,-1.0692,-1.0692,-1.072,-1.0777,-1.0907,-1.109,-1.9806,-2.1278,-2.2366,-2.2366,-2.2493,-2.2025,0.0,-1.911,-1.7999,-1.6653,-1.6374,-1.6374,-1.6384,-1.6736,-1.7131,-1.7595,0.0,0.0,0.0,0.0,0.0,0.0,0.0,0.0,0.0,0.0,0.0,0.0,0.0,0.0,0.0,0.0,-3.2727,-3.2727,-3.2727,-3.2727,-3.2727,-3.2727,-3.2727,-3.2727,-3.2727,-3.2727,-3.2727,-3.2727,0.0,0.0,0.0,0.0,0.0,-2.8086,-2.7013,-2.69,-2.5586,-2.5111,-2.5063,-2.4342,-2.3751,-2.3062,-2.2383,-2.1706,-2.1211,-2.1211,-2.1211,-2.1211,-2.1211,-2.1211,-2.1211,-2.1211,-2.1211,-2.1211,-2.1211,-2.0969,-2.072,-2.0713,-2.0223,-1.9755,-1.9755,-1.9506,-1.9279,-1.9279,-1.9279,-1.9279,-1.9279,-1.9279,-1.8527,-1.6287,-1.5861,-1.5007,-1.2762,-1.2441,-1.2441,-1.2441,-1.2114,-1.1896,-1.1568,-1.1236,-1.1021,-1.0692,-1.0692,-1.0692,-1.0692,-1.0692,-1.0692,-1.0692,-1.0692,-1.0692,-1.0692,-1.0692,-1.0785,-1.0968,-1.0968,-1.1159,-1.873,-1.9774,-2.0635,-2.0954,-2.1056,-2.0679,-1.9158,-1.8589,-1.7999,-1.6653,-1.6384,-1.6384,-1.6384,-1.6498,-1.7036,-1.8423,-1.8889,0.0,0.0,0.0,0.0,0.0,0.0,0.0,0.0,0.0,0.0,0.0,0.0,0.0,0.0,0.0,0.0,-3.2727,-3.2727,-3.2727,-3.2727,-3.2727,-3.2727,-3.2727,-3.2727,-3.2727,-3.2727,0.0,0.0,0.0,0.0,0.0,0.0,-2.7735,-2.6545,-2.5709,-2.5226,-2.5111,-2.5095,-2.4608,-2.396,-2.3093,-2.2631,-2.1883,-2.1211,-2.1211,-2.1211,-2.1211,-2.1211,-2.1211,-2.1211,-2.1211,-2.1211,-2.1211,-2.1211,-2.0969,-2.072,-2.072,-2.023,-1.9762,-1.9762,-1.9506,-1.9279,-1.9279,-1.9279,-1.9279,-1.9279,-1.9279,-1.9063,-1.8311,-1.7569,-1.6505,-1.5007,-1.4159,-1.3305,-1.2441,-1.2114,-1.1896,-1.1568,-1.1236,-1.1021,-1.0692,-1.0692,-1.0692,-1.0692,-1.0692,-1.0692,-1.0692,-1.0692,-1.0692,-1.0692,-1.0822,-1.1037,-1.1334,-1.1334,-1.1459,0.0,-1.9113,-1.9803,-2.0103,-2.0048,-1.9603,-1.8413,-1.7999,-1.7595,-1.6581,-1.6384,-1.6384,-1.6384,-1.6653,-1.7264,-1.8382,-1.9003,0.0,0.0,0.0,0.0,0.0,0.0,0.0,0.0,0.0,0.0,0.0,0.0,0.0,0.0,0.0,0.0,-3.2727,-3.2727,-3.2727,-3.2727,-3.2727,-3.2727,-3.2727,-3.2727,-3.2727,-3.2727,0.0,0.0,0.0,0.0,0.0,0.0,-2.6779,-2.5823,-2.5111,-2.5111,-2.498,-2.4857,-2.4487,-2.381,-2.2989,-2.264,-2.1979,-2.1211,-2.1211,-2.1211,-2.1211,-2.1211,-2.1211,-2.1211,-2.1211,-2.1211,-2.1211,-2.1211,-2.1057,-2.0903,-2.0903,-2.0508,-2.0091,-1.9967,-1.9689,-1.9425,-1.9301,-1.9279,-1.9279,-1.9279,-1.9279,-1.9168,-1.8743,-1.7681,-1.6511,-1.5441,-1.4266,-1.3197,-1.2441,-1.2223,-1.2005,-1.1787,-1.135,-1.1021,-1.0911,-1.0802,-1.0692,-1.0692,-1.0692,-1.0692,-1.0692,-1.0692,-1.0724,-1.0798,-1.1049,-1.1285,-1.15,-1.1573,-1.1667,0.0,-1.8764,-1.9536,-1.9536,-1.9235,-1.8661,-1.7823,-1.7265,0.0,-1.6467,-1.6384,-1.6394,-1.6467,-1.714,-1.7688,-1.7936,-1.9034,0.0,0.0,0.0,0.0,0.0,0.0,0.0,0.0,0.0,0.0,0.0,0.0,0.0,0.0,0.0,0.0,0.0,-3.2727,-3.2727,-3.2727,-3.2727,-3.2727,-3.2727,-3.2727,-3.2727,-3.2727,0.0,0.0,0.0,0.0,0.0,0.0,-2.5586,-2.5111,-2.5111,-2.5111,-2.4857,-2.461,-2.4232,-2.3437,-2.2632,-2.2296,-2.1759,-2.1211,-2.1211,-2.1211,-2.1211,-2.1211,-2.1211,-2.1211,-2.1211,-2.1211,-2.1211,-2.1211,-2.1211,-2.1211,-2.1211,-2.0962,-2.064,-2.034,-2.0003,-1.9674,-1.9367,-1.9294,-1.9279,-1.9279,-1.9279,-1.8959,-1.7898,-1.6723,-1.5654,-1.4487,-1.33,-1.2545,-1.2441,-1.2441,-1.2332,-1.2005,-1.1455,-1.1126,-1.1126,-1.0911,-1.0692,-1.0692,-1.0692,-1.0692,-1.0692,-1.0704,-1.0802,-1.0988,-1.1334,-1.1504,-1.1524,-1.1695,-1.1776,-1.5121,0.0,-1.6643,-1.6643,-1.6829,-1.6953,0.0,-1.6881,-1.6922,-1.6467,0.0,-1.6591,-1.7284,-1.7245,-1.7822,0.0,0.0,0.0,0.0,0.0,0.0,0.0,0.0,0.0,0.0,0.0,0.0,0.0,0.0,0.0,0.0,0.0,0.0,0.0,-3.2727,-3.2727,-3.2727,-3.2727,-3.2727,-3.2727,-3.2727,-3.2727,0.0,0.0,0.0,0.0,0.0,0.0,0.0,-2.5586,-2.5111,-2.5111,-2.4857,-2.461,-2.4487,-2.3984,-2.3315,-2.2632,-2.2296,-2.1759,-2.1211,-2.1211,-2.1211,-2.1211,-2.1211,-2.1211,-2.1211,-2.1211,-2.1211,-2.1211,-2.1211,-2.1211,-2.1211,-2.1211,-2.0962,-2.0706,-2.0625,-2.0164,-1.974,-1.9659,-1.9447,-1.9279,-1.9279,-1.9279,-1.9168,-1.8959,-1.7898,-1.6829,-1.5654,-1.4482,-1.3413,-1.2545,-1.2441,-1.2332,-1.2327,-1.2005,-1.1564,-1.1126,-1.1017,-1.0911,-1.0692,-1.0692,-1.0692,-1.0692,-1.083,-1.0988,-1.1163,-1.139,-1.1573,-1.1711,-1.1756,-1.1776,-1.3993,-1.5121,-1.6312,-1.6312,-1.6653,-1.7005,-1.7005,0.0,0.0,0.0,0.0,0.0,0.0,0.0,0.0,0.0,0.0,0.0,0.0,0.0,0.0,0.0,0.0,0.0,0.0,0.0,0.0,0.0,0.0,0.0,0.0,0.0,0.0,0.0,0.0,-3.252,-3.2727,-3.2727,-3.2727,-3.2727,-3.2727,-3.2373,0.0,0.0,0.0,0.0,0.0,0.0,-2.6059,-2.5218,-2.4857,-2.4857,-2.4487,-2.4232,-2.4108,-2.3736,-2.3078,-2.2408,-2.2296,-2.1759,-2.1211,-2.1211,-2.1211,-2.1211,-2.1211,-2.1211,-2.1211,-2.1211,-2.1211,-2.1211,-2.1211,-2.1211,-2.1211,-2.1211,-2.1079,-2.0903,-2.0757,-2.0333,-1.9938,-1.9791,-1.9499,-1.9279,-1.9279,-1.9279,-1.9279,-1.9279,-1.8325,-1.7153,-1.6074,-1.4911,-1.3738,-1.2545,-1.2441,-1.2441,-1.2441,-1.2114,-1.1782,-1.135,-1.1236,-1.1021,-1.0692,-1.0692,-1.0733,-1.0818,-1.0992,-1.1171,-1.135,-1.1537,-1.1679,-1.1776,-1.1776,-1.1776,-1.3786,-1.5452,-1.7038,-1.6832,-1.7224,-1.7668,-1.7668,0.0,0.0,0.0,0.0,0.0,0.0,0.0,0.0,0.0,0.0,0.0,0.0,0.0,0.0,0.0,0.0,0.0,0.0,0.0,0.0,0.0,0.0,0.0,0.0,0.0,0.0,0.0,0.0,0.0,-3.252,-3.2664,-3.2727,-3.2727,-3.2727,-3.2018,-3.082,0.0,0.0,0.0,0.0,0.0,-2.4988,-2.4734,-2.461,-2.4479,-2.4108,-2.3822,-2.3536,-2.3412,-2.2889,-2.2103,-2.2052,-2.1672,-2.1211,-2.1211,-2.1211,-2.1211,-2.1211,-2.1211,-2.1211,-2.1211,-2.1211,-2.1211,-2.1211,-2.1211,-2.1211,-2.1211,-2.1211,-2.113,-2.0859,-2.0537,-2.0216,-1.9901,-1.9572,-1.933,-1.9286,-1.9279,-1.9279,-1.9279,-1.8213,-1.7041,-1.6074,-1.4696,-1.3521,-1.2545,-1.2441,-1.2441,-1.2441,-1.2114,-1.1896,-1.1568,-1.1236,-1.1021,-1.0692,-1.072,-1.081,-1.0968,-1.1163,-1.1342,-1.15,-1.1687,-1.1776,-1.1776,-1.1776,-1.1776,-1.4573,-1.6177,-1.7347,-1.6187,-1.6819,-1.7668,-1.7668,0.0,0.0,0.0,0.0,0.0,0.0,0.0,0.0,0.0,0.0,0.0,0.0,0.0,0.0,0.0,0.0,0.0,0.0,0.0,0.0,0.0,0.0,0.0,0.0,0.0,0.0,0.0,0.0,0.0,0.0,-3.2344,-3.2727,-3.2727,-3.2727,-3.2018,-3.082,-3.082,-2.9394,0.0,0.0,0.0,-2.461,-2.461,-2.4487,-2.4108,-2.386,-2.3439,-2.3185,-2.2818,-2.2301,-2.173,-2.1452,-2.1298,-2.1211,-2.1211,-2.1211,-2.1211,-2.1211,-2.1211,-2.1211,-2.1211,-2.1211,-2.1211,-2.1211,-2.1211,-2.1211,-2.1211,-2.1211,-2.1196,-2.1145,-2.0874,-2.0552,-2.0223,-1.9908,-1.9601,-1.9323,-1.9279,-1.9279,-1.9279,-1.7457,-1.6074,-1.5968,-1.4046,-1.2654,-1.2436,-1.2441,-1.2441,-1.2441,-1.2114,-1.1896,-1.1568,-1.1236,-1.1021,-1.0692,-1.0842,-1.094,-1.0968,-1.1289,-1.1472,-1.15,-1.1687,-1.1776,-1.1776,-1.1776,-1.1776,-1.4511,-1.5784,-1.6964,-1.6829,-1.7999,-1.9251,-1.951,0.0,0.0,0.0,0.0,0.0,0.0,0.0,0.0,0.0,0.0,0.0,0.0,0.0,0.0,0.0,0.0,0.0,0.0,0.0,0.0,0.0,0.0,0.0,0.0,0.0,0.0,0.0,0.0,0.0,0.0,-3.1661,-3.2116,-3.2354,-3.2354,-3.1431,-2.9747,-2.9747,-2.8325,0.0,0.0,-2.5333,-2.461,-2.4232,-2.3984,-2.3845,-2.3286,-2.3,-2.2822,-2.2242,-2.1942,-2.165,-2.132,-2.1211,-2.1211,-2.1211,-2.1211,-2.1211,-2.1211,-2.1211,-2.1211,-2.1211,-2.1211,-2.1211,-2.1211,-2.1211,-2.1211,-2.1211,-2.1211,-2.1211,-2.1211,-2.0955,-2.0676,-2.053,-2.0098,-1.9711,-1.9564,-1.9396,-1.9279,-1.9279,-1.7891,-1.6611,-1.5968,-1.4369,-1.3088,-1.2436,-1.2441,-1.2327,-1.2223,-1.1896,-1.1678,-1.135,-1.1021,-1.0847,-1.0838,-1.0923,-1.1062,-1.1252,-1.1415,-1.1549,-1.165,-1.1736,-1.1776,-1.1776,-1.1776,-1.1776,-1.4573,-1.5484,-1.6591,-1.7502,0.0,-2.0151,-2.0938,0.0,0.0,0.0,0.0,0.0,0.0,0.0,0.0,0.0,0.0,0.0,0.0,0.0,0.0,0.0,0.0,0.0,0.0,0.0,0.0,0.0,0.0,0.0,0.0,0.0,0.0,0.0,0.0,0.0,0.0,-3.0874,-3.1329,-3.1888,-3.1888,-3.0897,-2.8988,-2.8636,-2.7388,-2.5213,-2.4608,-2.4409,-2.4348,-2.3777,-2.3536,-2.3442,-2.2796,-2.2476,-2.2337,-2.1781,-2.1584,-2.1547,-2.1298,-2.1211,-2.1211,-2.1211,-2.1211,-2.1211,-2.1211,-2.1211,-2.1211,-2.1211,-2.1211,-2.1211,-2.1211,-2.1211,-2.1211,-2.1211,-2.1211,-2.1211,-2.1211,-2.1013,-2.0815,-2.0742,-2.0259,-1.985,-1.9777,-1.9491,-1.9279,-1.9279,-1.8108,-1.6935,-1.5968,-1.4691,-1.3413,-1.2545,-1.2441,-1.2242,-1.1959,-1.1744,-1.1546,-1.1142,-1.0925,-1.0879,-1.1021,-1.107,-1.122,-1.1492,-1.1541,-1.1634,-1.1776,-1.1776,-1.1776,-1.1776,-1.1776,-1.1776,-1.5359,-1.598,-1.6591,-1.7502,-1.8133,0.0,-2.0721,-2.041,0.0,-2.1435,0.0,0.0,0.0,0.0,0.0,0.0,0.0,0.0,0.0,0.0,0.0,0.0,0.0,0.0,0.0,0.0,0.0,0.0,0.0,0.0,0.0,0.0,0.0,0.0,0.0,0.0,0.0,0.0,-3.0543,-3.1422,-3.1422,-3.0741,-2.9273,-2.8011,-2.683,-2.565,-2.4233,-2.3695,-2.3581,-2.3275,-2.3081,-2.3047,-2.2454,-2.203,-2.1723,-2.1372,-2.1247,-2.124,-2.1218,-2.1211,-2.1211,-2.1211,-2.1211,-2.1211,-2.1211,-2.1211,-2.1211,-2.1211,-2.1211,-2.1211,-2.1211,-2.1211,-2.1211,-2.1211,-2.1211,-2.1211,-2.1211,-2.1189,-2.1086,-2.0779,-2.0442,-2.0106,-1.9813,-1.9491,-1.9279,-1.9279,-1.7463,-1.5968,-1.5861,-1.3938,-1.2545,-1.2441,-1.2441,-1.2192,-1.1827,-1.1841,-1.1577,-1.1175,-1.1183,-1.1191,-1.1204,-1.137,-1.1476,-1.15,-1.1667,-1.1764,-1.1776,-1.1776,-1.1776,-1.1776,-1.1776,-1.1776,-1.5163,-1.6011,-1.6943,-1.7513,-1.8485,0.0,0.0,-2.1952,-2.2625,0.0,0.0,0.0,0.0,0.0,0.0,0.0,0.0,0.0,0.0,0.0,0.0,0.0,0.0,0.0,0.0,0.0,0.0,0.0,0.0,0.0,0.0,0.0,0.0,0.0,0.0,0.0,0.0,0.0,-2.9833,-2.9399,-2.9679,-2.9268,-2.8041,-2.6778,-2.5486,-2.4111,-2.3403,-2.3007,-2.2991,-2.2638,-2.2546,-2.2491,-2.2052,-2.1679,-2.1379,-2.1254,-2.1211,-2.1211,-2.1211,-2.1211,-2.1211,-2.1211,-2.1211,-2.1211,-2.1211,-2.1211,-2.1211,-2.1211,-2.1211,-2.1211,-2.1211,-2.1211,-2.1211,-2.1211,-2.1211,-2.1211,-2.1211,-2.1211,-2.1174,-2.105,-2.0596,-2.0194,-2.0077,-1.9623,-1.9063,-1.8325,-1.6929,-1.5648,-1.4911,-1.3408,-1.2441,-1.2441,-1.2229,-1.189,-1.1634,-1.1629,-1.1558,-1.139,-1.1285,-1.1273,-1.139,-1.1459,-1.1553,-1.1671,-1.174,-1.1776,-1.1776,-1.1776,-1.1776,-1.1776,-1.1776,-1.1776,-1.5256,-1.6105,-1.7131,0.0,0.0,0.0,-2.1704,-2.276,-2.3784,0.0,0.0,0.0,0.0,0.0,0.0,0.0,0.0,0.0,0.0,0.0,0.0,0.0,0.0,0.0,0.0,0.0,0.0,0.0,0.0,0.0,0.0,0.0,0.0,0.0,0.0,0.0,0.0,0.0,-2.8339,-2.7463,-2.7431,-2.716,-2.6857,-2.5497,-2.4317,-2.3395,-2.2712,-2.2424,-2.2513,-2.2186,-2.1972,-2.1862,-2.1745,-2.1496,-2.1211,-2.1211,-2.1211,-2.1211,-2.1211,-2.1211,-2.1211,-2.1211,-2.1211,-2.1211,-2.1211,-2.1211,-2.1211,-2.1211,-2.1211,-2.1211,-2.1211,-2.1211,-2.1211,-2.1211,-2.1211,-2.1211,-2.1211,-2.1211,-2.1181,-2.1079,-2.0611,-2.0201,-2.0106,-1.9638,-1.9063,-1.822,-1.6823,-1.5648,-1.4804,-1.3408,-1.2356,-1.2426,-1.2117,-1.1803,-1.1583,-1.1591,-1.1643,-1.1581,-1.1468,-1.1455,-1.1581,-1.1585,-1.1646,-1.1776,-1.1776,-1.1776,-1.1776,-1.1776,-1.1776,-1.1776,-1.1776,-1.1776,-1.5804,-1.6353,0.0,0.0,0.0,0.0,-2.219,-2.2511,-2.3039,0.0,0.0,0.0,0.0,0.0,0.0,0.0,0.0,0.0,0.0,0.0,0.0,0.0,0.0,0.0,0.0,0.0,0.0,0.0,0.0,0.0,0.0,0.0,0.0,0.0,0.0,0.0,0.0,0.0,-2.6027,-2.5909,-2.4522,-2.4633,-2.5909,-2.4156,-2.3578,-2.3803,-2.2364,-2.1876,-2.2147,-2.1825,-2.1503,-2.124,-2.1569,-2.1496,-2.1211,-2.1211,-2.1211,-2.1211,-2.1211,-2.1211,-2.1211,-2.1211,-2.1211,-2.1211,-2.1211,-2.1211,-2.1211,-2.1211,-2.1211,-2.1211,-2.1211,-2.1211,-2.1211,-2.1211,-2.1211,-2.1211,-2.1211,-2.1211,-2.1115,-2.0794,-2.0464,-2.0135,-1.982,-1.9491,-1.9279,-1.9279,-1.7351,-1.5861,-1.5861,-1.383,-1.2412,-1.2292,-1.2315,-1.2139,-1.1934,-1.185,-1.1815,-1.1764,-1.1776,-1.1776,-1.1776,-1.1776,-1.1776,-1.1776,-1.1776,-1.1776,-1.1776,-1.1776,-1.1776,-1.1776,-1.1776,-1.1776,-1.5421,0.0,0.0,0.0,0.0,0.0,0.0,0.0,0.0,0.0,0.0,0.0,0.0,0.0,0.0,0.0,0.0,0.0,0.0,0.0,0.0,0.0,0.0,0.0,0.0,0.0,0.0,0.0,0.0,0.0,0.0,0.0,0.0,0.0,0.0,0.0,0.0,0.0,0.0,-2.4403,-2.3838,-2.3727,-2.4156,-2.2862,-2.2146,-2.2017,-2.1573,-2.1408,-2.1489,-2.1393,-2.1298,-2.1218,-2.1313,-2.1298,-2.1211,-2.1211,-2.1211,-2.1211,-2.1211,-2.1211,-2.1211,-2.1211,-2.1211,-2.1211,-2.1211,-2.1211,-2.1211,-2.1211,-2.1211,-2.1211,-2.1211,-2.1211,-2.1211,-2.1211,-2.1211,-2.1211,-2.1211,-2.1211,-2.1181,-2.1086,-2.0618,-2.0201,-2.0113,-1.9638,-1.9063,-1.822,-1.6823,-1.5328,-1.3614,-1.2866,-1.2246,-1.2101,-1.2127,-1.199,-1.1409,-1.1663,-1.1836,-1.1772,-1.1776,-1.1776,-1.1776,-1.1776,-1.1776,-1.1776,-1.1776,-1.1776,-1.1776,-1.1776,-1.1776,-1.1776,-1.1776,-1.1776,-1.5782,0.0,0.0,0.0,0.0,0.0,0.0,0.0,0.0,0.0,0.0,0.0,0.0,0.0,0.0,0.0,0.0,0.0,0.0,0.0,0.0,0.0,0.0,0.0,0.0,0.0,0.0,0.0,0.0,0.0,0.0,0.0,0.0,0.0,0.0,0.0,0.0,0.0,0.0,-2.299,-2.2636,-2.2515,-2.2515,-2.1767,-2.1439,-2.1211,-2.1211,-2.1211,-2.1211,-2.1211,-2.1211,-2.1211,-2.1211,-2.1211,-2.1211,-2.1211,-2.1211,-2.1211,-2.1211,-2.1211,-2.1211,-2.1211,-2.1211,-2.1211,-2.1211,-2.1211,-2.1211,-2.1211,-2.1211,-2.1211,-2.1211,-2.1211,-2.1211,-2.1211,-2.1211,-2.1211,-2.1211,-2.1211,-2.113,-2.0874,-2.0501,-2.0157,-1.9901,-1.9535,-1.9063,-1.8429,-1.714,-1.5429,-1.2758,-1.2441,-1.2332,-1.2123,-1.2224,-1.2152,-1.1879,-1.1996,-1.201,-1.1776,-1.1776,-1.1776,-1.1776,-1.1776,-1.1776,-1.1776,-1.1776,-1.1776,-1.1776,-1.1776,-1.1776,-1.1776,-1.1776,-1.1776,0.0,0.0,0.0,0.0,0.0,0.0,0.0,0.0,0.0,0.0,0.0,0.0,0.0,0.0,0.0,0.0,0.0,0.0,0.0,0.0,0.0,0.0,0.0,0.0,0.0,0.0,0.0,0.0,0.0,0.0,0.0,0.0,0.0,0.0,0.0,0.0,0.0,0.0,0.0,0.0,0.0,-2.1211,-2.1211,-2.1211,-2.1211,-2.1211,-2.1211,-2.1211,-2.1211,-2.1211,-2.1211,-2.1211,-2.1211,-2.1211,-2.1211,-2.1211,-2.1211,-2.1211,-2.1211,-2.1211,-2.1211,-2.1211,-2.1211,-2.1211,-2.1211,-2.1211,-2.1211,-2.1211,-2.1211,-2.1211,-2.1211,-2.1211,-2.1211,-2.1211,-2.1211,-2.1211,-2.1211,-2.1211,-2.1028,-2.0398,-2.0259,-2.004,-1.9425,-1.9294,-1.9272,-1.9063,-1.782,-1.5903,-1.2762,-1.2441,-1.2441,-1.2441,-1.2507,-1.2632,-1.2782,-1.2719,-1.2367,-1.1776,-1.1776,-1.1776,-1.1776,-1.1776,-1.1776,-1.1776,-1.1776,-1.1776,-1.1776,-1.1776,-1.1776,-1.1776,-1.1776,-1.1776,0.0,-1.7995,0.0,0.0,0.0,0.0,0.0,0.0,0.0,0.0,0.0,0.0,0.0,0.0,0.0,0.0,0.0,0.0,0.0,0.0,0.0,0.0,0.0,0.0,0.0,0.0,0.0,0.0,0.0,0.0,0.0,0.0,0.0,0.0,0.0,0.0,0.0,0.0,-2.1325,0.0,-2.1211,-2.1211,-2.1211,-2.1211,-2.1211,-2.1211,-2.1211,-2.1211,-2.1211,-2.1211,-2.1211,-2.1211,-2.1211,-2.1211,-2.1211,-2.1211,-2.1211,-2.1211,-2.1211,-2.1211,-2.1211,-2.1211,-2.1211,-2.1211,-2.1211,-2.1211,-2.1211,-2.1211,-2.1211,-2.1211,-2.1211,-2.1211,-2.1211,-2.1211,-2.1211,-2.1211,-2.1211,-2.1211,-2.1094,-2.0691,-2.0413,-2.0113,-1.9725,-1.9447,-1.8848,-1.766,-1.6971,-1.5562,-1.2806,-1.2441,-1.2441,-1.2441,-1.3027,-1.3495,-1.343,-1.2612,-1.1893,-1.1776,-1.1776,-1.1776,-1.1776,-1.1776,-1.1776,-1.1776,-1.1776,-1.1776,-1.1776,-1.1776,-1.1776,-1.1776,-1.1776,-1.1776,0.0,0.0,0.0,0.0,0.0,0.0,0.0,0.0,0.0,0.0,0.0,0.0,0.0,0.0,0.0,0.0,0.0,0.0,0.0,0.0,0.0,0.0,0.0,0.0,0.0,0.0,0.0,0.0,0.0,0.0,0.0,0.0,0.0,0.0,0.0,0.0,-2.1203,-2.109,-2.1057,-2.1211,-2.1211,-2.1211,-2.1211,-2.1211,-2.1211,-2.1211,-2.1211,-2.1211,-2.1211,-2.1211,-2.1211,-2.1211,-2.1211,-2.1211,-2.1211,-2.1211,-2.1211,-2.1211,-2.1211,-2.1211,-2.1211,-2.1211,-2.1211,-2.1211,-2.1211,-2.1211,-2.1211,-2.1211,-2.1211,-2.1211,-2.1211,-2.1211,-2.1211,-2.1211,-2.1211,-2.1211,-2.1211,-2.1211,-2.1064,-2.0589,-2.0355,-2.0084,-1.9608,-1.9389,-1.9056,-1.8199,-1.7929,-1.6494,-1.2896,-1.2441,-1.2592,-1.2994,-1.3429,-1.3688,-1.3688,-1.2496,-1.1776,-1.1776,-1.1776,-1.1776,-1.1776,-1.1776,-1.1776,-1.1776,-1.1776,-1.1776,-1.1776,-1.1776,-1.1776,-1.1776,-1.1776,-1.1776,0.0,0.0,0.0,0.0,0.0,0.0,0.0,0.0,0.0,0.0,0.0,0.0,0.0,0.0,0.0,0.0,0.0,0.0,0.0,0.0,0.0,0.0,0.0,0.0,0.0,0.0,0.0,0.0,0.0,0.0,0.0,0.0,0.0,0.0,0.0,0.0,-2.0633,-2.064,-2.0772,-2.1042,-2.1101,-2.1159,-2.1211,-2.1211,-2.1211,-2.1211,-2.1211,-2.1211,-2.1211,-2.1211,-2.1211,-2.1211,-2.1211,-2.1211,-2.1211,-2.1211,-2.1211,-2.1211,-2.1211,-2.1211,-2.1211,-2.1211,-2.1211,-2.1211,-2.1211,-2.1211,-2.1211,-2.1211,-2.1211,-2.1211,-2.1211,-2.1211,-2.1211,-2.1211,-2.1211,-2.1211,-2.1211,-2.1167,-2.0947,-2.0355,-2.015,-1.9901,-1.9367,-1.9279,-1.9279,-1.9279,-1.8632,-1.6711,-1.2866,-1.2441,-1.2706,-1.34,-1.3603,-1.3569,-1.3449,-1.2376,-1.1776,-1.1776,-1.1776,-1.1776,-1.1776,-1.1776,-1.1776,-1.1776,-1.1776,-1.1776,-1.1776,-1.1776,-1.1776,-1.1776,-1.1776,-1.1776,0.0,0.0,0.0,0.0,0.0,0.0,0.0,0.0,0.0,0.0,0.0,0.0,0.0,0.0,0.0,0.0,0.0,0.0,0.0,0.0,0.0,0.0,0.0,0.0,0.0,0.0,0.0,0.0,0.0,0.0,0.0,0.0,0.0,0.0,0.0,0.0,-2.0296,-2.0303,-2.0318,-2.0369,-2.0655,-2.094,-2.1211,-2.1211,-2.1211,-2.1211,-2.1211,-2.1211,-2.1211,-2.1211,-2.1211,-2.1211,-2.1211,-2.1211,-2.1211,-2.1211,-2.1211,-2.1211,-2.1211,-2.1211,-2.1211,-2.1211,-2.1211,-2.1211,-2.1211,-2.1211,-2.1211,-2.1211,-2.1211,-2.1211,-2.1211,-2.1211,-2.1211,-2.1211,-2.1211,-2.1211,-2.1211,-2.0984,-2.0676,-2.0311,-1.9784,-1.9374,-1.9294,-1.9279,-1.9279,-1.9279,-1.5855,-1.3083,-1.2436,-1.2441,-1.2484,-1.2592,-1.3258,-1.3213,-1.2134,-1.1897,-1.1776,-1.1776,-1.1776,-1.1776,-1.1776,-1.1776,-1.1776,-1.1776,-1.1776,-1.1776,-1.1776,-1.1776,-1.1776,-1.1776,-1.1776,-1.1776,0.0,0.0,0.0,0.0,0.0,0.0,0.0,0.0,0.0,0.0,0.0,0.0,0.0,0.0,0.0,0.0,0.0,0.0,0.0,0.0,0.0,0.0,0.0,0.0,0.0,0.0,0.0,0.0,0.0,0.0,0.0,-1.9887,-1.9747,-1.9694,-1.9596,0.0,-1.9967,-1.9974,-2.0062,-2.0237,-2.0384,-2.0625,-2.094,-2.094,-2.1035,-2.1211,-2.1211,-2.1211,-2.1211,-2.1211,-2.1211,-2.1211,-2.1211,-2.1211,-2.1211,-2.1211,-2.1211,-2.1211,-2.1211,-2.1211,-2.1211,-2.1211,-2.1211,-2.1211,-2.1211,-2.1211,-2.1211,-2.1211,-2.1211,-2.1211,-2.1211,-2.1211,-2.1211,-2.1211,-2.1211,-2.1211,-2.1211,-2.1094,-2.0881,-2.0494,-1.9806,-1.9279,-1.9279,-1.9279,-1.9279,-1.9279,-1.5322,-1.2441,-1.2441,-1.2441,-1.3701,-1.7018,-1.7062,-1.5456,-1.2134,-1.1776,-1.2964,-1.593,-1.332,-1.1776,-1.1776,-1.1776,-1.1776,-1.1776,-1.1776,-1.1776,-1.1776,-1.1776,-1.1776,-1.1776,-1.1776,-1.1776,0.0,0.0,0.0,0.0,0.0,0.0,0.0,0.0,0.0,0.0,0.0,0.0,0.0,0.0,0.0,0.0,0.0,0.0,0.0,0.0,0.0,0.0,0.0,0.0,0.0,0.0,0.0,0.0,0.0,0.0,0.0,-1.9783,-1.948,-1.9279,-1.9279,-1.9396,-1.9638,-1.9638,-1.9798,-2.012,-2.012,-2.0289,-2.0603,-2.0684,-2.0859,-2.1094,-2.1174,-2.1211,-2.1211,-2.1211,-2.1211,-2.1211,-2.1211,-2.1211,-2.1211,-2.1211,-2.1211,-2.1211,-2.1211,-2.1211,-2.1211,-2.1211,-2.1211,-2.1211,-2.1211,-2.1211,-2.1211,-2.1211,-2.1211,-2.1211,-2.1211,-2.1211,-2.1189,-2.1101,-2.1086,-2.0965,-2.0623,-2.0786,-2.0732,-1.9911,-1.957,-1.9279,-1.9279,-1.9279,-1.9279,-1.9279,-1.6387,-1.4148,-1.4148,-1.4148,-1.5828,-2.0266,-1.9945,-1.7824,-1.4033,-1.3674,-1.5337,-1.9127,-1.4412,-1.15,-1.15,-1.1561,-1.1622,-1.1683,-1.1699,-1.1732,-1.1776,-1.1776,-1.1776,-1.1776,-1.1776,-1.1776,0.0,0.0,0.0,0.0,0.0,0.0,0.0,0.0,0.0,0.0,0.0,0.0,0.0,0.0,0.0,0.0,0.0,0.0,0.0,0.0,0.0,0.0,0.0,0.0,0.0,0.0,0.0,0.0,0.0,0.0,-1.9783,-1.948,-1.9272,-1.9279,-1.9279,-1.9286,-1.9301,-1.9301,-1.9469,-1.9784,-1.9784,-1.9952,-2.0274,-2.0581,-2.0728,-2.0764,-2.1079,-2.1211,-2.1211,-2.1211,-2.1211,-2.1211,-2.1211,-2.1211,-2.1211,-2.1211,-2.1211,-2.1211,-2.1211,-2.1211,-2.1211,-2.1211,-2.1211,-2.1211,-2.1211,-2.1211,-2.1211,-2.1211,-2.1211,-2.1211,-2.1211,-2.1211,-2.113,-2.0823,-2.075,-2.0406,-1.9138,-1.9591,-1.9771,-1.7889,-1.8496,-1.9279,-1.9279,-1.9279,-1.9279,-1.9279,-1.9063,-1.8952,-1.8952,-1.8952,-1.912,-1.9469,-1.9488,-1.9249,-1.901,-1.901,-1.9127,-1.9366,-1.3933,-1.0749,-1.0749,-1.0968,-1.12,-1.1427,-1.1488,-1.1602,-1.1776,-1.1776,-1.1776,-1.1776,-1.1776,-1.1776,0.0,0.0,0.0,0.0,0.0,0.0,0.0,0.0,0.0,0.0,0.0,0.0,0.0,0.0,0.0,0.0,0.0,0.0,0.0,0.0,0.0,0.0,0.0,0.0,0.0,0.0,0.0,0.0,0.0,0.0,-1.9037,-1.9051,-1.8964,-1.8964,-1.9169,-1.9279,-1.9279,-1.9279,-1.933,-1.9447,-1.9447,-1.9616,-1.9938,-2.0055,-2.0216,-2.042,-2.053,-2.0823,-2.1211,-2.1211,-2.1211,-2.1211,-2.1211,-2.1211,-2.1211,-2.1211,-2.1211,-2.1211,-2.1211,-2.1211,-2.1211,-2.1211,-2.1211,-2.1211,-2.1211,-2.1211,-2.1211,-2.1211,-2.1211,-2.1211,-2.1211,-2.1057,-2.0815,-2.0486,-2.0303,-1.9902,-1.88,-1.9262,-1.9708,-1.9139,-1.9134,-1.9279,-1.9279,-1.9279,-1.9279,-1.9279,-1.9279,-1.9279,-1.9279,-1.8639,-1.8475,-1.9354,-1.9366,-1.9366,-1.9366,-1.9366,-1.9038,-1.827,-1.3457,-1.1194,-1.2344,-1.1564,-1.1126,-1.1289,-1.1313,-1.1472,-1.1776,-1.1776,-1.1715,-1.1602,-1.1602,-1.1602,-1.2641,0.0,0.0,0.0,0.0,0.0,0.0,0.0,0.0,0.0,0.0,0.0,0.0,0.0,0.0,0.0,0.0,0.0,0.0,0.0,0.0,0.0,0.0,0.0,0.0,0.0,0.0,0.0,0.0,0.0,-1.8587,-1.8603,-1.8672,-1.8789,-1.9001,-1.9169,-1.9279,-1.9279,-1.9279,-1.9279,-1.9279,-1.9389,-1.9608,-1.9711,-1.9879,-2.0084,-2.0186,-2.0545,-2.105,-2.105,-2.1115,-2.1211,-2.1211,-2.1211,-2.1211,-2.1211,-2.1211,-2.1211,-2.1211,-2.1211,-2.1211,-2.1211,-2.1211,-2.1211,-2.1211,-2.0852,-2.0622,-2.1089,-2.0615,-2.0005,-2.0373,-1.9801,-1.9216,-1.8899,-1.8672,-1.8427,-1.8238,-1.8982,-1.9721,-1.9132,-1.924,-1.9279,-1.9279,-1.9279,-1.9279,-1.9279,-1.9279,-1.9279,-1.9279,-1.8325,-1.7889,-1.8684,-1.8771,-1.8771,-1.8771,-1.8771,-1.843,-1.7635,-1.4245,-1.2825,-1.4004,-1.2478,-1.1552,-1.1697,-1.1363,-1.1285,-1.1589,-1.1589,-1.1529,-1.1407,-1.1407,-1.1407,0.0,0.0,0.0,0.0,0.0,0.0,0.0,0.0,0.0,0.0,0.0,0.0,0.0,0.0,0.0,0.0,0.0,0.0,0.0,0.0,0.0,0.0,0.0,0.0,0.0,0.0,0.0,0.0,0.0,0.0,-1.8269,-1.8284,-1.8438,-1.8767,-1.8774,-1.8935,-1.9257,-1.9257,-1.9264,-1.9279,-1.9279,-1.9279,-1.9286,-1.9608,-1.9747,-1.9769,-2.0077,-2.0391,-2.0691,-2.0713,-2.0911,-2.1196,-2.1203,-2.1211,-2.1211,-2.1211,-2.1211,-2.1211,-2.1211,-2.1211,-2.1211,-2.1211,-2.1211,-2.1211,-2.1211,-2.027,-1.9564,-2.0737,-1.9325,-1.7732,-1.8704,-1.7648,-1.6247,-1.6241,-1.615,-1.6287,-1.7364,-1.8737,-1.9348,-1.7797,-1.8476,-1.9279,-1.9279,-1.9279,-1.9279,-1.9279,-1.9279,-1.9272,-1.9279,-1.8325,-1.7582,-1.7582,-1.7582,-1.7582,-1.7582,-1.7582,-1.7582,-1.7582,-1.6187,-1.5328,-1.5328,-1.3496,-1.2517,-1.2724,-1.1625,-1.1041,-1.1208,-1.122,-1.122,-1.1212,-1.1212,-1.1212,-1.1216,0.0,0.0,0.0,0.0,0.0,0.0,0.0,0.0,0.0,0.0,0.0,0.0,0.0,0.0,0.0,0.0,0.0,0.0,0.0,0.0,0.0,0.0,0.0,0.0,0.0,0.0,0.0,0.0,-1.7691,-1.7596,-1.7823,-1.8101,-1.843,-1.8438,-1.8591,-1.8921,-1.8921,-1.9038,-1.9279,-1.9279,-1.9279,-1.9279,-1.9367,-1.9411,-1.9411,-1.9506,-1.9725,-2.0062,-2.053,-2.0772,-2.0881,-2.1115,-2.1211,-2.1211,-2.1211,-2.1211,-2.1211,-2.1211,-2.1211,-2.1211,-2.1211,-2.1211,-2.0974,-2.0148,-2.0263,-2.0378,-1.8855,-1.8616,-1.8506,-1.7554,-1.6833,-1.6205,-1.6012,-1.6336,-1.681,-1.7134,-1.8401,-1.9342,-1.8914,-1.9031,-1.9279,-1.9279,-1.9279,-1.9279,-1.9279,-1.9279,-1.8959,-1.822,-1.7793,-1.7582,-1.7582,-1.7582,-1.7582,-1.7582,-1.7582,-1.7582,-1.7582,-1.6187,-1.5435,-1.5755,-1.3599,-1.2441,-1.2502,-1.1313,-1.0794,-1.0838,-1.1098,-1.1159,-1.1037,-1.1037,-1.1037,0.0,0.0,0.0,0.0,0.0,0.0,0.0,0.0,0.0,0.0,0.0,0.0,0.0,0.0,0.0,0.0,0.0,0.0,0.0,0.0,0.0,0.0,0.0,0.0,0.0,0.0,0.0,0.0,-1.7426,-1.7326,-1.7326,-1.7508,-1.7765,-1.8086,-1.8101,-1.8255,-1.8584,-1.8584,-1.8752,-1.9074,-1.9074,-1.9147,-1.9279,-1.9279,-1.9279,-1.9279,-1.9279,-1.9389,-1.9601,-2.0113,-2.0398,-2.0537,-2.0728,-2.0889,-2.1006,-2.1006,-2.1094,-2.1211,-2.1211,-2.1211,-2.1211,-2.1211,-2.0852,-2.0385,-2.0148,-1.9564,-1.8713,-1.8237,-1.7696,-1.6995,-1.5457,-1.4861,-1.4641,-1.4504,-1.4787,-1.5102,-1.5102,-1.5749,-1.7028,-1.8952,-1.9279,-1.9279,-1.9279,-1.9279,-1.9279,-1.9279,-1.8855,-1.8325,-1.7687,-1.7582,-1.7582,-1.7582,-1.7582,-1.7582,-1.7582,-1.7582,-1.7582,-1.7582,-1.6723,-1.6399,-1.6611,-1.4352,-1.3058,-1.3058,-1.1555,-1.0692,-1.0692,-1.0899,-1.0952,-1.0854,-1.0854,-1.0854,0.0,0.0,0.0,0.0,0.0,0.0,0.0,-1.2632,0.0,0.0,0.0,0.0,0.0,0.0,0.0,0.0,0.0,0.0,0.0,0.0,0.0,0.0,0.0,0.0,0.0,0.0,0.0,-1.7333,-1.7326,-1.7326,-1.7326,-1.7326,-1.7465,-1.775,-1.7765,-1.7918,-1.8247,-1.8247,-1.8408,-1.8738,-1.8774,-1.8942,-1.922,-1.9257,-1.9279,-1.9279,-1.9279,-1.9279,-1.9301,-1.9586,-1.9894,-2.0186,-2.0223,-2.0413,-2.0669,-2.0669,-2.0852,-2.1101,-2.1101,-2.1101,-2.1101,-2.1101,-2.028,-1.9577,-2.0401,-1.841,-1.626,-1.809,-1.6528,-1.4193,-1.3097,-1.2602,-1.2441,-1.2441,-1.2441,-1.2441,-1.2441,-1.2441,-1.3614,-1.7779,-1.8952,-1.9279,-1.9279,-1.9279,-1.9279,-1.9168,-1.822,-1.7582,-1.7582,-1.7582,-1.7582,-1.7582,-1.7582,-1.7582,-1.7582,-1.7582,-1.7582,-1.7582,-1.7582,-1.7582,-1.747,-1.5316,-1.403,-1.3917,-1.1769,-1.0692,-1.0692,-1.0692,-1.0692,-1.0692,-1.0692,-1.0692,0.0,0.0,0.0,0.0,0.0,0.0,0.0,-1.1056,0.0,0.0,0.0,0.0,0.0,0.0,0.0,0.0,0.0,0.0,0.0,0.0,0.0,0.0,0.0,0.0,0.0,0.0,0.0,-1.7326,-1.7326,-1.7326,-1.7326,-1.7326,-1.7355,-1.7421,-1.7421,-1.7582,-1.7911,-1.7911,-1.8072,-1.8401,-1.8664,-1.8818,-1.8891,-1.9155,-1.9279,-1.9279,-1.9279,-1.9279,-1.9279,-1.9345,-1.9564,-1.9879,-2.0135,-2.0274,-2.0333,-2.0333,-2.0479,-2.0633,-2.042,-2.0531,-2.0641,-2.042,-2.02,-1.9743,-1.8045,-1.7703,-1.7578,-1.6174,-1.4505,-1.3097,-1.2879,-1.2602,-1.2441,-1.2441,-1.2441,-1.2441,-1.2441,-1.2441,-1.2649,-1.3614,-1.6711,-1.9279,-1.9279,-1.9279,-1.8959,-1.8108,-1.7687,-1.7582,-1.7582,-1.7582,-1.7582,-1.7582,-1.7582,-1.7582,-1.7582,-1.7582,-1.7582,-1.7582,-1.7582,-1.7153,-1.6287,-1.4888,-1.3706,-1.2738,-1.1341,-1.0692,-1.0692,-1.0692,-1.0692,-1.0692,-1.0692,-1.0692,0.0,0.0,0.0,-1.1633,0.0,0.0,0.0,0.0,0.0,0.0,0.0,0.0,0.0,0.0,0.0,0.0,0.0,0.0,0.0,0.0,0.0,0.0,0.0,0.0,0.0,0.0,-1.7157,-1.7318,-1.7326,-1.7326,-1.7326,-1.7326,-1.7326,-1.7326,-1.7326,-1.7406,-1.7574,-1.7574,-1.7735,-1.8064,-1.8225,-1.8386,-1.8555,-1.8884,-1.903,-1.9038,-1.9206,-1.9279,-1.9279,-1.9279,-1.9374,-1.9535,-1.9696,-1.9857,-1.9996,-2.0104,-2.0315,-2.0448,-2.0448,-2.0448,-2.0339,-2.0237,-1.9449,-1.8326,-1.7759,-1.711,-1.6232,-1.4356,-1.3204,-1.2602,-1.2602,-1.2521,-1.2441,-1.2441,-1.2441,-1.2441,-1.2441,-1.2441,-1.2441,-1.2441,-1.4256,-1.6599,-1.8848,-1.9279,-1.8959,-1.7793,-1.7582,-1.7582,-1.7582,-1.7582,-1.7582,-1.7582,-1.7582,-1.7582,-1.7582,-1.7582,-1.7582,-1.7582,-1.7582,-1.7364,-1.6717,-1.4995,-1.3275,-1.1555,-1.1017,-1.0692,-1.0692,-1.0692,-1.0692,-1.0692,-1.0692,-1.0692,0.0,0.0,0.0,0.0,0.0,-1.1999,0.0,0.0,0.0,0.0,0.0,0.0,0.0,0.0,0.0,0.0,0.0,0.0,0.0,0.0,0.0,0.0,0.0,0.0,0.0,0.0,0.0,-1.7106,-1.7033,-1.704,-1.7223,-1.7296,-1.7326,-1.7326,-1.7326,-1.7326,-1.7326,-1.7326,-1.7465,-1.7721,-1.7786,-1.7955,-1.8218,-1.8547,-1.873,-1.8803,-1.9067,-1.922,-1.9279,-1.9279,-1.9279,-1.9279,-1.9279,-1.944,-1.9773,-1.9978,-2.0034,-2.0155,-2.0256,-2.0264,-2.0047,-1.9831,-1.816,-1.6384,-1.7378,-1.6014,-1.4009,-1.3034,-1.2578,-1.2441,-1.2441,-1.2441,-1.2441,-1.2441,-1.2441,-1.2441,-1.2441,-1.2441,-1.2441,-1.2441,-1.2441,-1.383,-1.852,-1.9168,-1.8639,-1.7687,-1.7582,-1.7582,-1.7582,-1.7582,-1.7582,-1.7582,-1.7582,-1.7582,-1.7582,-1.7582,-1.7582,-1.7582,-1.7582,-1.7364,-1.6935,-1.4674,-1.263,-1.0692,-1.0692,-1.0692,-1.0692,-1.0692,-1.0692,-1.0692,-1.0692,-1.0692,0.0,0.0,0.0,0.0,-1.3089,0.0,0.0,0.0,0.0,0.0,0.0,0.0,0.0,0.0,0.0,0.0,0.0,0.0,0.0,0.0,0.0,0.0,0.0,0.0,0.0,0.0,0.0,-1.6411,-1.5965,-1.6016,-1.6865,-1.7172,-1.7326,-1.7326,-1.7326,-1.7326,-1.7326,-1.7326,-1.7347,-1.7384,-1.7677,-1.7838,-1.7882,-1.8211,-1.8518,-1.8789,-1.8833,-1.9008,-1.9279,-1.9279,-1.9279,-1.9279,-1.9279,-1.9301,-1.933,-1.9435,-1.9561,-1.9688,-1.9486,-1.9591,-1.9576,-1.8317,-1.6392,-1.4461,-1.4678,-1.3681,-1.2583,-1.2474,-1.246,-1.2441,-1.2441,-1.2441,-1.2441,-1.2441,-1.2441,-1.2441,-1.2441,-1.2441,-1.2441,-1.2441,-1.2441,-1.383,-1.852,-1.8429,-1.7793,-1.7582,-1.7582,-1.7582,-1.7582,-1.7582,-1.7582,-1.7582,-1.7582,-1.7582,-1.7582,-1.7582,-1.7582,-1.7582,-1.7582,-1.6717,-1.4561,-1.2309,-1.0907,-1.0692,-1.0692,-1.0692,-1.0692,-1.0692,-1.0692,-1.0692,-1.0692,-1.0692,0.0,0.0,0.0,0.0,0.0,0.0,0.0,0.0,-1.1238,0.0,0.0,0.0,0.0,0.0,0.0,0.0,0.0,0.0,0.0,0.0,0.0,0.0,0.0,0.0,0.0,0.0,0.0,0.0,0.0,-1.5489,-1.6265,-1.6784,-1.7135,-1.7326,-1.7326,-1.7326,-1.7326,-1.7326,-1.7326,-1.7326,-1.7465,-1.753,-1.7545,-1.7874,-1.8094,-1.8233,-1.8423,-1.8694,-1.8994,-1.8994,-1.9103,-1.9279,-1.9279,-1.9279,-1.9272,-1.948,-1.948,-1.948,-1.948,-1.9056,-1.8206,-1.6299,-1.5024,-1.4062,-1.3413,-1.2762,-1.2441,-1.2441,-1.2441,-1.2441,-1.2441,-1.2441,-1.2441,-1.2441,-1.2441,-1.2441,-1.2441,-1.2441,-1.2441,-1.2441,-1.2441,-1.2975,-1.5001,-1.714,-1.8325,-1.7687,-1.7582,-1.7582,-1.7582,-1.7582,-1.7582,-1.7582,-1.7582,-1.7582,-1.7582,-1.7582,-1.7582,-1.7582,-1.6723,-1.5322,-1.3166,-1.22,-1.1337,-1.0692,-1.0692,-1.0692,-1.0692,-1.0692,-1.0692,-1.0692,-1.0692,-1.0692,-1.3053,0.0,0.0,0.0,0.0,0.0,0.0,0.0,0.0,0.0,0.0,0.0,0.0,0.0,0.0,0.0,0.0,0.0,0.0,0.0,0.0,0.0,0.0,0.0,0.0,0.0,0.0,0.0,0.0,0.0,-1.5723,-1.6301,-1.6821,-1.7311,-1.7326,-1.7326,-1.7326,-1.7326,-1.7326,-1.7326,-1.7326,-1.7326,-1.7333,-1.7574,-1.7728,-1.783,-1.8064,-1.8357,-1.8664,-1.8752,-1.8928,-1.9147,-1.9242,-1.9279,-1.9272,-1.948,-1.948,-1.9383,-1.948,-1.852,-1.6829,-1.4809,-1.3954,-1.3516,-1.2654,-1.2441,-1.2441,-1.2441,-1.2441,-1.2441,-1.2441,-1.2441,-1.2441,-1.2441,-1.2441,-1.2441,-1.2441,-1.2441,-1.2332,-1.2223,-1.2001,-1.211,-1.2758,-1.5102,-1.7134,-1.7575,-1.7582,-1.7582,-1.7582,-1.7582,-1.7582,-1.7582,-1.7582,-1.7582,-1.7582,-1.7582,-1.747,-1.7041,-1.5541,-1.4035,-1.2413,-1.2091,-1.1555,-1.0692,-1.0692,-1.0692,-1.0692,-1.0692,-1.0692,-1.0692,-1.0692,-1.0692,0.0,0.0,0.0,0.0,0.0,0.0,0.0,0.0,-1.1816,0.0,0.0,0.0,0.0,0.0,0.0,-1.0638,0.0,0.0,0.0,0.0,0.0,0.0,0.0,0.0,0.0,0.0,0.0,0.0,0.0,0.0,-1.5328,-1.576,-1.6374,-1.7296,-1.7326,-1.7326,-1.7326,-1.7326,-1.7326,-1.7326,-1.7326,-1.7326,-1.7326,-1.734,-1.7516,-1.7816,-1.783,-1.8013,-1.8343,-1.8657,-1.8796,-1.884,-1.9155,-1.9279,-1.9279,-1.9279,-1.9279,-1.9279,-1.9279,-1.7884,-1.5755,-1.4595,-1.3413,-1.2441,-1.2441,-1.2441,-1.2441,-1.2441,-1.2441,-1.2441,-1.2441,-1.2441,-1.2441,-1.2441,-1.2441,-1.2441,-1.2441,-1.2441,-1.2223,-1.1678,-1.1131,-1.1446,-1.3706,-1.2309,-1.2526,-1.6935,-1.7582,-1.7582,-1.7582,-1.7582,-1.7582,-1.7582,-1.7582,-1.7582,-1.7582,-1.7582,-1.6935,-1.5435,-1.3938,-1.2856,-1.2417,-1.1341,-1.0692,-1.0692,-1.0692,-1.0692,-1.0692,-1.0692,-1.0692,-1.0692,-1.0692,-1.0692,0.0,0.0,-1.4443,-1.3031,0.0,0.0,0.0,0.0,0.0,0.0,0.0,0.0,0.0,0.0,0.0,-1.0638,0.0,0.0,0.0,0.0,0.0,0.0,0.0,0.0,0.0,0.0,0.0,0.0,0.0,0.0,0.0,-1.5277,-1.6155,-1.6674,-1.7106,-1.7326,-1.7326,-1.7326,-1.7326,-1.7326,-1.7326,-1.7326,-1.7326,-1.7326,-1.7391,-1.7494,-1.7494,-1.7677,-1.7991,-1.8101,-1.8277,-1.8503,-1.8825,-1.8957,-1.8979,-1.9199,-1.9279,-1.9063,-1.7569,-1.608,-1.4589,-1.3408,-1.2762,-1.2441,-1.2441,-1.2441,-1.2441,-1.2441,-1.2441,-1.2441,-1.2441,-1.2441,-1.2441,-1.2441,-1.2441,-1.2332,-1.2123,-1.2228,-1.2223,-1.1678,-1.1131,-1.1446,-1.3706,-1.4781,-1.5749,-1.7364,-1.7582,-1.7582,-1.7582,-1.7582,-1.7582,-1.7582,-1.7582,-1.7582,-1.7582,-1.7582,-1.6505,-1.3938,-1.3295,-1.2427,-1.1341,-1.0907,-1.0692,-1.0692,-1.0692,-1.0692,-1.0692,-1.0692,-1.0692,-1.0692,-1.0692,-1.0692,-1.4589,-1.4699,0.0,0.0,-1.3184,0.0,0.0,0.0,0.0,0.0,0.0,0.0,0.0,0.0,0.0,0.0,-1.0463,0.0,0.0,0.0,0.0,0.0,0.0,0.0,0.0,0.0,-1.0558,-1.1333,0.0,0.0,0.0,0.0,-1.5701,-1.6345,-1.6996,-1.7326,-1.7326,-1.7326,-1.7326,-1.7326,-1.7326,-1.7326,-1.7326,-1.7326,-1.7326,-1.7326,-1.7326,-1.7443,-1.7655,-1.7765,-1.794,-1.816,-1.8489,-1.8686,-1.8833,-1.9155,-1.9063,-1.8318,-1.608,-1.4804,-1.3954,-1.2762,-1.2441,-1.2441,-1.2441,-1.2441,-1.2441,-1.2441,-1.2441,-1.2441,-1.2441,-1.2441,-1.2441,-1.2441,-1.2332,-1.2223,-1.2014,-1.201,-1.2001,-1.1455,-1.1455,-1.1987,-1.3814,-1.5642,-1.6935,-1.7477,-1.7582,-1.7582,-1.7582,-1.7582,-1.7582,-1.7582,-1.7582,-1.7582,-1.7582,-1.6829,-1.5429,-1.3186,-1.297,-1.2318,-1.0802,-1.1126,-1.1122,-1.0692,-1.0692,-1.0692,-1.0692,-1.0692,-1.0692,-1.0692,-1.0692,-1.0692]},{"header":{"parameterUnit":"m.s-1","parameterCategory":1,"la1":30.6,"la2":29.2853,"lo1":-89.7004,"lo2":-87.6739,"dy":0.0162,"dx":0.0183,"nx":112,"ny":82,"refTime":"2025-07-04T12:00:00:Z","depth":0,"parameterNumber":3,"parameterNumberName":"V-component_of_WINDS"},"data":[0.0,0.0,0.0,0.0,0.0,0.0,0.0,0.0,0.0,0.0,0.0,0.0,0.0,0.0,0.0,0.0,0.0,0.0,0.0,0.0,0.0,0.0,0.0,0.0,0.0,0.0,0.0,0.0,0.0,0.0,0.0,0.0,0.0,0.0,0.0,0.0,0.0,0.0,0.0,0.0,0.0,0.0,0.0,0.0,0.0,0.0,0.0,0.0,0.0,0.0,0.0,0.0,0.0,0.0,0.0,0.0,0.0,0.0,0.0,0.0,0.0,0.0,0.0,0.0,0.0,0.0,0.0,0.0,0.0,0.0,0.0,0.0,0.0,0.0,0.0,0.0,0.0,0.0,0.0,0.0,0.0,0.0,0.0,0.0,0.0,0.0,0.0,0.0,0.0,0.0,0.0,-3.1668,-3.5155,-3.6907,-3.6344,-3.597,-3.395,-2.9715,0.0,0.0,0.0,0.0,0.0,0.0,0.0,0.0,0.0,0.0,0.0,0.0,0.0,0.0,0.0,0.0,0.0,0.0,0.0,0.0,0.0,0.0,0.0,0.0,0.0,0.0,0.0,0.0,0.0,0.0,0.0,0.0,0.0,0.0,0.0,0.0,0.0,0.0,0.0,0.0,0.0,0.0,0.0,0.0,0.0,0.0,0.0,0.0,0.0,0.0,0.0,0.0,0.0,0.0,0.0,0.0,0.0,0.0,0.0,0.0,0.0,0.0,0.0,0.0,0.0,0.0,0.0,0.0,0.0,0.0,0.0,0.0,0.0,0.0,0.0,0.0,0.0,0.0,0.0,0.0,0.0,0.0,0.0,0.0,0.0,0.0,0.0,0.0,0.0,0.0,0.0,0.0,0.0,0.0,0.0,0.0,0.0,0.0,0.0,0.0,0.0,0.0,0.0,0.0,-2.9483,-3.5628,-3.7208,-3.7911,-3.8099,-3.6267,-3.3931,-3.1156,0.0,0.0,0.0,0.0,0.0,0.0,0.0,0.0,0.0,0.0,0.0,0.0,0.0,0.0,0.0,0.0,0.0,0.0,0.0,0.0,0.0,0.0,0.0,0.0,0.0,0.0,0.0,0.0,0.0,0.0,0.0,0.0,0.0,0.0,0.0,0.0,0.0,0.0,0.0,0.0,0.0,0.0,0.0,0.0,0.0,0.0,0.0,0.0,0.0,0.0,0.0,0.0,0.0,0.0,0.0,0.0,0.0,0.0,0.0,0.0,0.0,0.0,0.0,0.0,0.0,0.0,0.0,0.0,0.0,0.0,0.0,0.0,0.0,0.0,0.0,0.0,0.0,0.0,0.0,0.0,0.0,0.0,0.0,0.0,0.0,0.0,0.0,0.0,0.0,0.0,0.0,0.0,0.0,0.0,0.0,0.0,0.0,0.0,0.0,0.0,0.0,0.0,0.0,-2.8016,-3.1402,-3.665,-3.7845,-3.8332,-3.851,-3.6794,-3.4443,-3.1528,-2.8379,0.0,0.0,0.0,0.0,0.0,0.0,0.0,0.0,0.0,0.0,0.0,0.0,0.0,0.0,0.0,0.0,0.0,0.0,0.0,0.0,0.0,0.0,0.0,0.0,0.0,0.0,0.0,0.0,0.0,0.0,0.0,0.0,0.0,0.0,0.0,0.0,0.0,0.0,0.0,0.0,0.0,0.0,0.0,0.0,0.0,0.0,0.0,0.0,0.0,0.0,0.0,0.0,0.0,0.0,0.0,0.0,0.0,0.0,0.0,0.0,0.0,0.0,0.0,0.0,0.0,0.0,0.0,0.0,0.0,0.0,0.0,0.0,0.0,0.0,0.0,0.0,0.0,0.0,0.0,0.0,0.0,0.0,0.0,0.0,0.0,0.0,0.0,0.0,0.0,0.0,0.0,0.0,0.0,0.0,0.0,0.0,0.0,0.0,0.0,0.0,0.0,0.0,-3.1071,-3.3441,-3.7119,-3.8131,-3.8559,-3.8559,-3.6806,-3.4468,-3.1568,-2.8026,0.0,0.0,0.0,0.0,0.0,0.0,0.0,0.0,0.0,0.0,0.0,0.0,0.0,0.0,0.0,0.0,0.0,0.0,0.0,0.0,0.0,0.0,0.0,0.0,0.0,0.0,0.0,0.0,0.0,0.0,0.0,0.0,0.0,0.0,0.0,0.0,0.0,0.0,0.0,0.0,0.0,0.0,0.0,0.0,0.0,0.0,0.0,0.0,0.0,0.0,0.0,0.0,0.0,0.0,0.0,0.0,0.0,0.0,0.0,0.0,0.0,0.0,0.0,0.0,0.0,0.0,0.0,0.0,0.0,0.0,0.0,0.0,0.0,0.0,0.0,0.0,0.0,0.0,0.0,0.0,0.0,0.0,0.0,0.0,0.0,0.0,0.0,0.0,0.0,0.0,0.0,0.0,0.0,0.0,0.0,0.0,0.0,0.0,0.0,0.0,0.0,0.0,-3.2308,-3.5677,-3.8144,-3.8572,-3.8707,-3.8707,-3.5789,-3.3238,-3.1494,-2.6979,0.0,0.0,0.0,0.0,0.0,0.0,0.0,0.0,0.0,0.0,0.0,0.0,0.0,0.0,0.0,0.0,0.0,0.0,0.0,0.0,0.0,0.0,0.0,0.0,0.0,0.0,0.0,0.0,0.0,0.0,0.0,0.0,0.0,0.0,0.0,0.0,0.0,0.0,0.0,0.0,0.0,0.0,0.0,0.0,0.0,0.0,0.0,0.0,0.0,0.0,0.0,0.0,0.0,0.0,0.0,0.0,0.0,0.0,0.0,0.0,0.0,0.0,0.0,0.0,0.0,0.0,0.0,0.0,0.0,0.0,0.0,0.0,0.0,0.0,0.0,0.0,0.0,0.0,0.0,0.0,0.0,0.0,0.0,0.0,0.0,0.0,0.0,0.0,0.0,0.0,0.0,0.0,0.0,0.0,0.0,0.0,0.0,0.0,0.0,0.0,0.0,0.0,-3.1609,-3.4825,0.0,-3.8658,-3.8707,-3.8707,-3.6652,-3.4229,-3.1568,0.0,0.0,0.0,0.0,0.0,0.0,0.0,0.0,0.0,0.0,0.0,0.0,0.0,0.0,0.0,0.0,0.0,0.0,0.0,0.0,0.0,0.0,0.0,0.0,0.0,0.0,0.0,0.0,0.0,0.0,0.0,0.0,0.0,0.0,0.0,0.0,0.0,0.0,0.0,0.0,0.0,0.0,0.0,0.0,0.0,0.0,0.0,0.0,0.0,0.0,0.0,0.0,0.0,0.0,0.0,0.0,0.0,0.0,0.0,0.0,0.0,0.0,0.0,0.0,0.0,0.0,0.0,0.0,0.0,0.0,0.0,0.0,0.0,0.0,0.0,0.0,0.0,0.0,0.0,0.0,0.0,0.0,0.0,0.0,0.0,0.0,0.0,0.0,0.0,0.0,0.0,0.0,0.0,0.0,0.0,0.0,0.0,0.0,0.0,0.0,0.0,0.0,-2.8572,-3.1781,-3.5027,0.0,-3.8707,-3.8707,-3.8707,-3.6743,-3.4211,-3.1201,0.0,0.0,0.0,0.0,0.0,0.0,0.0,0.0,0.0,0.0,0.0,0.0,0.0,0.0,0.0,0.0,0.0,0.0,0.0,0.0,0.0,0.0,0.0,0.0,0.0,0.0,0.0,0.0,0.0,0.0,0.0,0.0,0.0,0.0,0.0,0.0,0.0,0.0,0.0,0.0,0.0,0.0,0.0,0.0,0.0,0.0,0.0,0.0,0.0,0.0,0.0,0.0,0.0,0.0,0.0,0.0,0.0,0.0,0.0,0.0,0.0,0.0,0.0,0.0,0.0,0.0,0.0,0.0,0.0,0.0,0.0,0.0,0.0,0.0,0.0,0.0,0.0,0.0,0.0,0.0,0.0,0.0,0.0,0.0,0.0,0.0,0.0,0.0,0.0,0.0,0.0,0.0,0.0,0.0,0.0,0.0,0.0,0.0,0.0,0.0,0.0,0.0,-2.8773,-3.3275,-3.6909,-3.8542,-3.8707,-3.8707,-3.8707,-3.5716,-3.2797,0.0,0.0,0.0,0.0,0.0,0.0,0.0,0.0,0.0,0.0,0.0,0.0,0.0,0.0,0.0,0.0,0.0,0.0,0.0,0.0,0.0,0.0,0.0,0.0,0.0,0.0,0.0,0.0,0.0,0.0,0.0,0.0,0.0,0.0,0.0,0.0,0.0,0.0,0.0,0.0,0.0,0.0,0.0,0.0,0.0,0.0,0.0,0.0,0.0,0.0,0.0,0.0,0.0,0.0,0.0,0.0,0.0,0.0,0.0,0.0,0.0,0.0,0.0,0.0,0.0,0.0,0.0,0.0,0.0,0.0,0.0,0.0,0.0,0.0,0.0,0.0,0.0,0.0,0.0,0.0,0.0,0.0,0.0,0.0,0.0,0.0,0.0,0.0,0.0,0.0,0.0,0.0,0.0,0.0,0.0,0.0,0.0,0.0,0.0,0.0,0.0,0.0,0.0,0.0,-3.3275,-3.6909,-3.8542,-3.8707,-3.8707,-3.8707,-3.6762,-3.4266,-3.1237,0.0,0.0,0.0,0.0,0.0,0.0,0.0,0.0,0.0,0.0,0.0,0.0,0.0,0.0,0.0,0.0,0.0,0.0,0.0,0.0,0.0,0.0,0.0,0.0,0.0,0.0,0.0,0.0,0.0,0.0,0.0,0.0,0.0,0.0,0.0,0.0,0.0,0.0,0.0,0.0,0.0,0.0,0.0,0.0,0.0,0.0,0.0,0.0,0.0,0.0,0.0,0.0,0.0,0.0,0.0,0.0,0.0,0.0,0.0,0.0,0.0,0.0,0.0,0.0,0.0,0.0,0.0,0.0,0.0,0.0,0.0,0.0,0.0,0.0,0.0,0.0,0.0,0.0,0.0,0.0,0.0,0.0,0.0,0.0,0.0,0.0,0.0,0.0,0.0,0.0,0.0,0.0,0.0,0.0,0.0,0.0,0.0,0.0,0.0,0.0,0.0,0.0,-2.9237,-3.3476,-3.6909,-3.8542,-3.8707,-3.8707,-3.8707,-3.7514,-3.5238,-3.1623,0.0,0.0,0.0,0.0,0.0,0.0,0.0,0.0,0.0,0.0,0.0,0.0,0.0,0.0,0.0,0.0,0.0,0.0,0.0,0.0,0.0,0.0,0.0,0.0,0.0,0.0,0.0,0.0,0.0,0.0,0.0,0.0,0.0,0.0,0.0,0.0,0.0,0.0,0.0,0.0,0.0,0.0,0.0,0.0,0.0,0.0,0.0,0.0,0.0,0.0,0.0,0.0,0.0,0.0,0.0,0.0,0.0,0.0,0.0,0.0,0.0,0.0,0.0,0.0,0.0,0.0,0.0,0.0,0.0,0.0,0.0,0.0,0.0,0.0,0.0,0.0,0.0,0.0,0.0,0.0,0.0,0.0,0.0,0.0,0.0,0.0,0.0,0.0,0.0,0.0,0.0,0.0,0.0,0.0,0.0,0.0,0.0,0.0,0.0,0.0,0.0,0.0,-2.9898,-3.3844,-3.7,-3.8542,-3.8707,-3.8707,-3.8707,-3.7955,-3.5836,-3.1861,0.0,0.0,0.0,0.0,0.0,0.0,0.0,0.0,0.0,0.0,0.0,0.0,0.0,0.0,0.0,0.0,0.0,0.0,0.0,0.0,0.0,0.0,0.0,0.0,0.0,0.0,0.0,0.0,0.0,0.0,0.0,0.0,0.0,0.0,0.0,0.0,0.0,0.0,0.0,0.0,0.0,0.0,0.0,0.0,0.0,0.0,0.0,0.0,0.0,0.0,0.0,0.0,0.0,0.0,0.0,0.0,0.0,0.0,0.0,0.0,-2.6528,0.0,0.0,0.0,0.0,0.0,0.0,0.0,0.0,0.0,0.0,0.0,0.0,0.0,0.0,0.0,0.0,0.0,0.0,0.0,0.0,0.0,0.0,0.0,0.0,0.0,0.0,0.0,0.0,0.0,0.0,0.0,0.0,0.0,0.0,0.0,0.0,0.0,0.0,0.0,0.0,0.0,-2.9971,-3.4321,-3.7606,-3.8597,-3.8707,-3.8707,-3.8707,-3.7955,-3.6285,-3.3458,0.0,0.0,0.0,0.0,0.0,0.0,0.0,0.0,0.0,0.0,0.0,0.0,0.0,0.0,0.0,0.0,0.0,0.0,0.0,0.0,0.0,0.0,0.0,0.0,0.0,0.0,0.0,0.0,0.0,0.0,0.0,0.0,0.0,0.0,0.0,0.0,0.0,0.0,0.0,0.0,0.0,0.0,0.0,0.0,0.0,0.0,0.0,0.0,0.0,0.0,0.0,0.0,0.0,0.0,0.0,0.0,0.0,0.0,0.0,0.0,0.0,-2.9218,0.0,0.0,0.0,0.0,0.0,0.0,0.0,0.0,0.0,0.0,0.0,0.0,0.0,0.0,0.0,0.0,0.0,0.0,0.0,0.0,0.0,0.0,0.0,0.0,0.0,0.0,0.0,0.0,0.0,0.0,0.0,0.0,0.0,0.0,0.0,0.0,0.0,0.0,0.0,0.0,-3.1054,-3.4945,-3.7808,-3.8615,-3.8707,-3.8707,-3.8707,-3.8322,-3.7202,-3.5128,-3.2834,0.0,0.0,0.0,0.0,0.0,0.0,0.0,0.0,0.0,0.0,0.0,0.0,0.0,0.0,0.0,0.0,0.0,0.0,0.0,0.0,0.0,0.0,0.0,0.0,0.0,0.0,0.0,0.0,0.0,0.0,0.0,0.0,0.0,0.0,0.0,0.0,0.0,0.0,0.0,0.0,0.0,0.0,0.0,0.0,0.0,0.0,0.0,0.0,0.0,0.0,0.0,0.0,0.0,0.0,0.0,-3.3582,-3.4577,-3.5398,-3.5844,-3.4074,-3.3309,-3.3094,0.0,0.0,0.0,0.0,0.0,0.0,0.0,0.0,0.0,0.0,0.0,0.0,0.0,0.0,0.0,0.0,0.0,0.0,0.0,0.0,0.0,0.0,0.0,0.0,0.0,-3.7129,-3.6615,0.0,0.0,0.0,0.0,0.0,0.0,0.0,0.0,0.0,0.0,0.0,0.0,-3.243,-3.5717,-3.8026,-3.8707,-3.8792,-3.8851,-3.8851,-3.8851,-3.8224,-3.6731,-3.4779,-3.2914,0.0,0.0,0.0,0.0,0.0,0.0,0.0,0.0,0.0,0.0,0.0,0.0,0.0,0.0,0.0,0.0,0.0,0.0,0.0,0.0,0.0,0.0,0.0,0.0,0.0,0.0,0.0,0.0,0.0,0.0,0.0,0.0,-2.0478,-2.1518,0.0,0.0,0.0,0.0,0.0,0.0,0.0,0.0,0.0,0.0,0.0,0.0,0.0,0.0,-3.3044,-3.5004,-3.5873,-3.5623,-3.7709,-3.8805,-3.8919,-3.9919,-4.0409,-4.0492,-4.0249,0.0,-3.5396,-3.3176,0.0,0.0,0.0,0.0,0.0,0.0,0.0,0.0,0.0,0.0,0.0,0.0,0.0,0.0,0.0,0.0,0.0,0.0,0.0,0.0,0.0,0.0,-3.9929,-4.0221,-4.0469,-4.0212,0.0,-3.4486,-3.0742,-2.9641,0.0,0.0,0.0,0.0,0.0,0.0,0.0,0.0,-3.3403,-3.6722,-3.8934,-3.9045,-3.9245,-3.9383,-3.9383,-3.9383,-3.9008,-3.8096,-3.7057,-3.545,-3.312,-3.1428,0.0,0.0,0.0,0.0,0.0,0.0,0.0,0.0,0.0,0.0,0.0,0.0,0.0,0.0,0.0,0.0,0.0,0.0,0.0,0.0,0.0,0.0,0.0,0.0,0.0,0.0,0.0,0.0,0.0,-2.0314,-2.2728,-2.3444,-2.4381,-2.472,0.0,0.0,0.0,0.0,0.0,0.0,0.0,0.0,0.0,-3.3599,-3.5493,-3.6902,-3.767,-3.8755,-3.9249,-3.9061,-4.005,-4.0508,-4.0525,-4.1106,-4.1409,-4.1409,-4.1409,-4.0514,-3.8874,-3.6688,-3.4883,-3.3326,0.0,0.0,0.0,0.0,0.0,0.0,-3.4472,0.0,0.0,0.0,0.0,0.0,0.0,0.0,0.0,0.0,0.0,0.0,0.0,0.0,0.0,-4.1629,-4.2121,-4.2231,-4.1423,-3.9294,-3.6615,0.0,-3.2724,-3.1439,-2.7897,0.0,0.0,0.0,0.0,0.0,-3.4981,-3.7337,-3.8881,-3.8881,-3.9129,-3.9272,-3.9272,-3.9408,-3.9333,-3.9019,-3.829,-3.7435,-3.6359,-3.4033,-3.1835,0.0,0.0,0.0,0.0,0.0,0.0,0.0,0.0,0.0,0.0,0.0,0.0,0.0,0.0,0.0,0.0,0.0,0.0,0.0,0.0,0.0,0.0,0.0,0.0,0.0,0.0,0.0,0.0,-2.2381,-2.4747,-2.5556,-2.713,-2.7777,0.0,0.0,0.0,0.0,0.0,0.0,-3.1957,-3.4249,-3.6242,-3.7865,-3.9253,-4.0324,-4.102,-4.1261,-4.1321,-4.1287,-4.142,-4.146,-4.1524,-4.1799,-4.1972,-4.1972,-4.1972,-4.1872,-4.1541,-3.957,-3.7798,-3.6224,-3.5479,-3.4797,0.0,-3.5473,-3.5635,-3.5592,-3.8397,-3.9239,-3.8981,-3.8286,0.0,-3.7524,-3.5513,0.0,0.0,0.0,0.0,-3.831,-3.9826,0.0,-4.1677,-4.2436,-4.3057,-4.3332,-4.2745,-4.2598,-4.1405,0.0,-3.6927,-3.5734,-3.1072,0.0,0.0,0.0,0.0,-3.4963,-3.6413,-3.7868,-3.8792,-3.8792,-3.9101,-3.9298,-3.9298,-3.9551,-3.9693,-3.9693,-3.9075,-3.859,-3.8381,-3.5964,-3.4025,0.0,0.0,0.0,0.0,0.0,0.0,0.0,0.0,0.0,0.0,0.0,0.0,0.0,0.0,0.0,0.0,0.0,0.0,0.0,0.0,0.0,0.0,0.0,0.0,0.0,0.0,0.0,0.0,0.0,0.0,-2.8621,-3.0228,0.0,0.0,0.0,0.0,-3.1288,-3.2801,-3.4621,-3.6818,-3.8476,-4.007,-4.165,-4.2142,-4.2151,-4.1737,-4.177,-4.1723,-4.1578,-4.2336,-4.2816,-4.2998,-4.3317,-4.3512,-4.3512,-4.3512,-4.3115,-4.2353,-4.0878,-4.0199,-4.0034,-3.9288,-3.8648,-3.8119,-3.8186,-3.8388,-3.8571,-3.8772,-3.8905,-3.9168,-4.0277,-3.9495,-3.8429,-3.9734,-3.8365,0.0,0.0,-3.9837,-4.0722,-4.163,-4.2556,-4.3301,-4.3424,-4.3461,-4.3479,-4.3442,-4.3424,-4.291,0.0,-4.0212,-3.9129,-3.7312,0.0,0.0,-3.4825,-3.555,-3.6468,-3.7342,-3.8403,-3.9073,-3.9073,-3.9551,-3.987,-3.987,-4.0098,-4.0253,-4.0253,-3.9451,-3.8611,-3.7771,-3.6854,-3.5212,-3.2749,-3.093,0.0,0.0,0.0,0.0,0.0,0.0,0.0,0.0,0.0,0.0,0.0,0.0,0.0,0.0,0.0,0.0,0.0,0.0,0.0,0.0,0.0,0.0,0.0,0.0,0.0,0.0,0.0,0.0,-3.1871,-3.3932,0.0,0.0,-3.4991,-3.5796,-3.6011,-3.7954,-3.948,-4.0272,-4.1323,-4.2423,-4.344,-4.358,-4.3837,-4.4087,-4.38,-4.3736,-4.3878,-4.3588,-4.3564,-4.3781,-4.3654,-4.3628,-4.3628,-4.3628,-4.3479,-4.3197,-4.2684,-4.1905,-4.1011,-4.0746,-4.0536,-4.0375,-4.0554,-4.091,-4.1325,-4.1526,-4.2029,-4.2642,-4.285,-4.2177,-4.1333,-4.1866,-4.1378,-4.0763,-4.147,-4.1941,-4.2341,-4.2668,-4.3067,-4.3429,-4.3497,-4.3497,-4.3497,-4.3497,-4.3497,-4.3314,-4.2763,-4.1992,-4.0763,-3.8634,-3.8891,-3.897,-3.7831,-3.8331,-3.9036,-3.9498,-3.9286,-3.9101,-3.9101,-3.9427,-3.9647,-3.9647,-3.9543,-3.947,-3.947,-3.8648,-3.8018,-3.7712,-3.6929,-3.6071,-3.5155,-3.2955,-3.0553,0.0,0.0,0.0,0.0,0.0,0.0,0.0,0.0,0.0,0.0,0.0,0.0,0.0,0.0,0.0,0.0,0.0,0.0,0.0,0.0,0.0,0.0,0.0,0.0,0.0,0.0,-3.2479,-3.4309,-3.644,-3.7514,-3.6884,-3.8356,-3.9399,-3.9657,-4.1388,-4.2492,-4.275,-4.3251,-4.4009,-4.5027,-4.4939,-4.5297,-4.6309,-4.5847,-4.5892,-4.6469,-4.5622,-4.5417,-4.5723,-4.5047,-4.4721,-4.4721,-4.4473,-4.4208,-4.3976,-4.3976,-4.3264,-4.2154,-4.2154,-4.2005,-4.1886,-4.2144,-4.2362,-4.2533,-4.2757,-4.3485,-4.4289,-4.4074,-4.3876,-4.3661,-4.3371,-4.3299,-4.3244,-4.2973,-4.3031,-4.316,-4.3178,-4.3322,-4.3446,-4.3497,-4.3497,-4.3497,-4.3497,-4.3497,-4.3497,-4.3497,-4.3057,-4.2103,-4.0249,-4.0799,-4.1103,-3.993,-4.0306,-4.0766,-4.094,-4.0437,-3.9973,-3.9674,-3.9871,-3.9929,-3.9665,-3.9239,-3.9126,-3.9431,-3.8094,-3.7426,-3.7693,-3.6375,-3.5668,-3.5668,-3.3704,-3.1718,-2.9732,0.0,0.0,0.0,0.0,0.0,0.0,0.0,0.0,0.0,0.0,0.0,0.0,0.0,0.0,0.0,0.0,0.0,0.0,0.0,0.0,0.0,0.0,0.0,-2.9191,-3.2115,-3.4668,-3.595,-3.7634,-3.8653,-3.8597,-4.0048,-4.1285,-4.2009,-4.2802,-4.3611,-4.4285,-4.4337,-4.5061,-4.6596,-4.6229,-4.6686,-4.8133,-4.7669,-4.7962,-4.9084,-4.8433,-4.8386,-4.8731,-4.7478,-4.6924,-4.6858,-4.6129,-4.5417,-4.4721,-4.4721,-4.4307,-4.3661,-4.3628,-4.3223,-4.2748,-4.2952,-4.2668,-4.221,-4.2407,-4.3062,-4.3851,-4.3898,-4.4528,-4.5146,-4.4367,-4.4132,-4.3969,-4.3154,-4.3086,-4.3233,-4.3214,-4.3358,-4.3497,-4.3497,-4.3497,-4.3497,-4.3497,-4.3497,-4.3497,-4.3497,-4.3497,-4.324,-4.247,-4.2341,-4.2084,-4.1313,-4.141,0.0,-4.1574,-4.1827,-4.1668,-4.0841,-4.0986,-4.0802,-4.0027,-3.9395,-3.9374,-4.0177,-3.7884,-3.6852,-3.7636,-3.5343,-3.4082,-3.412,-3.3242,-3.2348,-3.1522,0.0,0.0,0.0,0.0,0.0,0.0,0.0,0.0,0.0,0.0,0.0,0.0,0.0,0.0,0.0,0.0,0.0,0.0,0.0,0.0,0.0,0.0,-3.2117,-3.24,-3.4833,-3.7094,-3.8504,-4.0065,-4.0899,-4.0557,-4.2241,-4.3322,-4.3201,-4.4199,-4.4889,-4.5096,-4.5648,-4.6424,-4.7389,-4.7795,-4.8495,-4.9475,-4.9358,-4.9384,-4.958,-4.9029,-4.8765,-4.8776,-4.8011,-4.7404,-4.6891,-4.6676,-4.6179,-4.5483,-4.5483,-4.5052,-4.434,-4.3827,-4.3495,-4.3372,-4.3681,-4.4062,-4.4543,-4.532,-4.5446,-4.5258,-4.5645,-4.5539,-4.5254,-4.5037,-4.4965,-4.4802,-4.3987,-4.3884,-4.3888,-4.3324,-4.3322,-4.3446,-4.3497,-4.3497,-4.3497,-4.3497,-4.3497,-4.3497,-4.3497,-4.3497,-4.3424,-4.3204,-4.3167,-4.3195,-4.3217,0.0,0.0,-4.2956,-4.2378,-4.1933,-4.194,-4.1992,-4.1715,-4.0843,-4.0271,-3.9508,0.0,-3.7215,-3.6604,-3.6833,-3.6184,-3.6088,-3.6661,-3.5248,-3.4388,0.0,0.0,0.0,0.0,0.0,0.0,0.0,0.0,0.0,0.0,0.0,0.0,0.0,0.0,0.0,0.0,0.0,0.0,0.0,0.0,0.0,0.0,-3.2395,-3.4846,-3.5605,-3.6978,-3.8423,-3.9808,-4.0844,-4.1478,-4.1523,-4.2853,-4.3793,-4.4045,-4.4705,-4.526,-4.5531,-4.6522,-4.7434,-4.8312,-4.9258,-5.0321,-5.1407,-5.0858,-5.0944,-5.1674,-5.0283,-4.9818,-5.0107,-4.9005,-4.8233,0.0,-4.7487,-4.6941,-4.6245,-4.6245,-4.5814,0.0,0.0,0.0,0.0,0.0,-4.4463,-4.5125,-4.5968,-4.6058,-4.5968,-4.6514,-4.6501,-4.625,-4.5906,-4.5798,-4.5635,-4.482,-4.4445,-4.4214,-4.3761,-4.3524,-4.3429,-4.3446,-4.3463,-4.3497,-4.3497,-4.3497,-4.3497,-4.3497,0.0,0.0,-4.3497,-4.3497,-4.3548,-4.3749,-4.3484,-4.3423,0.0,-4.3467,-4.3107,-4.308,-4.3064,-4.2721,-4.1884,-4.0882,0.0,0.0,0.0,-3.6852,-3.6528,0.0,0.0,0.0,0.0,0.0,0.0,0.0,0.0,0.0,-3.5747,-3.5976,0.0,0.0,0.0,0.0,0.0,0.0,0.0,0.0,0.0,0.0,0.0,0.0,0.0,0.0,0.0,0.0,-3.5081,-3.6951,-3.8354,-3.8503,-3.8907,-4.0103,-4.0574,-4.103,-4.1682,-4.2518,-4.3457,-4.449,-4.4665,-4.5055,-4.5818,0.0,0.0,0.0,0.0,-5.1804,-5.3311,-5.2021,-5.2265,-5.3923,-5.1536,-5.089,-5.1854,-5.0056,-4.9193,-4.9077,-4.8415,-4.7703,-4.7023,-4.7023,-4.6576,-4.5831,-4.5003,-4.4307,-4.3803,-4.4015,-4.4327,0.0,0.0,0.0,0.0,-4.6817,-4.7302,-4.7572,-4.6866,-4.6649,-4.6468,-4.5653,-4.5007,-4.4504,-4.4322,-4.3907,-4.3504,-4.3412,-4.3446,-4.3497,-4.3497,-4.3497,-4.3497,-4.3497,-4.3497,-4.3497,-4.3497,-4.3497,-4.3497,-4.3497,-4.3749,0.0,-4.4374,-4.4599,-4.4583,-4.4185,0.0,0.0,-4.3004,-4.1571,-4.0941,-4.1457,-3.9374,-3.7808,-3.7101,-3.7158,-3.7215,-3.7215,-3.8667,-3.9814,-4.0597,-4.2068,-4.2851,-4.2813,-3.8209,-3.7731,0.0,0.0,0.0,0.0,0.0,0.0,0.0,0.0,0.0,0.0,0.0,0.0,0.0,0.0,0.0,-3.4546,-3.6605,-3.8253,-3.8838,-3.8608,-3.875,-3.9662,-4.0836,-4.1472,-4.1246,-4.2798,-4.3764,-4.3588,-4.4449,-4.5371,-4.6066,-4.7497,0.0,-5.0305,-5.096,-5.1787,-5.2673,-5.1877,-5.1588,-5.1804,0.0,0.0,-5.056,-5.0191,-4.9674,-4.9094,-4.8961,-4.8481,-4.7785,-4.7785,-4.7355,-4.6543,-4.5202,-4.4803,-4.4816,-4.4332,-4.4558,-4.5214,-4.5749,-4.631,-4.6845,-4.7363,-4.7615,-4.7681,-4.7518,-4.7482,0.0,-4.6504,-4.616,-4.5784,-4.4613,-4.4234,-4.4072,-4.3541,-4.3446,-4.3497,-4.3497,-4.3497,-4.3497,-4.3497,-4.3497,-4.3497,-4.3497,-4.3497,-4.3497,-4.3497,-4.3548,-4.3777,-4.4327,-4.4457,-4.4638,-4.5006,-4.5048,-4.4704,-4.3845,-4.3482,-4.2775,-4.1571,-4.1036,-4.0692,-4.054,-4.1208,-4.159,-4.159,-4.1896,-4.2144,-4.2316,-4.2641,-4.3138,-4.373,-4.2087,-4.203,0.0,0.0,0.0,0.0,0.0,0.0,0.0,0.0,0.0,0.0,0.0,-3.0285,0.0,0.0,-3.4916,-3.6296,-3.7613,-3.8504,-3.8662,-3.8504,-3.873,-3.9719,-4.0601,-4.1181,-4.1341,-4.2518,-4.3471,-4.3833,-4.4743,-4.5777,-4.6855,-4.8192,-4.9374,-5.0224,-5.0775,-5.1223,-5.1577,-5.1091,-5.0986,-5.1155,-5.0173,-4.9796,-4.997,-4.9392,-4.8912,-4.8547,-4.8547,-4.8349,-4.8001,-4.8001,-4.7785,-4.7338,-4.6228,-4.569,-4.5628,-4.5638,-4.5687,-4.5872,-4.6794,-4.698,-4.6999,-4.7511,-4.7717,-4.7717,-4.7717,-4.7717,-4.7627,-4.721,-4.6812,-4.6323,-4.5606,-4.4885,-4.4252,-4.3926,-4.3633,-4.3446,-4.3446,-4.3463,-4.3497,-4.3497,-4.3497,-4.3497,-4.3497,-4.3497,-4.3497,-4.3497,-4.3649,-4.3905,-4.4327,-4.4519,-4.477,-4.5256,-4.5297,-4.5125,-4.4685,-4.4265,-4.3482,-4.2221,-4.2144,-4.2144,-4.2144,-4.2565,-4.2794,-4.2794,-4.3195,-4.3405,-4.3405,-4.3845,-4.4265,-4.4647,-4.4246,-4.4265,0.0,0.0,0.0,0.0,0.0,0.0,0.0,0.0,-3.0209,-3.1945,-3.2706,-3.3583,-3.5164,-3.5645,-3.631,-3.7777,-3.828,-3.8504,-3.8391,-3.8391,-3.8764,-3.9877,-4.0424,-4.0934,-4.1517,-4.2342,-4.3246,-4.4388,-4.5142,-4.6192,-4.7619,-4.8762,-4.9491,-4.9707,-5.0108,-5.0276,-5.0276,-4.9995,-5.0107,-5.0574,-4.9362,-4.8995,-4.9411,-4.845,-4.8001,-4.8001,-4.8001,-4.8001,-4.8001,-4.8001,-4.8001,-4.7934,-4.7355,-4.6915,-4.6625,-4.6903,-4.6867,-4.6773,-4.7802,-4.789,-4.7582,-4.7843,-4.7935,-4.7916,-4.7753,-4.7717,-4.7717,-4.7717,-4.7246,-4.6703,-4.654,-4.5642,-4.4722,-4.4558,-4.4053,-4.3578,-4.3578,-4.3503,-4.3444,-4.3444,-4.3463,-4.3463,-4.3463,-4.3463,-4.3497,-4.3497,-4.3781,-4.4109,-4.4374,-4.4624,-4.4934,-4.5256,-4.5297,-4.5297,-4.5297,-4.4666,-4.3978,-4.3329,-4.3291,-4.3291,-4.3291,-4.3291,-4.3291,-4.3291,-4.3921,-4.4265,-4.4265,-4.4953,-4.5297,-4.5297,-4.5297,-4.5297,-2.3538,-2.4294,-2.5431,-2.8178,-2.8506,-2.9558,0.0,0.0,-3.5076,-3.7266,-3.753,-3.7452,-3.8003,-3.8137,-3.8197,-3.83,-3.8662,-3.8821,-3.8448,-3.8391,-3.8667,-3.9437,-4.0702,-4.1484,-4.1565,-4.2796,-4.3881,-4.4675,-4.5356,-4.6394,-4.7869,-4.8654,-4.9076,-4.9086,-4.8997,-4.8925,-4.8925,-4.8398,-4.8294,-4.855,-4.8049,-4.7968,-4.8179,-4.8049,-4.8001,-4.8001,-4.8001,-4.8001,-4.8001,-4.8001,-4.8001,-4.7984,-4.7918,-4.8155,-4.8433,-4.6925,-4.7136,-4.8172,-4.8326,-4.8954,-4.9647,-4.896,-4.8786,-4.8641,-4.7935,-4.7717,-4.7717,-4.7717,-4.7645,-4.7409,-4.6703,-4.6477,-4.6248,-4.5521,-4.4798,-4.429,-4.429,-4.3707,-4.3232,-4.3232,-4.334,-4.3429,-4.3429,-4.3429,-4.3446,-4.3497,-4.3781,-4.4109,-4.4374,-4.4624,-4.4934,-4.5256,-4.5297,-4.5297,-4.5297,-4.5201,-4.5125,-4.5029,-4.501,-4.501,-4.501,-4.501,-4.501,-4.501,-4.5105,-4.5144,-4.5144,-4.5239,-4.5297,-4.5297,-4.5297,-4.5297,-2.8205,-2.8925,0.0,0.0,-3.2938,-3.4231,-3.6318,-3.6991,-3.7428,-3.8367,-3.8753,-3.8858,-3.8513,-3.8454,-3.8406,0.0,-3.8902,-3.9381,-3.9615,-3.9282,-3.9444,-4.0561,-4.1209,-4.1565,-4.1565,-4.2488,-4.3719,-4.5257,-4.5646,-4.6617,-4.8495,-4.8495,-4.8431,-4.8431,-4.7911,-4.7642,-4.7642,-4.8231,-4.8679,-4.894,-4.9293,-4.9342,-4.915,-4.8811,-4.8415,-4.8001,-4.8001,-4.8001,-4.8001,-4.8001,-4.8001,-4.8001,-4.8001,-4.8467,-4.9137,-4.8692,-4.8913,-4.9409,-4.9924,-5.0099,-5.0035,-4.9709,-4.9601,-4.9456,-4.8641,-4.8405,-4.8315,-4.7844,-4.7717,-4.7627,-4.7301,-4.6907,-4.6513,-4.6168,-4.5558,-4.4926,-4.4452,-4.4126,-4.378,-4.3306,-4.3251,-4.3286,-4.3286,-4.3286,-4.3286,-4.3304,-4.3809,-4.4221,-4.4318,-4.477,-4.5132,-4.5297,-4.5297,-4.5297,-4.5297,-4.5297,-4.5297,-4.5297,-4.5297,-4.5297,-4.5297,-4.5297,-4.5297,-4.5297,-4.5297,-4.5297,-4.5297,-4.5297,-4.5297,-4.5297,-4.5297,-4.5545,-3.0949,0.0,0.0,-3.4266,-3.6249,-3.7698,-3.7318,-3.8178,-3.9046,-3.8991,-3.9259,-3.9259,-3.8655,-3.8448,0.0,-3.8391,-3.9007,-3.9654,-4.014,-3.9859,-3.9907,-4.0929,-4.1102,-4.1244,-4.1439,-4.234,-4.3816,-4.5937,-4.5905,-4.6747,-4.8916,-4.8382,-4.7912,-4.7702,-4.7168,-4.6989,-4.72,-4.8292,-4.911,-4.9526,-5.0243,-5.0409,-5.0034,-4.936,-4.8812,-4.8299,-4.81,-4.8001,-4.8001,-4.8001,-4.8001,-4.8001,-4.8001,-4.853,-4.9325,-4.9804,-5.0185,-5.0513,-5.1137,-5.1122,-5.0723,-5.0488,-5.0416,-5.0271,-4.9474,-4.9094,-4.8786,-4.8206,-4.788,-4.7717,-4.7717,-4.7283,-4.683,-4.683,-4.6273,-4.5609,-4.5028,-4.4595,-4.4161,-4.3579,-4.3287,-4.3178,-4.3178,-4.3178,-4.3178,-4.3178,-4.3726,-4.4173,-4.4289,-4.4881,-4.5297,-4.5297,-4.5297,-4.5297,-4.5297,-4.5297,-4.5297,-4.5297,-4.5297,-4.5297,-4.5297,-4.5297,-4.5297,-4.5297,-4.5297,-4.5297,-4.5297,-4.5297,-4.5411,-4.5621,-4.5621,-4.6061,0.0,0.0,-3.3404,-3.568,-3.7404,-3.8732,-3.9439,-3.9932,-4.0237,-4.0254,-3.9592,-3.9023,-3.8969,-3.8655,-3.8391,-3.8391,-3.9007,-3.9493,-3.9509,-3.9608,-3.9723,-3.9772,-3.9854,-4.023,0.0,-4.2626,-4.4561,-4.6698,-4.6196,-4.6747,-4.8916,-4.8382,-4.767,-4.6941,-4.6892,-4.7232,-4.7977,-4.8311,-4.8862,-4.9637,-5.005,-5.0204,-5.0154,-4.9425,-4.9094,-4.9028,-4.8315,-4.8001,-4.8001,-4.8001,-4.8001,-4.8001,-4.8001,-4.8386,-4.8961,-4.9282,-5.0331,-5.1583,-5.1583,-5.1946,-5.2299,-5.1502,-5.1249,-5.1104,-5.0289,-4.9528,-4.8912,-4.8894,-4.8315,-4.7717,-4.7717,-4.7681,-4.7663,-4.7663,-4.7047,-4.6468,-4.6432,-4.52,-4.4095,-4.4059,-4.3538,-4.3104,-4.3104,-4.3104,-4.3104,-4.3104,-4.3461,-4.3868,-4.426,-4.4881,-4.5297,-4.5297,-4.5297,-4.5297,-4.5297,-4.5297,-4.5297,-4.5297,-4.5297,-4.5297,-4.5297,-4.5297,-4.5297,-4.5297,-4.5297,-4.5297,-4.5297,-4.5297,-4.5698,-4.6462,-4.6462,-4.694,0.0,0.0,-3.637,-3.8112,-3.9336,-4.0134,-4.0089,-4.0199,-4.0138,-3.9556,-3.8825,-3.8175,-3.7938,-3.779,-3.7679,-3.7679,-3.9202,-4.0528,-4.0983,-4.1183,-4.1465,-4.1923,-4.1622,0.0,0.0,0.0,0.0,-4.622,-4.6021,-4.6552,-4.8269,-4.7653,-4.7448,-4.7814,-4.7691,-4.8102,-4.9029,-4.9643,-5.0145,-5.0516,-5.083,-5.0916,-5.0883,-5.0171,-4.9574,-4.9094,-4.8845,-4.8465,-4.8001,-4.845,-4.8623,-4.8606,-4.9023,-4.9646,-5.0349,-5.0532,-5.1192,-5.2018,-5.1719,-5.2,-5.2462,-5.2172,-5.21,-5.1937,-5.1122,-5.0705,-5.0271,-4.9202,-4.8731,-4.8387,-4.7844,-4.7717,-4.7717,-4.7717,-4.75,-4.7156,-4.6631,-4.6069,-4.5526,-4.5001,-4.4297,-4.3754,-4.3754,-4.33,-4.2994,-4.3104,-4.356,-4.4076,-4.4572,-4.4976,-4.5235,-4.5297,-4.5297,-4.5297,-4.5297,-4.5297,-4.5297,-4.5297,-4.5297,-4.5297,-4.5297,-4.5297,-4.5297,-4.5297,-4.5297,-4.5564,-4.6099,-4.6099,-4.6538,-4.736,-4.736,-4.7837,-3.6299,-3.7415,-3.7905,-3.9681,-4.0414,-4.0648,-4.0355,-4.0037,-3.951,-3.8454,-3.7551,-3.6803,-3.6259,-3.5979,-3.606,-3.6837,-3.861,-4.03,-4.132,-4.1782,-4.2327,-4.3092,-4.2857,0.0,0.0,0.0,0.0,-4.6126,-4.6336,-4.6936,-4.8139,-4.7733,-4.7753,-4.838,-4.8518,-4.9061,-4.9976,-5.0523,-5.1026,-5.1503,-5.1661,-5.1661,-5.1645,-5.0916,-5.0187,-4.9491,-4.9226,-4.868,-4.8001,-4.845,-4.856,-4.8606,-4.9231,-4.9821,-5.0293,-5.075,-5.1314,-5.192,-5.1902,-5.2162,-5.2498,-5.2498,-5.2498,-5.2389,-5.1882,-5.152,-5.1067,-5.0053,-4.9347,-4.8786,-4.8279,-4.7935,-4.7717,-4.7717,-4.7717,-4.7572,-4.7047,-4.6703,-4.6359,-4.5834,-4.5073,-4.453,-4.453,-4.386,-4.3302,-4.3287,-4.3675,-4.4106,-4.4519,-4.4929,-4.5192,-4.5275,-4.5256,-4.5256,-4.5297,-4.5297,-4.5297,-4.5297,-4.5297,-4.5297,-4.5297,-4.5583,-4.5736,-4.5736,-4.6023,-4.6443,-4.6959,-4.6959,-4.7417,-4.8258,-4.8258,-4.8716,-3.7562,-3.7937,-3.818,-4.0336,-4.0583,-4.0288,-4.0288,-3.9542,-3.8513,-3.7096,-3.5869,-3.4797,0.0,0.0,-3.3809,-3.5866,-3.7501,-3.9105,-4.0603,-4.1629,-4.2485,0.0,0.0,0.0,0.0,0.0,0.0,-4.6454,0.0,-4.7781,-4.8453,-4.8502,-4.8535,-4.8617,-4.9288,-5.0009,-5.0818,-5.0944,-5.152,-5.2373,-5.2373,-5.2373,-5.2357,-5.1661,-5.0932,-5.0237,-4.9525,-4.8779,-4.8067,-4.8116,-4.8099,-4.8115,-4.8731,-4.9006,-4.9067,-4.9993,-5.0696,-5.1314,-5.218,-5.2498,-5.2498,-5.2498,-5.2498,-5.2498,-5.2498,-5.1973,-5.1339,-5.1303,-5.018,-4.8967,-4.8931,-4.8315,-4.7717,-4.7717,-4.7717,-4.7717,-4.7717,-4.7102,-4.6558,-4.6558,-4.5906,-4.5345,-4.5309,-4.4621,-4.4014,-4.3695,-4.3791,-4.3992,-4.4192,-4.4732,-4.5125,-4.5192,-4.5192,-4.5213,-4.5297,-4.5297,-4.5297,-4.5297,-4.5335,-4.5354,-4.5354,-4.6137,-4.6577,-4.6577,-4.7379,-4.7818,-4.7876,-4.7876,-4.8315,-4.9156,-4.9156,-4.9576,-3.8596,-3.9469,-4.0146,-4.0733,-4.0583,-4.0188,-3.9833,-3.8585,-3.7094,-3.5883,-3.4136,-3.2595,0.0,0.0,0.0,-3.4722,-3.8014,0.0,-4.1033,-4.3284,0.0,0.0,0.0,-4.5997,-4.5814,-4.6893,0.0,0.0,-4.7193,-4.7781,-4.8453,-4.8502,-4.9063,-5.0303,-5.0375,-5.0906,-5.1949,-5.2021,-5.2191,-5.2373,-5.2373,-5.2373,-5.2373,-5.2191,-5.1694,-5.0999,-5.08,-5.0005,-4.8879,-4.9808,-4.9576,-4.8793,-4.9913,-5.0011,-4.9688,-5.0624,-5.1087,-5.1314,-5.218,-5.2498,-5.2498,-5.2498,-5.2498,-5.2498,-5.2498,-5.2353,-5.2063,-5.1466,-5.056,-4.9655,-4.9075,-4.8315,-4.7717,-4.7717,-4.7717,-4.7717,-4.7717,-4.7554,-4.7391,-4.7391,-4.6739,-4.5997,-4.5399,-4.4621,-4.4158,-4.4325,-4.4077,-4.4053,-4.4513,-4.4846,-4.5057,-4.5125,-4.5125,-4.5148,-4.5213,-4.5233,-4.5254,-4.5297,-4.5851,-4.6194,-4.6194,-4.7016,-4.7474,-4.7474,-4.7704,-4.8124,-4.8774,-4.8774,-4.9194,-4.9996,-4.9996,-5.0092,-3.9972,-4.0655,-4.0948,-4.068,-4.032,-3.9632,-3.8236,-3.6999,-3.5509,-3.3356,-3.1656,0.0,0.0,0.0,0.0,0.0,0.0,0.0,-4.1,-4.3558,-4.5222,0.0,-4.6775,0.0,-4.7289,-4.8001,-4.8315,0.0,-4.8051,-4.8396,-4.8707,-4.9036,-4.9813,-5.1074,-5.1366,-5.1729,-5.2373,-5.2373,-5.2373,-5.2373,-5.2373,-5.2373,-5.2373,-5.2373,-5.2171,-5.1713,0.0,-5.1229,-5.0524,-5.1158,-5.1021,-5.0429,-5.105,-5.1039,-5.0802,-5.1334,-5.1503,-5.1604,-5.2198,-5.2405,-5.2405,-5.2498,-5.2498,-5.2498,-5.2498,-5.2498,-5.2408,-5.1937,-5.1249,-5.0434,-4.9637,-4.884,-4.8152,-4.779,-4.7717,-4.7717,-4.7717,-4.7717,-4.7717,-4.7717,-4.7355,-4.6776,-4.5979,-4.5454,-4.5197,-4.5365,-4.5175,-4.5195,-4.5814,-4.5325,-4.4967,-4.5057,-4.5057,-4.5103,-4.5192,-4.5554,-4.5786,-4.5812,-4.6615,-4.7073,-4.7073,-4.7914,-4.8372,-4.8372,-4.8716,-4.9137,-4.9633,-4.9633,-4.9862,-5.0302,-5.0302,-5.0302,-4.1279,-4.1408,-4.1071,-4.0436,-3.9885,-3.8805,-3.6373,-3.5166,-3.368,-3.0453,0.0,0.0,-2.7543,0.0,-2.9913,-3.2718,0.0,-3.7781,-4.0769,-4.33,-4.5127,-4.5864,-4.7901,-4.9226,-4.9127,-4.911,-4.9061,-4.8961,-4.9144,-4.926,-4.926,-4.9856,-5.0585,-5.1396,-5.2042,-5.2373,-5.2373,-5.2373,-5.2373,-5.2373,-5.2373,-5.2373,-5.2373,-5.2373,-5.2344,-5.2286,0.0,0.0,-5.2252,-5.2313,-5.2304,-5.2208,-5.2088,-5.1924,-5.1803,-5.1894,-5.1879,-5.184,-5.2168,-5.2311,-5.2311,-5.2452,-5.2498,-5.2498,-5.2498,-5.2498,-5.2498,-5.2498,-5.1919,-5.1104,-5.0289,-4.9492,-4.8713,-4.7898,-4.7717,-4.7717,-4.7717,-4.7717,-4.7717,-4.7717,-4.7717,-4.7482,-4.6794,-4.6576,-4.6512,-4.6527,-4.6475,-4.6657,-4.7299,-4.6127,-4.5261,-4.5309,-4.5333,-4.538,-4.5513,-4.6221,-4.6663,-4.6672,-4.7494,-4.7971,-4.7971,-4.8793,-4.9251,-4.9251,-4.9939,-5.0302,-5.0302,-5.0302,-5.0302,-5.0302,-5.0302,-5.0302,-4.1561,-4.1408,-4.1071,-4.0436,-3.9514,-3.8271,-3.6257,-3.3631,0.0,0.0,0.0,-2.6134,-2.6005,-2.7648,0.0,-3.2154,0.0,0.0,0.0,0.0,-4.656,0.0,0.0,0.0,0.0,0.0,0.0,0.0,0.0,0.0,-5.0021,-5.0154,-5.0817,-5.2142,-5.2307,-5.2373,-5.2373,-5.2373,-5.2373,-5.2373,-5.2373,-5.2373,-5.2373,-5.2373,-5.2378,-5.237,0.0,0.0,-5.2306,-5.2798,-5.2666,-5.226,-5.2722,-5.2171,-5.1234,-5.1825,-5.1688,-5.128,-5.2036,-5.2311,-5.2311,-5.2452,-5.2498,-5.2498,-5.2498,-5.2498,-5.2498,-5.2498,-5.1919,-5.1104,-5.0289,-4.9492,-4.8713,-4.7898,-4.7717,-4.7717,-4.7717,-4.7717,-4.7717,-4.7717,-4.7717,-4.7663,-4.7518,-4.6939,-4.6694,-4.7286,-4.6828,-4.6657,-4.7299,-4.715,-4.6961,-4.6986,-4.6986,-4.7036,-4.7158,-4.7334,-4.7476,-4.7567,-4.8391,-4.8869,-4.8869,-4.9652,-5.0092,-5.0092,-5.0225,-5.0302,-5.0302,-5.0302,-5.0302,-5.0302,-5.0302,-5.0302,-4.1805,-4.148,-4.1053,-4.0385,-3.9345,-3.7669,-3.461,0.0,0.0,0.0,0.0,-2.5146,-2.5577,0.0,0.0,0.0,0.0,0.0,0.0,0.0,0.0,0.0,0.0,0.0,0.0,0.0,0.0,0.0,0.0,0.0,0.0,-5.0932,-5.1661,-5.2357,-5.2373,-5.2373,-5.2373,-5.2373,-5.2373,-5.2373,-5.2373,-5.2373,-5.2373,-5.2373,-5.257,-5.2956,0.0,0.0,-5.346,-5.4087,-5.4182,-5.3858,-5.4123,-5.379,-5.3127,-5.2661,-5.2324,-5.2123,-5.2179,-5.2264,-5.2311,-5.2452,-5.2498,-5.2498,-5.2498,-5.2498,-5.2498,-5.2498,-5.2208,-5.1737,-5.0923,-5.0126,-4.9329,-4.8532,-4.8007,-4.7717,-4.7717,-4.7717,-4.7717,-4.7717,-4.7717,-4.7717,-4.7717,-4.7391,-4.7368,-4.8101,-4.7906,-4.7909,-4.8605,-4.8685,-4.8363,-4.7491,-4.7422,-4.7498,-4.7596,-4.8038,-4.8376,-4.8468,-4.9251,-4.971,-4.971,-5.0092,-5.0302,-5.0302,-5.0302,-5.0302,-5.0302,-5.0302,-5.0302,-5.0302,-5.0302,-5.055,-4.1924,-4.1569,-4.1053,-4.0383,-3.9143,-3.712,-3.3137,-3.1001,0.0,0.0,-2.509,-2.4818,-2.5607,0.0,0.0,0.0,0.0,0.0,0.0,0.0,0.0,0.0,0.0,0.0,0.0,0.0,0.0,0.0,0.0,0.0,0.0,-5.1661,-5.2373,-5.2373,-5.2373,-5.2373,-5.2373,-5.2373,-5.2373,-5.2373,-5.2373,-5.2373,-5.2373,-5.2373,-5.2694,-5.3213,0.0,0.0,0.0,-5.4887,-5.5266,-5.5391,-5.5451,-5.5348,-5.5045,-5.3635,-5.3131,-5.2982,-5.2323,-5.2198,-5.2311,-5.2452,-5.2498,-5.2498,-5.2498,-5.2498,-5.2498,-5.2498,-5.2498,-5.2299,-5.1502,-5.0814,-5.0108,-4.9148,-4.8297,-4.7717,-4.7717,-4.7717,-4.7717,-4.7717,-4.7717,-4.7717,-4.7717,-4.7717,-4.7951,-4.8676,-4.8816,-4.9085,-4.9824,-4.9898,-4.9386,-4.8079,-4.7979,-4.8055,-4.8147,-4.8805,-4.9277,-4.9347,-4.9939,-5.0302,-5.0302,-5.0302,-5.0302,-5.0302,-5.0302,-5.0302,-5.0302,-5.0302,-5.0302,-5.0302,-5.0302,-5.0779,-4.1764,-4.1569,-4.1053,-4.0383,-3.8806,-3.6538,-3.3132,0.0,0.0,-2.6318,-2.5272,-2.4977,-2.575,-2.5995,0.0,0.0,0.0,0.0,0.0,0.0,0.0,0.0,0.0,0.0,0.0,0.0,0.0,0.0,0.0,0.0,0.0,-5.1943,-5.2373,-5.2373,-5.2373,-5.2373,-5.2373,-5.2373,-5.2373,-5.2373,-5.2373,-5.2373,-5.2373,-5.2373,-5.2445,-5.2516,0.0,0.0,0.0,-5.42,-5.4826,-5.5443,-5.6073,-5.5847,-5.5098,-5.4242,-5.3544,-5.2982,-5.2323,-5.2198,-5.2311,-5.2452,-5.2498,-5.2498,-5.2498,-5.2498,-5.2498,-5.2498,-5.2498,-5.2299,-5.1502,-5.1249,-5.0796,-4.9275,-4.8297,-4.7717,-4.7717,-4.7717,-4.7717,-4.7717,-4.7717,-4.7717,-4.7717,-4.7717,-4.7951,-4.8676,-4.8816,-4.9085,-4.9824,-4.9898,-4.9822,-4.969,-4.9698,-4.9732,-4.9854,-4.9955,-5.0043,-5.0187,-5.0264,-5.0302,-5.0302,-5.0302,-5.0302,-5.0302,-5.0302,-5.0302,-5.0302,-5.0302,-5.0302,-5.0302,-5.0302,-5.0779,-4.0704,-4.0979,-4.0802,-4.0252,-3.8623,-3.6373,-3.3225,0.0,-2.8566,-2.6377,-2.5307,-2.5064,-2.5822,-2.5954,-2.6648,0.0,0.0,0.0,0.0,0.0,0.0,0.0,0.0,0.0,0.0,0.0,0.0,0.0,0.0,0.0,0.0,0.0,-5.2373,-5.2373,-5.2373,-5.2373,-5.2373,-5.2373,-5.2373,-5.2373,-5.2373,-5.2373,-5.2373,-5.2373,-5.2373,0.0,0.0,0.0,0.0,-5.4136,-5.4765,-5.5461,-5.6144,-5.6204,-5.583,-5.5027,-5.4346,-5.3781,-5.3091,-5.266,-5.2452,-5.2498,-5.2498,-5.2498,-5.2498,-5.2498,-5.2498,-5.2498,-5.2498,-5.2426,-5.21,-5.1285,-5.0289,-4.9184,-4.8297,-4.7717,-4.7717,-4.7717,-4.7717,-4.7717,-4.7717,-4.7717,-4.7717,-4.7717,-4.7888,-4.8421,-4.8694,-4.8986,-4.9518,-4.9769,-4.9898,-4.9898,-4.9978,-5.0057,-5.0108,-5.0182,-5.0255,-5.0302,-5.0302,-5.0302,-5.0302,-5.0302,-5.0302,-5.0302,-5.0302,-5.0302,-5.0302,-5.0302,-5.0302,-5.0302,-5.0837,-5.1525,-3.9371,-4.0054,-4.0172,-3.9764,-3.8204,-3.6009,0.0,0.0,-2.8685,-2.6451,-2.556,-2.5398,-2.5928,-2.6244,-2.6825,0.0,0.0,0.0,0.0,0.0,0.0,0.0,0.0,0.0,0.0,0.0,0.0,0.0,0.0,0.0,0.0,0.0,-5.2373,-5.2373,-5.2373,-5.2373,-5.2373,-5.2373,-5.2373,-5.2373,-5.2373,-5.2373,-5.2373,-5.2373,-5.2373,0.0,0.0,0.0,0.0,-5.4328,-5.4948,-5.5461,-5.6144,-5.6401,-5.6294,-5.5544,-5.4916,-5.4281,-5.3608,-5.2961,-5.2498,-5.2498,-5.2498,-5.2498,-5.2498,-5.2498,-5.2498,-5.2498,-5.2498,-5.2498,-5.2498,-5.1466,-5.0307,-4.9745,-4.8822,-4.8061,-4.8061,-4.788,-4.7717,-4.7717,-4.7717,-4.7717,-4.7717,-4.7717,-4.7847,-4.8364,-4.8658,-4.8986,-4.9488,-4.9741,-4.9898,-4.9898,-5.0005,-5.0082,-5.0108,-5.0207,-5.0278,-5.0302,-5.0302,-5.0302,-5.0302,-5.0302,-5.0302,-5.0302,-5.0302,-5.0302,-5.0302,-5.0302,-5.0436,-5.0703,-5.1314,-5.2174,-3.7845,-3.8785,-3.8935,-3.8935,-3.7434,-3.5247,0.0,-3.0435,-2.8804,-2.6651,-2.6203,-2.6203,-2.622,-2.6783,-2.7549,-2.8296,0.0,0.0,0.0,0.0,0.0,0.0,0.0,0.0,0.0,0.0,0.0,0.0,0.0,0.0,0.0,0.0,-5.2373,-5.2373,-5.2373,-5.2373,-5.2373,-5.2373,-5.2373,-5.2373,-5.2373,-5.2373,-5.2373,-5.2373,0.0,0.0,0.0,0.0,0.0,-5.4826,-5.5385,-5.5461,-5.6144,-5.6401,-5.6294,-5.5651,-5.495,-5.4331,-5.3706,-5.3056,-5.2498,-5.2498,-5.2498,-5.2498,-5.2498,-5.2498,-5.2498,-5.2498,-5.2498,-5.2498,-5.2498,-5.19,-5.1285,-5.1267,-5.0053,-4.8894,-4.8894,-4.8279,-4.7717,-4.7717,-4.7717,-4.7717,-4.7717,-4.7717,-4.7951,-4.8676,-4.8816,-4.9085,-4.9797,-4.9898,-4.9898,-4.9898,-4.9978,-5.0031,-5.0108,-5.0163,-5.0231,-5.0302,-5.0302,-5.0302,-5.0302,-5.0302,-5.0302,-5.0302,-5.0302,-5.0302,-5.0302,-5.0302,-5.0741,-5.1601,-5.1601,-5.2499,-3.3789,-3.5129,-3.574,-3.4873,-3.4193,-3.3094,-3.0659,-2.9748,-2.8804,-2.6651,-2.622,-2.622,-2.622,-2.6402,-2.7263,-2.9483,-3.0228,0.0,0.0,0.0,0.0,0.0,0.0,0.0,0.0,0.0,0.0,0.0,0.0,0.0,0.0,0.0,0.0,-5.2373,-5.2373,-5.2373,-5.2373,-5.2373,-5.2373,-5.2373,-5.2373,-5.2373,-5.2373,0.0,0.0,0.0,0.0,0.0,0.0,-5.5026,-5.5653,-5.6088,-5.6328,-5.6401,-5.6365,-5.626,-5.5434,-5.4403,-5.4301,-5.349,-5.2498,-5.2498,-5.2498,-5.2498,-5.2498,-5.2498,-5.2498,-5.2498,-5.2498,-5.2498,-5.2498,-5.19,-5.1285,-5.1285,-5.0071,-4.8912,-4.8912,-4.8279,-4.7717,-4.7717,-4.7717,-4.7717,-4.7717,-4.7717,-4.7783,-4.8014,-4.8269,-4.8623,-4.9085,-4.9377,-4.9655,-4.9898,-4.9978,-5.0031,-5.0108,-5.0163,-5.0231,-5.0302,-5.0302,-5.0302,-5.0302,-5.0302,-5.0302,-5.0302,-5.0302,-5.0302,-5.0302,-5.0913,-5.1926,-5.332,-5.332,-5.3913,0.0,-3.2286,-3.3285,-3.2486,-3.2083,-3.1371,-2.9466,-2.8804,-2.8158,-2.6535,-2.622,-2.622,-2.622,-2.6651,-2.7628,-2.9417,-3.041,0.0,0.0,0.0,0.0,0.0,0.0,0.0,0.0,0.0,0.0,0.0,0.0,0.0,0.0,0.0,0.0,-5.2373,-5.2373,-5.2373,-5.2373,-5.2373,-5.2373,-5.2373,-5.2373,-5.2373,-5.2373,0.0,0.0,0.0,0.0,0.0,0.0,-5.5519,-5.6014,-5.6401,-5.6401,-5.6437,-5.6492,-5.6653,-5.5754,-5.4489,-5.4657,-5.3725,-5.2498,-5.2498,-5.2498,-5.2498,-5.2498,-5.2498,-5.2498,-5.2498,-5.2498,-5.2498,-5.2498,-5.2118,-5.1737,-5.1737,-5.076,-4.9727,-4.942,-4.8731,-4.8079,-4.7772,-4.7717,-4.7717,-4.7717,-4.7717,-4.7741,-4.7888,-4.8249,-4.8641,-4.8971,-4.9346,-4.9683,-4.9898,-4.9952,-5.0005,-5.0057,-5.0158,-5.0231,-5.0255,-5.0278,-5.0302,-5.0302,-5.0302,-5.0302,-5.0302,-5.0302,-5.0455,-5.0799,-5.1983,-5.3091,-5.4104,-5.4448,-5.4887,0.0,-3.0029,-3.1113,-3.1113,-3.0634,-2.9864,-2.8522,-2.7765,0.0,-2.6352,-2.622,-2.6236,-2.6352,-2.7429,-2.8445,-2.8704,-3.046,0.0,0.0,0.0,0.0,0.0,0.0,0.0,0.0,0.0,0.0,0.0,0.0,0.0,0.0,0.0,0.0,0.0,-5.2373,-5.2373,-5.2373,-5.2373,-5.2373,-5.2373,-5.2373,-5.2373,-5.2373,0.0,0.0,0.0,0.0,0.0,0.0,-5.6144,-5.6401,-5.6401,-5.6401,-5.6492,-5.66,-5.6742,-5.589,-5.4639,-5.484,-5.3856,-5.2498,-5.2498,-5.2498,-5.2498,-5.2498,-5.2498,-5.2498,-5.2498,-5.2498,-5.2498,-5.2498,-5.2498,-5.2498,-5.2498,-5.1882,-5.1086,-5.0343,-4.951,-4.8695,-4.7935,-4.7753,-4.7717,-4.7717,-4.7717,-4.7824,-4.819,-4.8569,-4.8903,-4.9302,-4.9636,-4.9852,-4.9898,-4.9898,-4.9925,-5.0005,-5.0114,-5.0188,-5.0188,-5.0255,-5.0302,-5.0302,-5.0302,-5.0302,-5.0302,-5.0359,-5.0818,-5.1697,-5.332,-5.4123,-5.4218,-5.5021,-5.5403,-2.4199,0.0,-2.6634,-2.6634,-2.6932,-2.7131,0.0,-2.7015,-2.7081,-2.6352,0.0,-2.6551,-2.7661,-2.7732,-2.8661,0.0,0.0,0.0,0.0,0.0,0.0,0.0,0.0,0.0,0.0,0.0,0.0,0.0,0.0,0.0,0.0,0.0,0.0,0.0,-5.2373,-5.2373,-5.2373,-5.2373,-5.2373,-5.2373,-5.2373,-5.2373,0.0,0.0,0.0,0.0,0.0,0.0,0.0,-5.6144,-5.6401,-5.6401,-5.6492,-5.66,-5.6653,-5.6847,-5.5941,-5.4639,-5.484,-5.3856,-5.2498,-5.2498,-5.2498,-5.2498,-5.2498,-5.2498,-5.2498,-5.2498,-5.2498,-5.2498,-5.2498,-5.2498,-5.2498,-5.2498,-5.1882,-5.1249,-5.1049,-4.9908,-4.8858,-4.8659,-4.8134,-4.7717,-4.7717,-4.7717,-4.7741,-4.7824,-4.819,-4.8532,-4.8903,-4.9283,-4.9625,-4.9852,-4.9898,-4.9925,-4.9906,-5.0005,-5.0089,-5.0188,-5.0212,-5.0255,-5.0302,-5.0302,-5.0302,-5.0302,-5.0951,-5.1697,-5.2518,-5.3588,-5.4448,-5.5097,-5.5307,-5.5403,-2.2394,-2.4199,-2.6104,-2.6104,-2.6651,-2.7214,-2.7214,0.0,0.0,0.0,0.0,0.0,0.0,0.0,0.0,0.0,0.0,0.0,0.0,0.0,0.0,0.0,0.0,0.0,0.0,0.0,0.0,0.0,0.0,0.0,0.0,0.0,0.0,0.0,0.0,-5.2042,-5.2373,-5.2373,-5.2373,-5.2373,-5.2373,-5.257,0.0,0.0,0.0,0.0,0.0,0.0,-5.5883,-5.631,-5.6492,-5.6492,-5.6653,-5.6742,-5.6794,-5.6951,-5.6061,-5.4773,-5.484,-5.3856,-5.2498,-5.2498,-5.2498,-5.2498,-5.2498,-5.2498,-5.2498,-5.2498,-5.2498,-5.2498,-5.2498,-5.2498,-5.2498,-5.2498,-5.2172,-5.1737,-5.1375,-5.0325,-4.9347,-4.8985,-4.8261,-4.7717,-4.7717,-4.7717,-4.7717,-4.7717,-4.805,-4.8439,-4.8746,-4.9155,-4.9537,-4.9852,-4.9898,-4.9898,-4.9898,-4.9978,-5.0038,-5.0158,-5.0163,-5.0231,-5.0302,-5.0302,-5.0493,-5.0894,-5.1716,-5.2556,-5.3397,-5.4276,-5.4944,-5.5403,-5.5403,-5.5403,-2.2062,-2.4729,-2.74,-2.7068,-2.7699,-2.8412,-2.8412,0.0,0.0,0.0,0.0,0.0,0.0,0.0,0.0,0.0,0.0,0.0,0.0,0.0,0.0,0.0,0.0,0.0,0.0,0.0,0.0,0.0,0.0,0.0,0.0,0.0,0.0,0.0,0.0,0.0,-5.2042,-5.2274,-5.2373,-5.2373,-5.2373,-5.2764,-5.3382,0.0,0.0,0.0,0.0,0.0,-5.6455,-5.6546,-5.66,-5.6635,-5.6794,-5.6809,-5.6822,-5.6873,-5.5948,-5.4707,-5.4581,-5.3639,-5.2498,-5.2498,-5.2498,-5.2498,-5.2498,-5.2498,-5.2498,-5.2498,-5.2498,-5.2498,-5.2498,-5.2498,-5.2498,-5.2498,-5.2498,-5.2299,-5.1629,-5.0832,-5.0035,-4.9257,-4.8442,-4.7844,-4.7735,-4.7717,-4.7717,-4.7717,-4.8072,-4.8458,-4.8746,-4.922,-4.9596,-4.9852,-4.9898,-4.9898,-4.9898,-4.9978,-5.0031,-5.0108,-5.0163,-5.0231,-5.0302,-5.0436,-5.0856,-5.1601,-5.2518,-5.3359,-5.4104,-5.4982,-5.5403,-5.5403,-5.5403,-5.5403,-2.3321,-2.5889,-2.776,-2.5905,-2.6916,-2.8412,-2.8412,0.0,0.0,0.0,0.0,0.0,0.0,0.0,0.0,0.0,0.0,0.0,0.0,0.0,0.0,0.0,0.0,0.0,0.0,0.0,0.0,0.0,0.0,0.0,0.0,0.0,0.0,0.0,0.0,0.0,0.0,-5.1761,-5.2373,-5.2373,-5.2373,-5.2764,-5.3382,-5.3382,-5.4136,0.0,0.0,0.0,-5.66,-5.66,-5.6653,-5.6794,-5.6899,-5.6587,-5.5974,-5.6125,-5.5196,-5.3784,-5.3096,-5.2715,-5.2498,-5.2498,-5.2498,-5.2498,-5.2498,-5.2498,-5.2498,-5.2498,-5.2498,-5.2498,-5.2498,-5.2498,-5.2498,-5.2498,-5.2498,-5.2462,-5.2335,-5.1665,-5.0868,-5.0053,-4.9275,-4.8514,-4.7826,-4.7717,-4.7717,-4.7717,-4.8289,-4.8746,-4.8781,-4.9389,-4.9824,-4.9879,-4.9898,-4.9898,-4.9898,-4.9978,-5.0031,-5.0108,-5.0163,-5.0231,-5.0302,-5.1009,-5.1467,-5.1601,-5.311,-5.397,-5.4104,-5.4982,-5.5403,-5.5403,-5.5403,-5.5403,-2.3222,-2.5259,-2.7147,-2.6932,-2.8804,-3.0808,-3.1222,0.0,0.0,0.0,0.0,0.0,0.0,0.0,0.0,0.0,0.0,0.0,0.0,0.0,0.0,0.0,0.0,0.0,0.0,0.0,0.0,0.0,0.0,0.0,0.0,0.0,0.0,0.0,0.0,0.0,0.0,-5.0667,-5.1396,-5.1777,-5.1777,-5.257,-5.3943,-5.3943,-5.4703,0.0,0.0,-5.6237,-5.66,-5.6742,-5.6847,-5.6863,-5.6566,-5.6219,-5.5785,-5.5051,-5.4309,-5.3585,-5.277,-5.2498,-5.2498,-5.2498,-5.2498,-5.2498,-5.2498,-5.2498,-5.2498,-5.2498,-5.2498,-5.2498,-5.2498,-5.2498,-5.2498,-5.2498,-5.2498,-5.2498,-5.2498,-5.1864,-5.1176,-5.0814,-4.9745,-4.8786,-4.8424,-4.8007,-4.7717,-4.7717,-4.8172,-4.8586,-4.8781,-4.9296,-4.9712,-4.9879,-4.9898,-4.9906,-4.9952,-5.0031,-5.0082,-5.0158,-5.0231,-5.0488,-5.099,-5.1391,-5.204,-5.2938,-5.3702,-5.4333,-5.4811,-5.5212,-5.5403,-5.5403,-5.5403,-5.5403,-2.3321,-2.4779,-2.6551,-2.8009,0.0,-3.2249,-3.3508,0.0,0.0,0.0,0.0,0.0,0.0,0.0,0.0,0.0,0.0,0.0,0.0,0.0,0.0,0.0,0.0,0.0,0.0,0.0,0.0,0.0,0.0,0.0,0.0,0.0,0.0,0.0,0.0,0.0,0.0,-4.9409,-5.0137,-5.1032,-5.1032,-5.1934,-5.3668,-5.3856,-5.4633,-5.597,-5.626,-5.6474,-5.6671,-5.6701,-5.6822,-5.6946,-5.607,-5.5631,-5.5287,-5.3911,-5.3422,-5.3331,-5.2715,-5.2498,-5.2498,-5.2498,-5.2498,-5.2498,-5.2498,-5.2498,-5.2498,-5.2498,-5.2498,-5.2498,-5.2498,-5.2498,-5.2498,-5.2498,-5.2498,-5.2498,-5.2498,-5.2009,-5.152,-5.1339,-5.0144,-4.913,-4.8949,-4.8242,-4.7717,-4.7717,-4.8111,-4.8495,-4.8781,-4.9201,-4.9625,-4.9852,-4.9898,-5.0028,-5.0297,-5.0368,-5.0514,-5.0784,-5.0851,-5.1181,-5.1849,-5.2079,-5.2785,-5.4065,-5.4295,-5.4734,-5.5403,-5.5403,-5.5403,-5.5403,-5.5403,-5.5403,-2.458,-2.5574,-2.6551,-2.8009,-2.9019,0.0,-3.316,-3.2663,0.0,-3.4303,0.0,0.0,0.0,0.0,0.0,0.0,0.0,0.0,0.0,0.0,0.0,0.0,0.0,0.0,0.0,0.0,0.0,0.0,0.0,0.0,0.0,0.0,0.0,0.0,0.0,0.0,0.0,0.0,-4.8879,-5.0286,-5.0286,-5.066,-5.1478,-5.2131,-5.323,-5.4694,-5.5401,-5.6163,-5.693,-5.6191,-5.6418,-5.7043,-5.5577,-5.4526,-5.3766,-5.2896,-5.2589,-5.257,-5.2516,-5.2498,-5.2498,-5.2498,-5.2498,-5.2498,-5.2498,-5.2498,-5.2498,-5.2498,-5.2498,-5.2498,-5.2498,-5.2498,-5.2498,-5.2498,-5.2498,-5.2498,-5.2498,-5.2444,-5.219,-5.143,-5.0597,-4.9764,-4.9039,-4.8242,-4.7717,-4.7717,-4.8307,-4.8781,-4.8816,-4.942,-4.9852,-4.9898,-4.9898,-5.0301,-5.123,-5.1288,-5.1688,-5.2575,-5.2614,-5.2652,-5.2709,-5.3492,-5.3989,-5.4104,-5.4887,-5.5345,-5.5403,-5.5403,-5.5403,-5.5403,-5.5403,-5.5403,-2.4265,-2.5624,-2.7114,-2.8163,-2.9582,0.0,0.0,-3.5131,-3.6208,0.0,0.0,0.0,0.0,0.0,0.0,0.0,0.0,0.0,0.0,0.0,0.0,0.0,0.0,0.0,0.0,0.0,0.0,0.0,0.0,0.0,0.0,0.0,0.0,0.0,0.0,0.0,0.0,0.0,-4.8445,-4.9416,-4.9886,-5.0693,-5.1915,-5.2555,-5.3432,-5.4473,-5.4802,-5.5202,-5.5505,-5.5333,-5.5455,-5.5667,-5.4581,-5.3657,-5.2915,-5.2607,-5.2498,-5.2498,-5.2498,-5.2498,-5.2498,-5.2498,-5.2498,-5.2498,-5.2498,-5.2498,-5.2498,-5.2498,-5.2498,-5.2498,-5.2498,-5.2498,-5.2498,-5.2498,-5.2498,-5.2498,-5.2498,-5.2498,-5.2408,-5.21,-5.0977,-4.9981,-4.9691,-4.8568,-4.7783,-4.805,-4.8477,-4.8885,-4.9155,-4.9607,-4.9898,-4.9898,-5.0453,-5.0995,-5.1415,-5.2457,-5.3232,-5.3588,-5.3091,-5.3034,-5.3588,-5.3913,-5.4352,-5.4906,-5.5231,-5.5403,-5.5403,-5.5403,-5.5403,-5.5403,-5.5403,-5.5403,-2.4414,-2.5773,-2.7549,0.0,0.0,0.0,-3.4733,-3.6423,-3.8063,0.0,0.0,0.0,0.0,0.0,0.0,0.0,0.0,0.0,0.0,0.0,0.0,0.0,0.0,0.0,0.0,0.0,0.0,0.0,0.0,0.0,0.0,0.0,0.0,0.0,0.0,0.0,0.0,0.0,-4.8838,-4.9291,-5.0001,-5.0814,-5.1592,-5.2277,-5.3052,-5.3806,-5.4161,-5.4471,-5.4688,-5.4569,-5.4381,-5.411,-5.382,-5.3204,-5.2498,-5.2498,-5.2498,-5.2498,-5.2498,-5.2498,-5.2498,-5.2498,-5.2498,-5.2498,-5.2498,-5.2498,-5.2498,-5.2498,-5.2498,-5.2498,-5.2498,-5.2498,-5.2498,-5.2498,-5.2498,-5.2498,-5.2498,-5.2498,-5.2426,-5.2172,-5.1013,-4.9999,-4.9764,-4.8605,-4.7783,-4.809,-4.8513,-4.8885,-4.9188,-4.9607,-5.002,-5.0304,-5.0962,-5.1637,-5.2247,-5.3385,-5.4193,-5.4486,-5.3951,-5.3894,-5.4486,-5.4505,-5.4791,-5.5403,-5.5403,-5.5403,-5.5403,-5.5403,-5.5403,-5.5403,-5.5403,-5.5403,-2.5292,-2.617,0.0,0.0,0.0,0.0,-3.5512,-3.6025,-3.687,0.0,0.0,0.0,0.0,0.0,0.0,0.0,0.0,0.0,0.0,0.0,0.0,0.0,0.0,0.0,0.0,0.0,0.0,0.0,0.0,0.0,0.0,0.0,0.0,0.0,0.0,0.0,0.0,0.0,-4.9998,-5.0038,-5.084,-5.0786,-5.0038,-5.0929,-5.1736,-5.2535,-5.3333,-5.4146,-5.4816,-5.4019,-5.3222,-5.257,-5.3385,-5.3204,-5.2498,-5.2498,-5.2498,-5.2498,-5.2498,-5.2498,-5.2498,-5.2498,-5.2498,-5.2498,-5.2498,-5.2498,-5.2498,-5.2498,-5.2498,-5.2498,-5.2498,-5.2498,-5.2498,-5.2498,-5.2498,-5.2498,-5.2498,-5.2498,-5.2263,-5.1466,-5.0651,-4.9836,-4.9057,-4.8242,-4.7717,-4.7717,-4.8327,-4.8816,-4.8816,-4.945,-5.0247,-5.1201,-5.1296,-5.206,-5.383,-5.4008,-5.4416,-5.5345,-5.5403,-5.5403,-5.5403,-5.5403,-5.5403,-5.5403,-5.5403,-5.5403,-5.5403,-5.5403,-5.5403,-5.5403,-5.5403,-5.5403,-2.4679,0.0,0.0,0.0,0.0,0.0,0.0,0.0,0.0,0.0,0.0,0.0,0.0,0.0,0.0,0.0,0.0,0.0,0.0,0.0,0.0,0.0,0.0,0.0,0.0,0.0,0.0,0.0,0.0,0.0,0.0,0.0,0.0,0.0,0.0,0.0,0.0,0.0,0.0,-5.0876,-5.1121,-5.1173,-5.0929,-5.1651,-5.2174,-5.2504,-5.273,-5.2987,-5.3186,-5.2951,-5.2715,-5.2516,-5.2752,-5.2715,-5.2498,-5.2498,-5.2498,-5.2498,-5.2498,-5.2498,-5.2498,-5.2498,-5.2498,-5.2498,-5.2498,-5.2498,-5.2498,-5.2498,-5.2498,-5.2498,-5.2498,-5.2498,-5.2498,-5.2498,-5.2498,-5.2498,-5.2498,-5.2498,-5.2426,-5.219,-5.1031,-4.9999,-4.9782,-4.8605,-4.7783,-4.809,-4.8513,-4.8986,-4.951,-4.975,-5.0047,-5.0404,-5.1502,-5.2456,-5.3105,-5.4288,-5.5091,-5.5384,-5.5403,-5.5403,-5.5403,-5.5403,-5.5403,-5.5403,-5.5403,-5.5403,-5.5403,-5.5403,-5.5403,-5.5403,-5.5403,-5.5403,-2.7062,0.0,0.0,0.0,0.0,0.0,0.0,0.0,0.0,0.0,0.0,0.0,0.0,0.0,0.0,0.0,0.0,0.0,0.0,0.0,0.0,0.0,0.0,0.0,0.0,0.0,0.0,0.0,0.0,0.0,0.0,0.0,0.0,0.0,0.0,0.0,0.0,0.0,0.0,-5.1637,-5.175,-5.1782,-5.1782,-5.2228,-5.2405,-5.2498,-5.2498,-5.2498,-5.2498,-5.2498,-5.2498,-5.2498,-5.2498,-5.2498,-5.2498,-5.2498,-5.2498,-5.2498,-5.2498,-5.2498,-5.2498,-5.2498,-5.2498,-5.2498,-5.2498,-5.2498,-5.2498,-5.2498,-5.2498,-5.2498,-5.2498,-5.2498,-5.2498,-5.2498,-5.2498,-5.2498,-5.2498,-5.2498,-5.2299,-5.1665,-5.0741,-4.989,-4.9257,-4.8351,-4.7783,-4.801,-4.8402,-4.8934,-4.9778,-4.9898,-4.9925,-5.0016,-5.0916,-5.2118,-5.3582,-5.4676,-5.5313,-5.5403,-5.5403,-5.5403,-5.5403,-5.5403,-5.5403,-5.5403,-5.5403,-5.5403,-5.5403,-5.5403,-5.5403,-5.5403,-5.5403,-5.5403,0.0,0.0,0.0,0.0,0.0,0.0,0.0,0.0,0.0,0.0,0.0,0.0,0.0,0.0,0.0,0.0,0.0,0.0,0.0,0.0,0.0,0.0,0.0,0.0,0.0,0.0,0.0,0.0,0.0,0.0,0.0,0.0,0.0,0.0,0.0,0.0,0.0,0.0,0.0,0.0,0.0,-5.2498,-5.2498,-5.2498,-5.2498,-5.2498,-5.2498,-5.2498,-5.2498,-5.2498,-5.2498,-5.2498,-5.2498,-5.2498,-5.2498,-5.2498,-5.2498,-5.2498,-5.2498,-5.2498,-5.2498,-5.2498,-5.2498,-5.2498,-5.2498,-5.2498,-5.2498,-5.2498,-5.2498,-5.2498,-5.2498,-5.2498,-5.2498,-5.2498,-5.2498,-5.2498,-5.2498,-5.2498,-5.2045,-5.0488,-5.0144,-4.9601,-4.8079,-4.7753,-4.7699,-4.7783,-4.8302,-4.8946,-4.9797,-4.9898,-4.9898,-4.9898,-5.0163,-5.1621,-5.4818,-5.5094,-5.5214,-5.5403,-5.5403,-5.5403,-5.5403,-5.5403,-5.5403,-5.5403,-5.5403,-5.5403,-5.5403,-5.5403,-5.5403,-5.5403,-5.5403,-5.5403,0.0,-3.0247,0.0,0.0,0.0,0.0,0.0,0.0,0.0,0.0,0.0,0.0,0.0,0.0,0.0,0.0,0.0,0.0,0.0,0.0,0.0,0.0,0.0,0.0,0.0,0.0,0.0,0.0,0.0,0.0,0.0,0.0,0.0,0.0,0.0,0.0,0.0,0.0,-5.2452,0.0,-5.2498,-5.2498,-5.2498,-5.2498,-5.2498,-5.2498,-5.2498,-5.2498,-5.2498,-5.2498,-5.2498,-5.2498,-5.2498,-5.2498,-5.2498,-5.2498,-5.2498,-5.2498,-5.2498,-5.2498,-5.2498,-5.2498,-5.2498,-5.2498,-5.2498,-5.2498,-5.2498,-5.2498,-5.2498,-5.2498,-5.2498,-5.2498,-5.2498,-5.2498,-5.2498,-5.2498,-5.2498,-5.2498,-5.2208,-5.1212,-5.0524,-4.9782,-4.8822,-4.8134,-4.7847,-4.8194,-4.964,-5.0508,-4.9967,-4.9898,-4.9898,-4.9898,-5.2248,-5.4124,-5.4884,-5.5178,-5.5358,-5.5403,-5.5403,-5.5403,-5.5403,-5.5403,-5.5403,-5.5403,-5.5403,-5.5403,-5.5403,-5.5403,-5.5403,-5.5403,-5.5403,-5.5403,0.0,0.0,0.0,0.0,0.0,0.0,0.0,0.0,0.0,0.0,0.0,0.0,0.0,0.0,0.0,0.0,0.0,0.0,0.0,0.0,0.0,0.0,0.0,0.0,0.0,0.0,0.0,0.0,0.0,0.0,0.0,0.0,0.0,0.0,0.0,0.0,-5.1827,-5.1873,-5.2118,-5.2498,-5.2498,-5.2498,-5.2498,-5.2498,-5.2498,-5.2498,-5.2498,-5.2498,-5.2498,-5.2498,-5.2498,-5.2498,-5.2498,-5.2498,-5.2498,-5.2498,-5.2498,-5.2498,-5.2498,-5.2498,-5.2498,-5.2498,-5.2498,-5.2498,-5.2498,-5.2498,-5.2498,-5.2498,-5.2498,-5.2498,-5.2498,-5.2498,-5.2498,-5.2498,-5.2498,-5.2498,-5.2498,-5.2498,-5.2136,-5.0959,-5.0379,-4.9709,-4.8532,-4.7989,-4.7765,-4.8035,-4.8928,-4.9656,-4.9863,-4.9898,-5.0505,-5.2115,-5.3859,-5.4901,-5.4901,-5.5225,-5.5403,-5.5403,-5.5403,-5.5403,-5.5403,-5.5403,-5.5403,-5.5403,-5.5403,-5.5403,-5.5403,-5.5403,-5.5403,-5.5403,-5.5403,-5.5403,0.0,0.0,0.0,0.0,0.0,0.0,0.0,0.0,0.0,0.0,0.0,0.0,0.0,0.0,0.0,0.0,0.0,0.0,0.0,0.0,0.0,0.0,0.0,0.0,0.0,0.0,0.0,0.0,0.0,0.0,0.0,0.0,0.0,0.0,0.0,0.0,-5.1067,-5.1086,-5.1411,-5.2082,-5.2226,-5.2371,-5.2498,-5.2498,-5.2498,-5.2498,-5.2498,-5.2498,-5.2498,-5.2498,-5.2498,-5.2498,-5.2498,-5.2498,-5.2498,-5.2498,-5.2498,-5.2498,-5.2498,-5.2498,-5.2498,-5.2498,-5.2498,-5.2498,-5.2498,-5.2498,-5.2498,-5.2498,-5.2498,-5.2498,-5.2498,-5.2498,-5.2498,-5.2498,-5.2498,-5.2498,-5.2498,-5.2389,-5.1846,-5.0379,-4.9872,-4.9257,-4.7935,-4.7717,-4.7717,-4.7717,-4.7911,-4.8532,-4.975,-4.9898,-5.0959,-5.3745,-5.456,-5.4931,-5.496,-5.5252,-5.5403,-5.5403,-5.5403,-5.5403,-5.5403,-5.5403,-5.5403,-5.5403,-5.5403,-5.5403,-5.5403,-5.5403,-5.5403,-5.5403,-5.5403,-5.5403,0.0,0.0,0.0,0.0,0.0,0.0,0.0,0.0,0.0,0.0,0.0,0.0,0.0,0.0,0.0,0.0,0.0,0.0,0.0,0.0,0.0,0.0,0.0,0.0,0.0,0.0,0.0,0.0,0.0,0.0,0.0,0.0,0.0,0.0,0.0,0.0,-5.0234,-5.0253,-5.0289,-5.0416,-5.1122,-5.1828,-5.2498,-5.2498,-5.2498,-5.2498,-5.2498,-5.2498,-5.2498,-5.2498,-5.2498,-5.2498,-5.2498,-5.2498,-5.2498,-5.2498,-5.2498,-5.2498,-5.2498,-5.2498,-5.2498,-5.2498,-5.2498,-5.2498,-5.2498,-5.2498,-5.2498,-5.2498,-5.2498,-5.2498,-5.2498,-5.2498,-5.2498,-5.2498,-5.2498,-5.2498,-5.2498,-5.1937,-5.1176,-5.0271,-4.8967,-4.7953,-4.7753,-4.7717,-4.7717,-4.7717,-4.8797,-4.9693,-4.9879,-4.9898,-5.0069,-5.0505,-5.3177,-5.5038,-5.5305,-5.5377,-5.5403,-5.5403,-5.5403,-5.5403,-5.5403,-5.5403,-5.5403,-5.5403,-5.5403,-5.5403,-5.5403,-5.5403,-5.5403,-5.5403,-5.5403,-5.5403,0.0,0.0,0.0,0.0,0.0,0.0,0.0,0.0,0.0,0.0,0.0,0.0,0.0,0.0,0.0,0.0,0.0,0.0,0.0,0.0,0.0,0.0,0.0,0.0,0.0,0.0,0.0,0.0,0.0,0.0,0.0,-4.7425,-4.7674,-4.8139,-4.82,0.0,-4.942,-4.9438,-4.9655,-5.009,-5.0452,-5.1049,-5.1828,-5.1828,-5.2063,-5.2498,-5.2498,-5.2498,-5.2498,-5.2498,-5.2498,-5.2498,-5.2498,-5.2498,-5.2498,-5.2498,-5.2498,-5.2498,-5.2498,-5.2498,-5.2498,-5.2498,-5.2498,-5.2498,-5.2498,-5.2498,-5.2498,-5.2498,-5.2498,-5.2498,-5.2498,-5.2498,-5.2498,-5.2498,-5.2498,-5.2498,-5.2498,-5.2208,-5.1683,-5.0723,-4.9021,-4.7717,-4.7717,-4.7717,-4.7717,-4.7717,-4.8967,-4.9898,-4.9898,-4.9898,-5.0256,-5.1232,-5.2903,-5.4349,-5.5305,-5.5403,-5.5057,-5.4212,-5.4952,-5.5403,-5.5403,-5.5403,-5.5403,-5.5403,-5.5403,-5.5403,-5.5403,-5.5403,-5.5403,-5.5403,-5.5403,-5.5403,0.0,0.0,0.0,0.0,0.0,0.0,0.0,0.0,0.0,0.0,0.0,0.0,0.0,0.0,0.0,0.0,0.0,0.0,0.0,0.0,0.0,0.0,0.0,0.0,0.0,0.0,0.0,0.0,0.0,0.0,0.0,-4.7468,-4.7615,-4.7717,-4.7717,-4.8007,-4.8605,-4.8605,-4.9003,-4.98,-4.98,-5.0216,-5.0995,-5.1194,-5.1629,-5.2208,-5.2408,-5.2498,-5.2498,-5.2498,-5.2498,-5.2498,-5.2498,-5.2498,-5.2498,-5.2498,-5.2498,-5.2498,-5.2498,-5.2498,-5.2498,-5.2498,-5.2498,-5.2498,-5.2498,-5.2498,-5.2498,-5.2498,-5.2498,-5.2498,-5.2498,-5.2498,-5.2444,-5.2226,-5.219,-5.2218,-5.2354,-5.21,-5.1638,-5.0871,-4.9053,-4.7717,-4.7717,-4.7717,-4.7717,-4.7717,-4.8621,-4.934,-4.934,-4.934,-5.02,-5.2451,-5.2992,-5.366,-5.4754,-5.4844,-5.4382,-5.3272,-5.3786,-5.4104,-5.4104,-5.439,-5.4677,-5.4963,-5.504,-5.5193,-5.5403,-5.5403,-5.5403,-5.5403,-5.5403,-5.5403,0.0,0.0,0.0,0.0,0.0,0.0,0.0,0.0,0.0,0.0,0.0,0.0,0.0,0.0,0.0,0.0,0.0,0.0,0.0,0.0,0.0,0.0,0.0,0.0,0.0,0.0,0.0,0.0,0.0,0.0,-4.7468,-4.7615,-4.7699,-4.7717,-4.7717,-4.7735,-4.7772,-4.7772,-4.8188,-4.8967,-4.8967,-4.9383,-5.018,-5.0941,-5.1303,-5.1393,-5.2172,-5.2498,-5.2498,-5.2498,-5.2498,-5.2498,-5.2498,-5.2498,-5.2498,-5.2498,-5.2498,-5.2498,-5.2498,-5.2498,-5.2498,-5.2498,-5.2498,-5.2498,-5.2498,-5.2498,-5.2498,-5.2498,-5.2498,-5.2498,-5.2498,-5.2498,-5.2299,-5.1538,-5.1357,-5.1474,-5.1875,-5.1037,-5.0192,-5.0168,-4.8821,-4.7717,-4.7717,-4.7717,-4.7717,-4.7717,-4.7783,-4.7806,-4.7806,-4.7806,-4.9167,-5.2773,-5.3182,-5.3248,-5.3314,-5.3314,-5.3272,-5.3206,-5.1549,-5.0569,-5.0569,-5.1601,-5.269,-5.376,-5.4046,-5.4581,-5.5403,-5.5403,-5.5403,-5.5403,-5.5403,-5.5403,0.0,0.0,0.0,0.0,0.0,0.0,0.0,0.0,0.0,0.0,0.0,0.0,0.0,0.0,0.0,0.0,0.0,0.0,0.0,0.0,0.0,0.0,0.0,0.0,0.0,0.0,0.0,0.0,0.0,0.0,-4.5959,-4.6566,-4.6939,-4.6939,-4.7446,-4.7717,-4.7717,-4.7717,-4.7844,-4.8134,-4.8134,-4.855,-4.9347,-4.9637,-5.0035,-5.0542,-5.0814,-5.1538,-5.2498,-5.2498,-5.2498,-5.2498,-5.2498,-5.2498,-5.2498,-5.2498,-5.2498,-5.2498,-5.2498,-5.2498,-5.2498,-5.2498,-5.2498,-5.2498,-5.2498,-5.2498,-5.2498,-5.2498,-5.2498,-5.2498,-5.2498,-5.2118,-5.152,-5.0705,-5.0253,-5.0203,-5.0959,-5.018,-4.9397,-4.9536,-4.8574,-4.7717,-4.7717,-4.7717,-4.7717,-4.7717,-4.7717,-4.7717,-4.7717,-4.7929,-4.9413,-5.2815,-5.3206,-5.3206,-5.3206,-5.3206,-5.2307,-5.0196,-5.022,-5.0493,-5.0928,-5.1631,-5.2346,-5.311,-5.3225,-5.397,-5.5403,-5.5403,-5.5116,-5.4581,-5.4581,-5.4581,-2.365,0.0,0.0,0.0,0.0,0.0,0.0,0.0,0.0,0.0,0.0,0.0,0.0,0.0,0.0,0.0,0.0,0.0,0.0,0.0,0.0,0.0,0.0,0.0,0.0,0.0,0.0,0.0,0.0,0.0,-4.5152,-4.5757,-4.6214,-4.6504,-4.7029,-4.7446,-4.7717,-4.7717,-4.7717,-4.7717,-4.7717,-4.7989,-4.8532,-4.8786,-4.9202,-4.9709,-4.9963,-5.085,-5.21,-5.21,-5.2263,-5.2498,-5.2498,-5.2498,-5.2498,-5.2498,-5.2498,-5.2498,-5.2498,-5.2498,-5.2498,-5.2498,-5.2498,-5.2498,-5.2498,-5.2599,-5.269,-5.2526,-5.2672,-5.2802,-5.2389,-5.1584,-5.072,-5.0213,-4.961,-4.9285,-4.9771,-4.945,-4.9119,-4.9518,-4.8532,-4.7717,-4.7717,-4.7717,-4.7717,-4.7717,-4.7717,-4.7717,-4.7717,-4.805,-4.915,-5.1334,-5.1573,-5.1573,-5.1573,-5.1573,-5.0637,-4.8453,-4.9271,-5.0043,-5.0496,-5.0995,-5.1574,-5.2222,-5.2335,-5.3091,-5.4524,-5.4524,-5.4237,-5.3664,-5.3664,-5.3664,0.0,0.0,0.0,0.0,0.0,0.0,0.0,0.0,0.0,0.0,0.0,0.0,0.0,0.0,0.0,0.0,0.0,0.0,0.0,0.0,0.0,0.0,0.0,0.0,0.0,0.0,0.0,0.0,0.0,0.0,-4.5218,-4.5254,-4.5635,-4.645,-4.6468,-4.6866,-4.7663,-4.7663,-4.7681,-4.7717,-4.7717,-4.7717,-4.7735,-4.8532,-4.8876,-4.8931,-4.9691,-5.047,-5.1212,-5.1267,-5.1756,-5.2462,-5.248,-5.2498,-5.2498,-5.2498,-5.2498,-5.2498,-5.2498,-5.2498,-5.2498,-5.2498,-5.2498,-5.2498,-5.2498,-5.2806,-5.303,-5.2645,-5.3096,-5.3382,-5.2095,-5.0894,-5.0005,-4.9986,-4.9338,-4.8676,-4.8364,-4.8812,-4.9434,-4.991,-4.8766,-4.7717,-4.7717,-4.7717,-4.7717,-4.7717,-4.7717,-4.7699,-4.7717,-4.805,-4.8306,-4.8306,-4.8306,-4.8306,-4.8306,-4.8306,-4.8306,-4.8306,-4.873,-4.8986,-4.8986,-4.9502,-5.0201,-5.1035,-5.1377,-5.1945,-5.2728,-5.2785,-5.2785,-5.2747,-5.2747,-5.2747,-2.2996,0.0,0.0,0.0,0.0,0.0,0.0,0.0,0.0,0.0,0.0,0.0,0.0,0.0,0.0,0.0,0.0,0.0,0.0,0.0,0.0,0.0,0.0,0.0,0.0,0.0,0.0,0.0,0.0,-4.3514,-4.3552,-4.4114,-4.4802,-4.5617,-4.5635,-4.6015,-4.683,-4.683,-4.712,-4.7717,-4.7717,-4.7717,-4.7717,-4.7935,-4.8043,-4.8043,-4.8279,-4.8822,-4.9655,-5.0814,-5.1411,-5.1683,-5.2263,-5.2498,-5.2498,-5.2498,-5.2498,-5.2498,-5.2498,-5.2498,-5.2498,-5.2498,-5.2498,-5.2572,-5.2831,-5.2787,-5.2743,-5.3244,-5.3308,-5.2994,-5.1711,-5.0676,-4.9875,-4.928,-4.8824,-4.8477,-4.8384,-4.8251,-4.8176,-4.8325,-4.8006,-4.7717,-4.7717,-4.7717,-4.7717,-4.7717,-4.7717,-4.7824,-4.809,-4.8229,-4.8306,-4.8306,-4.8306,-4.8306,-4.8306,-4.8306,-4.8306,-4.8306,-4.873,-4.8952,-4.885,-4.9453,-4.9898,-5.0144,-5.0506,-5.0779,-5.099,-5.2212,-5.2499,-5.1926,-5.1926,-5.1926,0.0,0.0,0.0,0.0,0.0,0.0,0.0,0.0,0.0,0.0,0.0,0.0,0.0,0.0,0.0,0.0,0.0,0.0,0.0,0.0,0.0,0.0,0.0,0.0,0.0,0.0,0.0,0.0,-4.2862,-4.2882,-4.2882,-4.3335,-4.3969,-4.4765,-4.4802,-4.5182,-4.5997,-4.5997,-4.6413,-4.721,-4.721,-4.7391,-4.7717,-4.7717,-4.7717,-4.7717,-4.7717,-4.7989,-4.8514,-4.9782,-5.0488,-5.0832,-5.1303,-5.1701,-5.1991,-5.1991,-5.2208,-5.2498,-5.2498,-5.2498,-5.2498,-5.2498,-5.2599,-5.2761,-5.2831,-5.303,-5.3212,-5.2964,-5.2508,-5.1918,-5.1357,-5.0576,-4.9827,-4.9358,-4.9132,-4.9015,-4.9015,-4.8832,-4.8421,-4.7806,-4.7717,-4.7717,-4.7717,-4.7717,-4.7717,-4.7717,-4.7866,-4.805,-4.8267,-4.8306,-4.8306,-4.8306,-4.8306,-4.8306,-4.8306,-4.8306,-4.8306,-4.8306,-4.8569,-4.8658,-4.8586,-4.924,-4.9599,-4.9599,-5.0051,-5.0302,-5.0302,-5.1276,-5.1525,-5.1066,-5.1066,-5.1066,0.0,0.0,0.0,0.0,0.0,0.0,0.0,-2.9052,0.0,0.0,0.0,0.0,0.0,0.0,0.0,0.0,0.0,0.0,0.0,0.0,0.0,0.0,0.0,0.0,0.0,0.0,0.0,-4.29,-4.2882,-4.2882,-4.2882,-4.2882,-4.3226,-4.3932,-4.3969,-4.4349,-4.5164,-4.5164,-4.5562,-4.6377,-4.6468,-4.6884,-4.7572,-4.7663,-4.7717,-4.7717,-4.7717,-4.7717,-4.7772,-4.8478,-4.9238,-4.9963,-5.0053,-5.0524,-5.1158,-5.1158,-5.1611,-5.2226,-5.2226,-5.2226,-5.2226,-5.2226,-5.2488,-5.2712,-5.2462,-5.309,-5.3603,-5.2167,-5.1248,-5.0748,-5.1102,-5.0542,-4.9898,-4.9898,-4.9898,-4.9898,-4.9898,-4.9898,-4.951,-4.8192,-4.7806,-4.7717,-4.7717,-4.7717,-4.7717,-4.7741,-4.809,-4.8306,-4.8306,-4.8306,-4.8306,-4.8306,-4.8306,-4.8306,-4.8306,-4.8306,-4.8306,-4.8306,-4.8306,-4.8306,-4.8326,-4.8949,-4.9333,-4.9345,-4.9981,-5.0302,-5.0302,-5.0302,-5.0302,-5.0302,-5.0302,-5.0302,0.0,0.0,0.0,0.0,0.0,0.0,0.0,-2.6856,0.0,0.0,0.0,0.0,0.0,0.0,0.0,0.0,0.0,0.0,0.0,0.0,0.0,0.0,0.0,0.0,0.0,0.0,0.0,-4.2882,-4.2882,-4.2882,-4.2882,-4.2882,-4.2955,-4.3118,-4.3118,-4.3516,-4.4331,-4.4331,-4.4729,-4.5544,-4.6196,-4.6576,-4.6757,-4.7409,-4.7717,-4.7717,-4.7717,-4.7717,-4.7717,-4.788,-4.8424,-4.9202,-4.9836,-5.018,-5.0325,-5.0325,-5.0371,-5.0435,-5.0542,-5.0498,-5.0453,-5.0542,-5.0631,-5.0769,-5.1314,-5.1412,-5.1414,-5.1689,-5.1431,-5.1102,-5.1178,-5.0542,-4.9898,-4.9898,-4.9898,-4.9898,-4.9898,-4.9898,-4.9805,-4.951,-4.8532,-4.7717,-4.7717,-4.7717,-4.7824,-4.8111,-4.8267,-4.8306,-4.8306,-4.8306,-4.8306,-4.8306,-4.8306,-4.8306,-4.8306,-4.8306,-4.8306,-4.8306,-4.8306,-4.8439,-4.8676,-4.908,-4.9424,-4.9702,-5.012,-5.0302,-5.0302,-5.0302,-5.0302,-5.0302,-5.0302,-5.0302,0.0,0.0,0.0,-2.8793,0.0,0.0,0.0,0.0,0.0,0.0,0.0,0.0,0.0,0.0,0.0,0.0,0.0,0.0,0.0,0.0,0.0,0.0,0.0,0.0,0.0,0.0,-4.2466,-4.2864,-4.2882,-4.2882,-4.2882,-4.2882,-4.2882,-4.2882,-4.2882,-4.3081,-4.3498,-4.3498,-4.3896,-4.4711,-4.511,-4.5508,-4.5924,-4.6739,-4.7102,-4.712,-4.7536,-4.7717,-4.7717,-4.7717,-4.7953,-4.8351,-4.8749,-4.9148,-4.9492,-4.9448,-4.9657,-4.9983,-4.9983,-4.9983,-5.0027,-5.009,-5.0338,-5.0695,-5.0855,-5.0768,-5.0708,-5.1331,-5.1055,-5.0542,-5.0542,-5.022,-4.9898,-4.9898,-4.9898,-4.9898,-4.9898,-4.9898,-4.9898,-4.9898,-4.9309,-4.8549,-4.7847,-4.7717,-4.7824,-4.8229,-4.8306,-4.8306,-4.8306,-4.8306,-4.8306,-4.8306,-4.8306,-4.8306,-4.8306,-4.8306,-4.8306,-4.8306,-4.8306,-4.8364,-4.855,-4.9048,-4.9541,-5.0051,-5.0212,-5.0302,-5.0302,-5.0302,-5.0302,-5.0302,-5.0302,-5.0302,0.0,0.0,0.0,0.0,0.0,-2.9699,0.0,0.0,0.0,0.0,0.0,0.0,0.0,0.0,0.0,0.0,0.0,0.0,0.0,0.0,0.0,0.0,0.0,0.0,0.0,0.0,0.0,-4.2339,-4.2158,-4.2176,-4.2629,-4.281,-4.2882,-4.2882,-4.2882,-4.2882,-4.2882,-4.2882,-4.3226,-4.386,-4.4023,-4.444,-4.5091,-4.5906,-4.6359,-4.654,-4.7192,-4.7572,-4.7717,-4.7717,-4.7717,-4.7717,-4.7717,-4.8116,-4.8634,-4.8529,-4.897,-4.9575,-4.9513,-4.9531,-4.9619,-4.9706,-5.0236,-5.0802,-5.0471,-5.0408,-5.0515,-5.0856,-5.0448,-4.9898,-4.9898,-4.9898,-4.9898,-4.9898,-4.9898,-4.9898,-4.9898,-4.9898,-4.9898,-4.9898,-4.9898,-4.945,-4.7933,-4.7741,-4.7929,-4.8267,-4.8306,-4.8306,-4.8306,-4.8306,-4.8306,-4.8306,-4.8306,-4.8306,-4.8306,-4.8306,-4.8306,-4.8306,-4.8306,-4.8364,-4.8495,-4.9145,-4.973,-5.0302,-5.0302,-5.0302,-5.0302,-5.0302,-5.0302,-5.0302,-5.0302,-5.0302,0.0,0.0,0.0,0.0,-3.2397,0.0,0.0,0.0,0.0,0.0,0.0,0.0,0.0,0.0,0.0,0.0,0.0,0.0,0.0,0.0,0.0,0.0,0.0,0.0,0.0,0.0,0.0,-4.0619,-3.9514,-3.9641,-4.1741,-4.2502,-4.2882,-4.2882,-4.2882,-4.2882,-4.2882,-4.2882,-4.2936,-4.3027,-4.3751,-4.415,-4.4258,-4.5073,-4.5834,-4.6504,-4.6613,-4.7047,-4.7717,-4.7717,-4.7717,-4.7717,-4.7717,-4.7772,-4.7844,-4.7802,-4.7813,-4.7825,-4.7928,-4.7886,-4.785,-4.8346,-4.899,-4.9615,-4.9551,-4.9755,-5.0003,-5.0031,-4.9974,-4.9898,-4.9898,-4.9898,-4.9898,-4.9898,-4.9898,-4.9898,-4.9898,-4.9898,-4.9898,-4.9898,-4.9898,-4.945,-4.7933,-4.801,-4.8229,-4.8306,-4.8306,-4.8306,-4.8306,-4.8306,-4.8306,-4.8306,-4.8306,-4.8306,-4.8306,-4.8306,-4.8306,-4.8306,-4.8306,-4.855,-4.9158,-4.983,-5.0236,-5.0302,-5.0302,-5.0302,-5.0302,-5.0302,-5.0302,-5.0302,-5.0302,-5.0302,0.0,0.0,0.0,0.0,0.0,0.0,0.0,0.0,-2.7815,0.0,0.0,0.0,0.0,0.0,0.0,0.0,0.0,0.0,0.0,0.0,0.0,0.0,0.0,0.0,0.0,0.0,0.0,0.0,0.0,-3.8337,-4.0256,-4.1542,-4.2411,-4.2882,-4.2882,-4.2882,-4.2882,-4.2882,-4.2882,-4.2882,-4.3226,-4.3389,-4.3425,-4.424,-4.4784,-4.5128,-4.5599,-4.6269,-4.7011,-4.7011,-4.7283,-4.7717,-4.7717,-4.7717,-4.7699,-4.7615,-4.7615,-4.7615,-4.7615,-4.7765,-4.8053,-4.8713,-4.9141,-4.9446,-4.9625,-4.9797,-4.9898,-4.9898,-4.9898,-4.9898,-4.9898,-4.9898,-4.9898,-4.9898,-4.9898,-4.9898,-4.9898,-4.9898,-4.9898,-4.9898,-4.9898,-4.9722,-4.9067,-4.8402,-4.805,-4.8267,-4.8306,-4.8306,-4.8306,-4.8306,-4.8306,-4.8306,-4.8306,-4.8306,-4.8306,-4.8306,-4.8306,-4.8306,-4.8569,-4.8967,-4.957,-4.9857,-5.01,-5.0302,-5.0302,-5.0302,-5.0302,-5.0302,-5.0302,-5.0302,-5.0302,-5.0302,-3.2306,0.0,0.0,0.0,0.0,0.0,0.0,0.0,0.0,0.0,0.0,0.0,0.0,0.0,0.0,0.0,0.0,0.0,0.0,0.0,0.0,0.0,0.0,0.0,0.0,0.0,0.0,0.0,0.0,0.0,-3.8916,-4.0347,-4.1633,-4.2846,-4.2882,-4.2882,-4.2882,-4.2882,-4.2882,-4.2882,-4.2882,-4.2882,-4.29,-4.3498,-4.3878,-4.4132,-4.4711,-4.5436,-4.6196,-4.6413,-4.6848,-4.7391,-4.7627,-4.7717,-4.7699,-4.7615,-4.7615,-4.7675,-4.7615,-4.7933,-4.8532,-4.9206,-4.9476,-4.9577,-4.9824,-4.9898,-4.9898,-4.9898,-4.9898,-4.9898,-4.9898,-4.9898,-4.9898,-4.9898,-4.9898,-4.9898,-4.9898,-4.9898,-4.9925,-4.9952,-4.9986,-4.9959,-4.9778,-4.9015,-4.8384,-4.8288,-4.8306,-4.8306,-4.8306,-4.8306,-4.8306,-4.8306,-4.8306,-4.8306,-4.8306,-4.8306,-4.8326,-4.8458,-4.8919,-4.9352,-4.9784,-4.9884,-5.0051,-5.0302,-5.0302,-5.0302,-5.0302,-5.0302,-5.0302,-5.0302,-5.0302,-5.0302,0.0,0.0,0.0,0.0,0.0,0.0,0.0,0.0,-2.9246,0.0,0.0,0.0,0.0,0.0,0.0,-2.6331,0.0,0.0,0.0,0.0,0.0,0.0,0.0,0.0,0.0,0.0,0.0,0.0,0.0,0.0,-3.7938,-3.9007,-4.0528,-4.281,-4.2882,-4.2882,-4.2882,-4.2882,-4.2882,-4.2882,-4.2882,-4.2882,-4.2882,-4.2918,-4.3353,-4.4095,-4.4132,-4.4584,-4.5399,-4.6178,-4.6522,-4.6631,-4.7409,-4.7717,-4.7717,-4.7717,-4.7717,-4.7717,-4.7717,-4.8153,-4.885,-4.927,-4.9625,-4.9898,-4.9898,-4.9898,-4.9898,-4.9898,-4.9898,-4.9898,-4.9898,-4.9898,-4.9898,-4.9898,-4.9898,-4.9898,-4.9898,-4.9898,-4.9952,-5.0082,-5.0207,-5.0076,-4.9424,-4.983,-4.9776,-4.8495,-4.8306,-4.8306,-4.8306,-4.8306,-4.8306,-4.8306,-4.8306,-4.8306,-4.8306,-4.8306,-4.8495,-4.8952,-4.942,-4.9712,-4.9803,-5.012,-5.0302,-5.0302,-5.0302,-5.0302,-5.0302,-5.0302,-5.0302,-5.0302,-5.0302,-5.0302,0.0,0.0,-3.5747,-3.2252,0.0,0.0,0.0,0.0,0.0,0.0,0.0,0.0,0.0,0.0,0.0,-2.6331,0.0,0.0,0.0,0.0,0.0,0.0,0.0,0.0,0.0,0.0,0.0,0.0,0.0,0.0,0.0,-3.7812,-3.9985,-4.127,-4.2339,-4.2882,-4.2882,-4.2882,-4.2882,-4.2882,-4.2882,-4.2882,-4.2882,-4.2882,-4.3045,-4.3299,-4.3299,-4.3751,-4.453,-4.4802,-4.5236,-4.5798,-4.6595,-4.692,-4.6975,-4.7518,-4.7717,-4.7783,-4.8269,-4.8765,-4.9252,-4.9607,-4.9797,-4.9898,-4.9898,-4.9898,-4.9898,-4.9898,-4.9898,-4.9898,-4.9898,-4.9898,-4.9898,-4.9898,-4.9898,-4.9925,-5.0016,-4.9971,-4.9952,-5.0082,-5.0207,-5.0076,-4.9424,-4.9113,-4.8832,-4.8364,-4.8306,-4.8306,-4.8306,-4.8306,-4.8306,-4.8306,-4.8306,-4.8306,-4.8306,-4.8306,-4.8623,-4.942,-4.9617,-4.9841,-5.012,-5.0236,-5.0302,-5.0302,-5.0302,-5.0302,-5.0302,-5.0302,-5.0302,-5.0302,-5.0302,-5.0302,-3.6109,-3.6381,0.0,0.0,-3.2632,0.0,0.0,0.0,0.0,0.0,0.0,0.0,0.0,0.0,0.0,0.0,-2.5896,0.0,0.0,0.0,0.0,0.0,0.0,0.0,0.0,0.0,-2.6131,-2.8051,0.0,0.0,0.0,0.0,-3.8862,-4.0456,-4.2067,-4.2882,-4.2882,-4.2882,-4.2882,-4.2882,-4.2882,-4.2882,-4.2882,-4.2882,-4.2882,-4.2882,-4.2882,-4.3172,-4.3697,-4.3969,-4.4403,-4.4947,-4.5761,-4.625,-4.6613,-4.7409,-4.7783,-4.8032,-4.8765,-4.9188,-4.9476,-4.9797,-4.9898,-4.9898,-4.9898,-4.9898,-4.9898,-4.9898,-4.9898,-4.9898,-4.9898,-4.9898,-4.9898,-4.9898,-4.9925,-4.9952,-5.0043,-5.0024,-4.9986,-5.0114,-5.0114,-4.9929,-4.9394,-4.8866,-4.8495,-4.8344,-4.8306,-4.8306,-4.8306,-4.8306,-4.8306,-4.8306,-4.8306,-4.8306,-4.8306,-4.8532,-4.8934,-4.9646,-4.9703,-4.9868,-5.0278,-5.0188,-5.0169,-5.0302,-5.0302,-5.0302,-5.0302,-5.0302,-5.0302,-5.0302,-5.0302,-5.0302]}]]